[[{"header":{"parameterUnit":"m.s-1","parameterCategory":1,"la1":30.6,"la2":28.766,"lo1":-90.7593,"lo2":-88.6598,"dx":0.0162,"dy":0.0183,"nx":116,"ny":114,"refTime":"2022-11-14T18:00:00:Z","depth":0,"parameterNumber":2,"parameterNumberName":"U-component_of_WINDS"},"data":[0.0,0.0,0.0,0.0,0.0,0.0,0.0,0.0,0.0,0.0,0.0,0.0,0.0,0.0,0.0,0.0,0.0,0.0,0.0,0.0,0.0,0.0,0.0,0.0,0.0,0.0,0.0,0.0,0.0,0.0,0.0,0.0,0.0,0.0,0.0,0.0,0.0,0.0,0.0,0.0,0.0,0.0,0.0,0.0,0.0,0.0,0.0,0.0,0.0,0.0,0.0,0.0,0.0,0.0,0.0,0.0,0.0,0.0,0.0,0.0,0.0,0.0,0.0,0.0,0.0,0.0,0.0,0.0,0.0,0.0,0.0,0.0,0.0,0.0,0.0,0.0,0.0,0.0,0.0,0.0,0.0,0.0,0.0,0.0,0.0,0.0,0.0,0.0,0.0,0.0,0.0,0.0,0.0,0.0,0.0,0.0,0.0,0.0,0.0,0.0,0.0,0.0,0.0,0.0,0.0,0.0,0.0,0.0,0.0,0.0,0.0,0.0,0.0,0.0,0.0,0.0,0.0,0.0,0.0,0.0,0.0,0.0,0.0,0.0,0.0,0.0,0.0,0.0,0.0,0.0,0.0,0.0,0.0,0.0,0.0,0.0,0.0,0.0,0.0,0.0,0.0,0.0,0.0,0.0,0.0,0.0,0.0,0.0,0.0,0.0,0.0,0.0,0.0,0.0,0.0,0.0,0.0,0.0,0.0,0.0,0.0,0.0,0.0,0.0,0.0,0.0,0.0,0.0,0.0,0.0,0.0,0.0,0.0,0.0,0.0,0.0,0.0,0.0,0.0,0.0,0.0,0.0,0.0,0.0,0.0,0.0,0.0,0.0,0.0,0.0,0.0,0.0,0.0,0.0,0.0,0.0,0.0,0.0,0.0,0.0,0.0,0.0,0.0,0.0,0.0,0.0,0.0,0.0,0.0,0.0,0.0,0.0,0.0,0.0,0.0,0.0,0.0,0.0,0.0,0.0,0.0,0.0,0.0,0.0,0.0,0.0,0.0,0.0,0.0,0.0,0.0,0.0,0.0,0.0,0.0,0.0,0.0,0.0,0.0,0.0,0.0,0.0,0.0,0.0,0.0,0.0,0.0,0.0,0.0,0.0,0.0,0.0,0.0,0.0,0.0,0.0,0.0,0.0,0.0,0.0,0.0,0.0,0.0,0.0,0.0,0.0,0.0,0.0,0.0,0.0,0.0,0.0,0.0,0.0,0.0,0.0,0.0,0.0,0.0,0.0,0.0,0.0,0.0,0.0,0.0,0.0,0.0,0.0,0.0,0.0,0.0,0.0,0.0,0.0,0.0,0.0,0.0,0.0,0.0,0.0,0.0,0.0,0.0,0.0,0.0,0.0,0.0,0.0,0.0,0.0,0.0,0.0,0.0,0.0,0.0,0.0,0.0,0.0,0.0,0.0,0.0,0.0,0.0,0.0,0.0,0.0,0.0,0.0,0.0,0.0,0.0,0.0,0.0,0.0,0.0,0.0,0.0,0.0,0.0,0.0,0.0,0.0,0.0,0.0,0.0,0.0,0.0,0.0,0.0,0.0,0.0,0.0,0.0,0.0,0.0,0.0,0.0,0.0,0.0,0.0,0.0,0.0,0.0,0.0,0.0,0.0,0.0,0.0,0.0,0.0,0.0,0.0,0.0,0.0,0.0,0.0,0.0,0.0,0.0,0.0,0.0,0.0,0.0,0.0,0.0,0.0,0.0,0.0,0.0,0.0,0.0,0.0,0.0,0.0,0.0,0.0,0.0,0.0,0.0,0.0,0.0,0.0,0.0,0.0,0.0,0.0,0.0,0.0,0.0,0.0,0.0,0.0,0.0,0.0,0.0,0.0,0.0,0.0,0.0,0.0,0.0,0.0,0.0,0.0,0.0,0.0,0.0,0.0,0.0,0.0,0.0,0.0,0.0,0.0,0.0,0.0,0.0,0.0,0.0,0.0,0.0,0.0,0.0,0.0,0.0,0.0,0.0,0.0,0.0,0.0,0.0,0.0,0.0,0.0,0.0,0.0,0.0,0.0,0.0,0.0,0.0,0.0,0.0,0.0,0.0,0.0,0.0,0.0,0.0,0.0,0.0,0.0,0.0,0.0,0.0,0.0,0.0,0.0,0.0,0.0,0.0,0.0,0.0,0.0,0.0,0.0,0.0,0.0,0.0,0.0,0.0,0.0,0.0,0.0,0.0,0.0,0.0,0.0,0.0,0.0,0.0,0.0,0.0,0.0,0.0,0.0,0.0,0.0,0.0,0.0,0.0,0.0,0.0,0.0,0.0,0.0,0.0,0.0,0.0,0.0,0.0,0.0,0.0,0.0,0.0,0.0,0.0,0.0,0.0,0.0,0.0,0.0,0.0,0.0,0.0,0.0,0.0,0.0,0.0,0.0,0.0,0.0,0.0,0.0,0.0,0.0,0.0,0.0,0.0,0.0,0.0,0.0,0.0,0.0,0.0,0.0,0.0,0.0,0.0,0.0,0.0,0.0,0.0,0.0,0.0,0.0,0.0,0.0,0.0,0.0,0.0,0.0,0.0,0.0,0.0,0.0,0.0,0.0,0.0,0.0,0.0,0.0,0.0,0.0,0.0,0.0,0.0,0.0,0.0,0.0,0.0,0.0,0.0,0.0,0.0,0.0,0.0,0.0,0.0,0.0,0.0,0.0,0.0,0.0,0.0,0.0,0.0,0.0,0.0,0.0,0.0,0.0,0.0,0.0,0.0,0.0,0.0,0.0,0.0,0.0,0.0,0.0,0.0,0.0,0.0,0.0,0.0,0.0,0.0,0.0,0.0,0.0,0.0,0.0,0.0,0.0,0.0,0.0,0.0,0.0,0.0,0.0,0.0,0.0,0.0,0.0,0.0,0.0,0.0,0.0,0.0,0.0,0.0,0.0,0.0,0.0,0.0,0.0,0.0,0.0,0.0,0.0,0.0,0.0,0.0,0.0,0.0,0.0,0.0,0.0,0.0,0.0,0.0,0.0,0.0,0.0,0.0,0.0,0.0,0.0,0.0,0.0,0.0,0.0,0.0,0.0,0.0,0.0,0.0,0.0,0.0,0.0,0.0,0.0,0.0,0.0,0.0,0.0,0.0,0.0,0.0,0.0,0.0,0.0,0.0,0.0,0.0,0.0,0.0,0.0,0.0,0.0,0.0,0.0,0.0,0.0,0.0,0.0,0.0,0.0,0.0,0.0,0.0,0.0,0.0,0.0,0.0,0.0,0.0,0.0,0.0,0.0,0.0,0.0,0.0,0.0,0.0,0.0,0.0,0.0,0.0,0.0,0.0,0.0,0.0,0.0,0.0,0.0,0.0,0.0,0.0,0.0,0.0,0.0,0.0,0.0,0.0,0.0,0.0,0.0,0.0,0.0,0.0,0.0,0.0,0.0,0.0,0.0,0.0,0.0,0.0,0.0,0.0,0.0,0.0,0.0,0.0,0.0,0.0,0.0,0.0,0.0,0.0,0.0,0.0,0.0,0.0,0.0,0.0,0.0,0.0,0.0,0.0,0.0,0.0,0.0,0.0,0.0,0.0,0.0,0.0,0.0,0.0,0.0,0.0,0.0,0.0,0.0,0.0,0.0,0.0,0.0,0.0,0.0,0.0,0.0,0.0,0.0,0.0,0.0,0.0,0.0,0.0,0.0,0.0,0.0,0.0,0.0,0.0,0.0,0.0,0.0,0.0,0.0,0.0,0.0,0.0,0.0,0.0,0.0,0.0,0.0,0.0,0.0,0.0,0.0,0.0,0.0,0.0,0.0,0.0,0.0,0.0,0.0,0.0,0.0,0.0,0.0,0.0,0.0,0.0,0.0,0.0,0.0,0.0,0.0,0.0,0.0,0.0,0.0,0.0,0.0,0.0,0.0,0.0,0.0,0.0,0.0,0.0,0.0,0.0,0.0,0.0,0.0,0.0,0.0,0.0,0.0,0.0,0.0,0.0,0.0,0.0,0.0,0.0,0.0,0.0,0.0,0.0,0.0,0.0,0.0,0.0,0.0,0.0,0.0,0.0,0.0,0.0,0.0,0.0,0.0,0.0,0.0,0.0,0.0,0.0,0.0,0.0,0.0,0.0,0.0,0.0,0.0,0.0,0.0,0.0,0.0,0.0,0.0,0.0,0.0,0.0,0.0,0.0,0.0,0.0,0.0,0.0,0.0,0.0,0.0,0.0,0.0,0.0,0.0,0.0,0.0,0.0,0.0,0.0,0.0,0.0,0.0,0.0,0.0,0.0,0.0,0.0,0.0,0.0,0.0,0.0,0.0,0.0,0.0,0.0,0.0,0.0,0.0,0.0,0.0,0.0,0.0,0.0,0.0,0.0,0.0,0.0,0.0,0.0,0.0,0.0,0.0,0.0,0.0,0.0,0.0,0.0,0.0,0.0,0.0,0.0,0.0,0.0,0.0,0.0,0.0,0.0,0.0,0.0,0.0,0.0,0.0,0.0,0.0,0.0,0.0,0.0,0.0,0.0,0.0,0.0,0.0,0.0,0.0,0.0,0.0,0.0,0.0,0.0,0.0,0.0,0.0,0.0,0.0,0.0,0.0,0.0,0.0,0.0,0.0,0.0,0.0,0.0,0.0,0.0,0.0,0.0,0.0,0.0,0.0,0.0,0.0,0.0,0.0,0.0,0.0,0.0,0.0,0.0,0.0,0.0,0.0,0.0,0.0,0.0,0.0,0.0,0.0,0.0,0.0,0.0,0.0,0.0,0.0,0.0,0.0,0.0,0.0,0.0,0.0,0.0,0.0,0.0,0.0,0.0,0.0,0.0,0.0,0.0,0.0,0.0,0.0,0.0,0.0,0.0,0.0,0.0,0.0,0.0,0.0,0.0,0.0,0.0,0.0,0.0,0.0,0.0,0.0,0.0,0.0,0.0,0.0,0.0,0.0,0.0,0.0,0.0,0.0,0.0,0.0,0.0,0.0,0.0,0.0,0.0,0.0,0.0,0.0,0.0,0.0,0.0,0.0,0.0,0.0,0.0,0.0,0.0,0.0,0.0,0.0,0.0,0.0,0.0,0.0,0.0,0.0,0.0,0.0,0.0,0.0,0.0,0.0,0.0,0.0,0.0,0.0,0.0,0.0,0.0,0.0,0.0,0.0,0.0,0.0,0.0,0.0,0.0,0.0,0.0,0.0,0.0,0.0,0.0,0.0,0.0,0.0,0.0,0.0,0.0,0.0,0.0,0.0,0.0,0.0,0.0,0.0,0.0,0.0,0.0,0.0,0.0,0.0,0.0,0.0,0.0,0.0,0.0,0.0,0.0,0.0,0.0,0.0,0.0,0.0,0.0,0.0,0.0,0.0,0.0,0.0,0.0,0.0,0.0,0.0,0.0,0.0,0.0,0.0,0.0,0.0,0.0,0.0,0.0,0.0,0.0,0.0,0.0,0.0,0.0,0.0,0.0,0.0,0.0,0.0,0.0,0.0,0.0,0.0,0.0,0.0,0.0,0.0,0.0,0.0,0.0,0.0,0.0,0.0,0.0,0.0,0.0,0.0,0.0,0.0,0.0,0.0,0.0,0.0,0.0,0.0,0.0,0.0,0.0,0.0,0.0,0.0,0.0,0.0,0.0,0.0,0.0,0.0,0.0,0.0,0.0,0.0,0.0,0.0,0.0,0.0,0.0,0.0,0.0,0.0,0.0,0.0,0.0,0.0,0.0,0.0,0.0,0.0,0.0,0.0,0.0,0.0,0.0,0.0,0.0,0.0,0.0,0.0,0.0,0.0,0.0,0.0,0.0,0.0,0.0,0.0,0.0,0.0,0.0,0.0,0.0,0.0,0.0,0.0,0.0,0.0,0.0,0.0,0.0,0.0,0.0,0.0,0.0,0.0,0.0,0.0,0.0,0.0,0.0,0.0,0.0,0.0,0.0,0.0,0.0,0.0,0.0,0.0,0.0,0.0,0.0,0.0,0.0,0.0,0.0,0.0,0.0,0.0,0.0,0.0,0.0,0.0,0.0,0.0,0.0,0.0,0.0,0.0,0.0,0.0,0.0,0.0,0.0,0.0,0.0,0.0,0.0,0.0,0.0,0.0,0.0,0.0,0.0,0.0,0.0,0.0,0.0,0.0,0.0,0.0,0.0,0.0,0.0,0.0,5.9538,0.0,0.0,0.0,0.0,0.0,0.0,0.0,0.0,0.0,0.0,0.0,0.0,0.0,0.0,0.0,0.0,0.0,0.0,0.0,0.0,0.0,0.0,0.0,0.0,4.0623,4.1277,4.17,4.1739,0.0,0.0,0.0,0.0,0.0,0.0,0.0,4.1123,4.1893,4.297,4.4239,4.6778,4.974,5.2972,5.1587,4.8971,4.547,0.0,0.0,0.0,0.0,0.0,0.0,0.0,0.0,0.0,0.0,0.0,0.0,0.0,0.0,0.0,0.0,0.0,0.0,0.0,0.0,0.0,0.0,0.0,0.0,0.0,0.0,0.0,0.0,0.0,0.0,0.0,0.0,0.0,0.0,0.0,0.0,0.0,0.0,0.0,0.0,0.0,0.0,0.0,0.0,0.0,0.0,0.0,0.0,0.0,0.0,0.0,0.0,0.0,0.0,0.0,0.0,0.0,0.0,0.0,0.0,0.0,0.0,0.0,0.0,0.0,0.0,0.0,0.0,0.0,0.0,0.0,6.2291,0.0,0.0,0.0,0.0,0.0,0.0,0.0,0.0,0.0,0.0,0.0,0.0,0.0,0.0,0.0,0.0,0.0,0.0,0.0,0.0,0.0,3.9892,4.0854,4.1854,4.2816,4.3701,4.3778,4.3778,4.3778,4.347,0.0,0.0,0.0,0.0,4.3316,4.4393,4.597,4.8009,5.1433,5.5434,5.9858,6.1396,5.8665,5.2433,5.1395,0.0,0.0,0.0,0.0,0.0,0.0,0.0,0.0,0.0,0.0,0.0,0.0,0.0,0.0,0.0,0.0,0.0,0.0,0.0,0.0,0.0,0.0,0.0,0.0,0.0,0.0,0.0,0.0,0.0,0.0,0.0,0.0,0.0,0.0,0.0,0.0,0.0,0.0,0.0,0.0,0.0,0.0,0.0,0.0,0.0,0.0,0.0,0.0,0.0,0.0,0.0,0.0,0.0,0.0,0.0,0.0,0.0,0.0,0.0,0.0,0.0,0.0,0.0,6.9633,7.0293,7.0954,7.1762,7.2165,7.1982,6.8788,6.6623,6.5228,0.0,0.0,0.0,0.0,0.0,0.0,0.0,0.0,0.0,0.0,0.0,0.0,0.0,0.0,0.0,0.0,0.0,0.0,0.0,0.0,4.0969,4.2585,4.4162,4.5432,4.6317,4.6394,4.6394,4.6394,4.497,0.0,0.0,0.0,4.3431,4.4124,4.6394,4.9163,5.2356,5.9358,6.3858,6.5974,6.6936,6.6474,6.4551,5.9396,5.578,5.3395,0.0,0.0,0.0,0.0,0.0,0.0,0.0,0.0,0.0,0.0,0.0,0.0,0.0,0.0,0.0,0.0,0.0,0.0,0.0,0.0,0.0,0.0,0.0,0.0,0.0,0.0,0.0,0.0,0.0,0.0,0.0,0.0,0.0,0.0,0.0,0.0,0.0,0.0,0.0,0.0,0.0,5.7116,5.6418,0.0,0.0,0.0,0.0,0.0,0.0,0.0,0.0,0.0,0.0,0.0,0.0,0.0,6.8639,7.0981,7.1769,7.2852,7.4233,7.4133,7.4184,7.4294,7.5102,7.5469,7.5469,7.5652,0.0,7.0183,6.7834,0.0,0.0,0.0,0.0,0.0,0.0,0.0,0.0,0.0,0.0,0.0,0.0,0.0,0.0,0.0,0.0,0.0,0.0,0.0,0.0,0.0,4.7009,4.8663,5.0971,5.0741,5.0433,5.0433,4.8856,0.0,0.0,4.6086,4.6086,4.6432,4.9394,5.4049,6.0358,6.6051,6.9744,7.1398,7.2245,7.2476,7.1975,6.8898,6.4512,5.9319,5.7627,0.0,0.0,0.0,0.0,0.0,0.0,0.0,0.0,0.0,0.0,0.0,0.0,0.0,0.0,0.0,0.0,0.0,0.0,0.0,0.0,0.0,0.0,0.0,0.0,0.0,0.0,0.0,0.0,0.0,0.0,0.0,0.0,0.0,0.0,0.0,0.0,0.0,0.0,0.0,5.807,5.9905,5.9538,5.9098,5.841,0.0,0.0,0.0,0.0,0.0,0.0,0.0,0.0,0.0,6.8877,7.1626,7.374,7.5157,7.6675,7.7626,7.7998,7.8762,7.9117,7.9029,7.936,7.9543,7.9543,7.991,7.9066,7.7121,7.3303,7.055,6.8458,0.0,0.0,0.0,0.0,6.5949,6.756,0.0,0.0,0.0,0.0,0.0,0.0,0.0,0.0,0.0,0.0,0.0,0.0,4.874,5.0625,5.2856,5.5857,5.5703,5.528,5.4857,5.301,5.1202,4.9471,4.9202,4.9279,4.974,5.4357,6.0396,6.7821,7.186,7.4668,7.6361,7.7015,7.7284,7.7284,7.663,7.2322,6.5436,6.3551,6.0435,5.6472,0.0,0.0,0.0,0.0,0.0,0.0,0.0,0.0,0.0,0.0,0.0,0.0,0.0,0.0,0.0,0.0,0.0,0.0,0.0,0.0,0.0,0.0,0.0,0.0,0.0,0.0,0.0,0.0,0.0,0.0,0.0,0.0,0.0,0.0,0.0,0.0,0.0,6.1006,6.2695,6.3099,6.2622,6.201,0.0,0.0,0.0,0.0,0.0,0.0,6.7568,7.0613,7.2875,7.4187,7.6593,7.8429,7.9566,8.1153,8.1809,8.1562,8.2571,8.2969,8.281,8.281,8.281,8.281,8.281,8.281,8.248,7.8222,7.5285,7.3303,7.1688,7.0606,7.0072,7.0089,7.1131,7.2726,0.0,0.0,0.0,0.0,0.0,0.0,0.0,0.0,0.0,0.0,0.0,4.8817,5.1433,5.5395,5.855,6.0319,6.1204,6.0935,5.9281,5.6819,5.4703,5.301,5.2164,5.2472,5.4126,6.2204,6.859,7.3129,7.6515,7.9054,8.0785,8.0823,8.0823,8.0823,8.0785,7.74,7.1591,6.909,6.6013,6.2435,5.7434,0.0,0.0,0.0,0.0,0.0,0.0,0.0,0.0,0.0,0.0,0.0,0.0,0.0,0.0,0.0,0.0,0.0,0.0,0.0,0.0,0.0,0.0,0.0,0.0,0.0,0.0,0.0,0.0,0.0,0.0,0.0,0.0,0.0,0.0,0.0,0.0,0.0,0.0,6.721,6.7357,0.0,0.0,0.0,0.0,6.872,7.0273,7.1932,7.3628,7.5514,7.7494,7.9641,8.0906,8.276,8.5273,8.4974,8.4984,8.5335,8.4949,8.4698,8.4499,8.4499,8.4499,8.4499,8.4499,8.4499,8.4278,8.1746,8.0167,7.9213,7.7524,7.6447,7.5927,7.5963,7.6289,7.6995,0.0,0.0,0.0,4.0508,4.0508,4.0508,4.0508,4.1239,4.2508,4.4432,4.7663,5.1548,5.628,5.9627,6.2858,6.6244,6.6282,6.5667,6.4474,6.2012,5.9358,5.6588,5.6203,5.7857,6.1743,6.8013,7.3014,7.6707,8.0131,8.2401,8.3555,8.4093,8.4324,8.4324,8.4324,8.2554,7.9285,7.5668,7.1822,6.7859,6.3858,5.9742,0.0,0.0,0.0,0.0,0.0,0.0,0.0,0.0,0.0,0.0,0.0,0.0,0.0,0.0,0.0,0.0,0.0,0.0,0.0,0.0,0.0,0.0,0.0,0.0,0.0,0.0,0.0,0.0,0.0,0.0,0.0,0.0,0.0,0.0,0.0,0.0,0.0,7.055,7.033,0.0,7.0386,7.0533,7.1287,7.2963,7.5121,7.6876,7.8042,8.0427,8.2296,8.3344,8.4669,8.5782,8.6738,8.6984,8.6926,8.6497,8.6683,8.6554,8.6151,8.6151,8.6151,8.6151,8.6151,8.6151,8.6077,8.5233,8.3801,8.2076,8.1489,8.0424,7.9423,8.0488,8.0713,8.0775,0.0,0.0,0.0,4.0508,4.0508,4.0585,4.0893,4.1893,4.3662,4.6509,5.0356,5.4857,6.0204,6.3589,6.6936,7.0667,7.0437,6.9629,6.8475,6.6282,6.3666,6.055,6.1243,6.382,6.8359,7.3168,7.713,8.0208,8.3632,8.5747,8.6632,8.744,8.7825,8.7825,8.7517,8.6594,8.5093,8.1708,7.7476,7.2745,6.9052,6.5051,6.0819,0.0,0.0,0.0,0.0,0.0,0.0,0.0,0.0,0.0,0.0,0.0,0.0,0.0,0.0,0.0,0.0,0.0,0.0,0.0,0.0,0.0,0.0,0.0,0.0,0.0,0.0,0.0,0.0,0.0,0.0,0.0,0.0,0.0,0.0,0.0,7.1321,7.345,7.3545,7.3618,7.4191,7.4916,7.5974,7.7361,7.9623,8.1333,8.2208,8.4141,8.5545,8.62,8.7258,8.7952,8.8264,8.8771,8.863,8.7869,8.8329,8.8169,8.7399,8.7399,8.7252,8.6995,8.6995,8.7142,8.7399,8.7399,8.6481,8.4976,8.4425,8.3581,8.2737,8.3508,8.3566,8.3401,0.0,0.0,4.0508,4.0508,4.0508,4.0777,4.1662,4.3239,4.5586,4.9009,5.3895,5.8704,6.3012,6.7244,7.0821,7.3399,7.3591,7.286,7.1168,6.9475,6.7398,6.4897,6.7244,7.0206,7.363,7.7823,8.1208,8.3747,8.7132,8.9171,9.0017,9.0864,9.1287,9.1248,9.0402,8.9556,8.8671,8.694,8.2862,7.7207,7.286,6.959,6.6859,0.0,0.0,0.0,0.0,0.0,0.0,0.0,0.0,0.0,0.0,0.0,0.0,0.0,0.0,0.0,0.0,0.0,0.0,0.0,0.0,0.0,0.0,0.0,0.0,0.0,0.0,0.0,0.0,0.0,0.0,0.0,0.0,0.0,6.8972,7.1798,7.4404,7.6056,7.7156,7.7754,7.7828,7.9527,8.1021,8.1938,8.3711,8.5151,8.6124,8.6442,8.7103,8.8305,8.8663,8.9269,9.0167,9.0398,9.0192,8.9593,8.986,8.9362,8.8243,8.8206,8.7766,8.7031,8.7031,8.7472,8.8206,8.8206,8.8206,8.8059,8.6481,8.582,8.571,8.4939,8.4779,8.5022,4.0508,4.0508,4.0508,4.0508,4.0508,4.0777,4.1662,4.3778,4.6663,5.0702,5.5665,6.0896,6.6397,6.9706,7.2783,7.5976,7.5668,7.513,7.463,7.2437,7.0552,6.9244,7.1629,7.4591,7.7977,8.1631,8.4747,8.7286,8.944,9.0941,9.1787,9.2633,9.3018,9.2979,9.2749,9.1864,9.0441,8.9325,8.6863,8.3247,7.8361,7.4861,7.2168,0.0,0.0,0.0,0.0,0.0,0.0,0.0,0.0,0.0,0.0,0.0,0.0,0.0,0.0,0.0,0.0,0.0,0.0,0.0,0.0,0.0,0.0,0.0,0.0,0.0,0.0,0.0,0.0,0.0,0.0,0.0,0.0,7.2312,7.3156,7.5147,7.734,7.9547,8.0295,8.1007,8.2264,8.3206,8.4106,8.4928,8.6363,8.7238,8.7394,8.8049,8.8662,8.906,8.9351,8.9563,8.9741,9.0385,9.0285,8.9411,8.9924,8.9756,8.905,8.8463,8.8096,8.7839,8.7252,8.7472,8.8206,8.8206,8.8276,8.8378,8.7798,8.6811,8.582,8.6224,8.647,8.6642,4.0508,4.0508,4.0508,4.0508,4.0508,4.0931,4.2162,4.4509,4.7778,5.2395,5.7742,6.3089,6.8359,7.1514,7.4476,7.7553,7.6707,7.613,7.6515,7.4476,7.336,7.3553,7.6015,7.8823,8.1862,8.5247,8.7902,8.9748,9.1787,9.3056,9.3557,9.4403,9.4788,9.4788,9.4403,9.371,9.2672,9.1133,8.9594,8.7863,8.3439,7.9977,7.7015,7.3476,7.0744,6.8629,6.6936,6.4974,6.3243,6.3243,0.0,0.0,0.0,0.0,0.0,0.0,0.0,0.0,0.0,0.0,0.0,0.0,0.0,0.0,0.0,0.0,0.0,0.0,0.0,0.0,0.0,0.0,0.0,0.0,7.4147,7.6704,7.7904,7.8922,8.0186,8.1649,8.2793,8.3834,8.4919,8.5862,8.6614,8.7221,8.8355,8.8994,8.8885,8.9377,8.9591,8.9541,8.9642,8.9642,8.9489,9.0072,8.9947,8.9324,9.0165,9.0062,8.9417,8.9271,8.883,0.0,8.7729,8.7766,8.8206,8.8276,8.8414,0.0,0.0,0.0,0.0,0.0,8.7335,8.76,4.0508,4.0508,4.0508,4.0508,4.0585,4.12,4.2854,4.5432,4.8971,5.3972,5.9704,6.4936,6.9244,7.2514,7.5399,7.7861,7.6707,7.6207,7.7092,7.5976,7.6015,7.7669,8.0169,8.2747,8.5401,8.8479,9.0556,9.1633,9.3903,9.5057,9.5172,9.5942,9.6288,9.6288,9.548,9.5095,9.4826,9.2595,9.1479,9.0941,8.7902,8.467,8.14,7.8823,7.6861,7.5207,7.363,7.1437,6.9283,6.9283,0.0,0.0,0.0,0.0,0.0,0.0,0.0,0.0,0.0,0.0,0.0,0.0,0.0,0.0,0.0,0.0,0.0,0.0,0.0,0.0,0.0,0.0,0.0,0.0,7.7965,8.0561,8.2407,8.2802,8.2966,8.3127,8.4875,8.6142,8.6499,8.7763,8.8615,8.8851,8.98,9.0307,9.025,0.0,0.0,0.0,0.0,8.9438,8.928,8.9515,8.9448,8.9172,9.031,9.0404,8.9564,9.0298,8.9784,8.8316,8.8243,8.8206,8.8206,8.8414,8.8619,8.8745,8.8575,8.8059,8.7563,8.7468,8.7693,8.8072,4.0623,4.0508,4.0508,4.0508,4.1085,4.1893,4.2931,4.6394,5.0471,5.4895,6.005,6.4936,6.9244,7.1475,7.3437,7.5284,7.513,7.5322,7.6207,7.7861,7.9285,8.0323,8.2824,8.567,8.8863,9.0248,9.2056,9.4249,9.4749,9.5365,9.6057,9.6211,9.6288,9.6288,9.6134,9.5672,9.4941,9.448,9.3095,9.1133,9.0479,8.8171,8.4863,8.2285,8.0708,7.9746,7.8707,7.6707,7.4514,7.4514,7.2822,7.0591,6.9706,6.7667,0.0,0.0,0.0,0.0,0.0,0.0,0.0,0.0,0.0,0.0,0.0,0.0,0.0,0.0,0.0,0.0,0.0,0.0,0.0,7.8185,7.991,8.1627,8.4064,8.5297,8.5979,8.6162,8.6949,8.784,8.8715,8.9507,8.9908,8.9996,9.0444,9.0681,9.0474,9.0129,8.9801,8.9489,8.9081,8.8785,8.8495,8.9038,8.9135,8.8782,0.0,0.0,9.0372,9.0555,9.0078,8.916,8.85,8.8206,8.8206,8.8414,8.8914,8.9336,8.858,8.8146,8.8096,8.8035,8.8158,8.8436,4.1893,4.1777,4.1777,4.1777,4.2162,4.2739,4.3585,4.6586,5.0279,5.4549,5.955,6.4166,6.7975,7.0283,7.2052,7.3322,7.4591,7.5707,7.6592,7.94,8.1631,8.2939,8.5824,8.8402,9.0517,9.221,9.371,9.498,9.5441,9.5865,9.6288,9.6288,9.6288,9.6288,9.6288,9.6057,9.5634,9.5172,9.4018,9.2364,9.1556,8.994,8.7709,8.517,8.3708,8.2901,8.2016,8.0592,7.9131,7.9131,7.7746,7.5861,7.4976,7.2937,7.0398,0.0,0.0,0.0,0.0,0.0,0.0,0.0,0.0,0.0,0.0,0.0,0.0,0.0,0.0,7.2025,0.0,0.0,7.8062,8.1213,8.2757,8.4101,8.5604,8.6895,8.7533,8.7263,8.8179,8.9062,8.9811,9.0307,9.0641,9.0643,9.0915,9.0953,9.0681,9.0307,8.9944,8.9489,8.8898,8.8436,8.8134,8.8228,8.8191,8.8029,8.9445,9.0076,9.0041,9.0849,9.0776,9.0005,8.9601,8.916,8.8793,8.9411,8.9982,9.0567,9.0436,8.9648,8.8653,8.8517,8.8633,8.8842,4.3316,4.347,4.347,4.3162,4.3239,4.3547,4.4201,4.6624,4.9779,5.3741,5.8396,6.2589,6.5782,6.8244,7.0244,7.1591,7.4053,7.6092,7.7438,8.0823,8.3593,8.5324,8.844,9.0633,9.1672,9.3864,9.5057,9.5249,9.5942,9.6288,9.6288,9.648,9.6442,9.6326,9.648,9.6442,9.6249,9.5557,9.4634,9.3595,9.221,9.0979,8.9671,8.7632,8.6247,8.5286,8.4593,8.3555,8.2593,8.2747,8.167,8.0169,7.9438,7.7707,7.5408,7.2813,7.0297,0.0,0.0,0.0,0.0,0.0,0.0,0.0,0.0,0.0,7.3992,7.4468,7.5501,7.7065,7.952,8.0429,8.1513,8.377,8.5243,8.6324,8.6945,8.8055,8.8613,8.8185,8.9112,8.9906,9.0307,9.0681,9.0915,9.1028,9.11,9.1064,9.0838,9.0436,8.9953,8.9489,8.8785,8.8195,8.7884,8.7616,8.7526,8.7562,8.9007,8.9709,8.9782,9.1215,9.1435,9.0664,9.0517,9.0147,8.9698,9.0462,9.1103,9.1784,9.2304,9.142,8.9801,8.9571,8.9571,8.977,4.4162,4.4778,4.4855,4.3355,4.3701,4.4201,4.4278,4.7124,5.024,5.301,5.6511,5.9742,6.2358,6.4243,6.6551,6.9706,7.2322,7.5091,7.8169,8.2285,8.5363,8.7055,8.9633,9.1787,9.3403,9.4441,9.5365,9.6134,9.6249,9.6288,9.6326,9.7019,9.698,9.6326,9.7057,9.698,9.6288,9.6211,9.5211,9.3672,9.348,9.2018,8.9863,8.9594,8.8479,8.7094,8.7017,8.544,8.3555,8.4362,8.3478,8.2016,8.19,8.1208,7.9831,7.7193,7.5027,7.3169,7.1427,7.1434,7.2154,7.3035,7.4696,7.6056,0.0,0.0,7.8748,7.932,8.025,8.1318,8.2613,8.3187,8.3999,8.5537,8.5979,8.6509,8.7724,8.8959,8.9874,9.0344,9.0266,9.0212,9.0436,9.08,9.0989,9.0989,9.0989,9.0915,9.0759,9.0129,8.9516,8.9027,8.8256,8.773,8.7335,8.7867,8.8198,8.8372,8.9993,9.0836,9.1011,9.1757,9.165,9.0876,9.014,9.0046,9.0434,9.0814,9.1375,9.2087,9.2489,9.2565,9.2459,9.2185,9.1938,9.1823,4.5047,4.5355,4.5355,4.4662,4.4816,4.5047,4.5047,4.7086,4.9394,5.1471,5.4703,5.7588,5.9665,6.182,6.4089,6.6513,6.9937,7.363,7.7553,8.2247,8.5863,8.8055,9.0594,9.2518,9.3672,9.4557,9.5441,9.6288,9.6288,9.6288,9.6326,9.7134,9.7057,9.6326,9.7134,9.7057,9.6288,9.5749,9.4826,9.3672,9.3172,9.2056,9.0671,9.0671,8.9633,8.8017,8.7017,8.567,0.0,8.417,8.4016,8.3824,8.3824,8.3593,8.2869,8.0558,7.8582,7.6794,7.4936,7.5542,0.0,0.0,7.9895,8.1606,8.1508,8.2674,8.3754,8.3735,8.4183,8.4749,8.5276,8.5275,8.5687,0.0,8.7017,8.7572,8.8973,8.9817,9.0691,9.1685,9.1469,9.1323,9.1408,9.1222,9.11,9.1028,9.0953,9.08,9.0478,8.9906,8.9589,8.9479,8.884,8.8524,8.8704,8.8827,8.8974,8.9183,9.0361,9.0983,9.1228,9.1794,9.1907,9.1576,9.1385,9.1609,9.2156,9.2623,9.3217,9.3894,9.4312,9.4529,9.4452,9.3013,9.2342,9.2087,4.5586,4.5586,4.5586,4.5586,4.5586,4.5586,4.5586,4.7009,4.8625,5.0125,5.2856,5.5395,5.7357,5.9435,6.155,6.3705,6.7552,7.1783,7.6284,8.1362,8.5324,8.7863,9.0633,9.2402,9.2979,9.4326,9.5288,9.5942,9.6172,9.6288,9.6326,9.7134,9.7057,9.6326,9.7134,9.6903,9.5903,9.5249,9.4364,9.3326,9.271,9.1979,9.1171,9.0941,8.9787,8.8132,8.6632,8.5286,8.4055,8.3208,8.3324,8.3901,8.4132,8.4362,8.4214,8.2479,8.0771,7.9209,7.8103,7.9324,0.0,8.2559,8.4613,8.6252,8.6146,8.6772,8.7234,8.709,8.7079,8.7093,8.7235,8.6931,8.6795,8.7386,8.7693,8.8369,8.9852,9.0604,9.1369,9.2413,9.2411,9.2251,9.2103,9.1527,9.11,9.0991,9.1068,9.0941,9.0517,9.0134,8.9984,9.0049,8.9506,8.9381,8.9698,8.9779,8.996,9.0168,9.0979,9.1523,9.1697,9.2045,9.2162,9.2162,9.2442,9.2876,9.3499,9.4067,9.4613,9.5248,9.561,9.5776,9.5619,9.3915,9.3074,9.2768,4.5586,4.5586,4.5586,4.5586,4.5586,4.5586,4.5586,4.7009,4.8432,4.9317,5.0933,5.2972,5.5511,5.6588,5.8511,6.1858,6.5282,6.936,7.4437,7.9554,8.3516,8.6055,8.944,9.1248,9.1287,9.371,9.5018,9.5018,9.5903,9.6288,9.6326,9.7134,9.7057,9.6326,9.7134,9.6596,9.5018,9.5018,9.4057,9.2518,9.2518,9.1979,9.1133,9.0287,8.8902,8.7325,8.644,8.4516,8.2247,8.1439,8.1208,8.1362,8.2131,8.2939,8.3445,8.2395,8.1193,8.0309,8.1149,8.3292,8.5781,8.7695,8.8954,8.9748,8.9748,8.903,8.85,8.9106,8.8606,8.8119,8.8351,8.7836,8.746,8.7497,8.7757,8.8517,9.0024,9.1256,9.2203,9.2632,9.2907,9.2776,0.0,9.1414,9.0991,9.0915,9.1319,9.1385,9.1003,9.1,9.0811,9.0387,8.9898,8.9698,8.9661,9.0471,9.1085,9.1461,9.2276,9.2751,9.2951,9.2547,9.2409,9.2409,9.2714,9.3263,9.3932,9.4454,9.4969,9.5425,9.5776,9.59,9.5821,9.5401,9.4855,9.4432,4.5586,4.5586,4.5586,4.5586,4.5586,4.5586,4.5586,4.7009,4.8202,4.8509,5.101,0.0,0.0,0.0,0.0,0.0,6.3474,6.7359,7.1898,7.6938,8.09,8.3478,8.6863,8.894,8.9517,9.0902,9.2172,9.3326,9.3633,9.4057,9.4595,9.5441,9.5403,9.4595,9.5441,9.5211,9.4095,9.3557,9.2672,9.1595,9.1018,9.0287,8.944,8.8556,8.7209,8.5401,0.0,8.1362,8.0516,7.9669,7.9361,7.9515,8.0362,8.1593,8.2721,8.2715,8.2262,8.2095,8.3628,8.6004,8.823,8.9112,9.0524,9.1479,9.0902,9.0413,9.0033,8.9978,8.9394,8.8759,8.8383,8.7973,8.7878,8.8396,8.8915,8.9964,9.1846,9.229,9.263,9.3335,9.2573,0.0,0.0,0.0,0.0,9.1357,9.1271,9.118,9.1186,9.1013,9.0812,9.0846,9.0747,9.0974,9.1491,9.1855,9.2209,9.2439,9.2603,9.2616,9.2409,9.2233,9.2528,9.3255,9.3694,9.4635,9.5838,9.6437,9.6972,9.7499,9.7628,9.7364,9.6863,9.6538,9.5705,9.4613,4.5586,4.5586,4.5586,4.5586,4.5586,0.0,0.0,0.0,0.0,0.0,0.0,0.0,0.0,0.0,0.0,0.0,0.0,6.4897,6.8859,7.3591,7.7515,8.04,8.3478,8.567,8.6824,8.7979,8.9248,9.0671,9.1287,9.1825,9.2364,9.321,9.3326,9.2826,9.3056,9.271,9.1864,9.1018,9.0171,8.9325,8.8786,8.8248,8.7632,8.6478,8.5016,0.0,7.9669,7.8054,7.7515,7.7246,7.7553,7.8246,7.9438,8.1138,8.2842,8.3407,8.36,8.405,8.593,8.8114,8.9994,9.0568,9.16,9.2364,9.1787,9.1297,9.0799,9.0436,8.9811,8.906,8.8421,8.8233,8.8387,8.8997,8.9855,9.1001,9.2587,9.2595,9.2565,9.2831,9.2147,9.1643,0.0,0.0,0.0,9.171,9.1571,9.1469,9.1537,9.1385,9.1379,9.1422,9.1458,9.1855,9.2579,9.2818,9.3099,9.3425,9.3293,9.3102,9.2975,9.2975,9.3305,9.4105,9.4681,9.5644,9.6837,9.7566,9.8082,9.8511,9.8633,9.8326,9.7827,9.7197,9.6349,9.5249,4.5586,4.5586,4.5586,0.0,0.0,0.0,0.0,0.0,0.0,0.0,0.0,0.0,0.0,0.0,0.0,0.0,0.0,0.0,6.5474,6.9629,7.3437,7.6784,7.9438,8.1593,8.317,8.4863,8.617,8.7094,8.8671,8.9517,8.9594,9.0441,9.0825,9.0787,8.994,8.9133,8.8363,8.7555,8.6671,8.5824,8.5824,8.5786,8.5517,8.3901,8.2208,8.0323,7.7015,7.4745,7.3514,7.4361,7.5861,7.7707,7.9438,8.1644,8.373,8.4509,8.5281,8.6164,8.7849,8.9612,9.1184,9.2026,9.2369,9.2479,9.2441,9.1642,9.0799,9.0558,8.9859,8.9114,0.0,0.0,8.9081,8.9236,9.0558,9.1695,9.2355,9.2478,9.2185,0.0,0.0,0.0,0.0,0.0,0.0,9.1967,0.0,9.2156,9.1918,9.2239,9.2303,9.2091,9.2091,9.2373,9.2914,9.3146,9.3658,9.4477,9.4243,9.4244,9.4522,9.4522,9.4594,9.4955,9.5566,9.6267,9.7007,9.7877,9.8369,9.8664,9.8865,9.8904,9.8712,9.7546,9.6942,9.6429,0.0,0.0,0.0,0.0,0.0,0.0,0.0,0.0,0.0,0.0,0.0,0.0,0.0,0.0,0.0,0.0,0.0,0.0,6.2897,6.6397,6.936,7.1552,7.5284,7.7515,7.7938,7.9592,8.117,8.2708,8.3131,8.3978,8.5209,8.544,8.5555,8.5517,8.5324,8.5093,8.4901,8.467,8.3708,8.2362,8.2362,8.1593,8.0323,7.9285,7.7823,7.6053,7.3937,7.2476,7.1783,7.3322,7.6207,7.9554,8.19,8.3413,8.469,8.6115,8.7079,8.7963,8.9111,9.0645,9.1873,9.1562,9.1982,9.2326,9.1672,9.122,9.0799,9.0436,8.9773,8.906,0.0,0.0,0.0,9.0205,9.1655,0.0,9.4174,9.3287,0.0,9.2772,0.0,9.0717,9.147,9.1422,0.0,0.0,9.2067,9.191,9.2246,9.2192,9.2091,9.1876,9.2303,9.2714,9.3072,9.4148,9.4897,9.5297,9.4964,9.4696,9.4337,9.4337,9.4926,9.5981,9.6452,9.7515,9.9022,9.9678,10.0174,10.0515,10.0596,10.0289,9.975,9.9324,9.8452,9.7429,0.0,0.0,0.0,0.0,0.0,0.0,0.0,0.0,0.0,0.0,0.0,0.0,0.0,0.0,0.0,0.0,0.0,0.0,0.0,6.3243,6.5667,6.7398,7.0821,7.3014,7.3745,7.5053,7.6399,7.7746,7.813,7.8784,7.9708,8.0092,8.0246,8.0246,7.9862,7.9669,7.9669,7.9323,7.8631,0.0,0.0,7.7169,7.6207,7.5361,7.4207,7.2822,7.1129,7.0937,7.1898,7.4745,7.8515,8.2477,8.5016,8.6368,8.7257,8.8563,8.9028,8.9261,9.0142,9.11,9.1715,9.1325,9.1556,9.1787,9.1325,9.0991,9.0719,9.0351,8.9676,8.8934,8.8302,8.8741,0.0,0.0,0.0,0.0,9.4276,9.3517,9.2809,0.0,9.1487,0.0,9.1678,9.172,9.1892,0.0,9.2067,9.1924,9.2233,9.2091,9.1948,9.1803,9.2409,9.3165,9.4098,9.5359,9.6066,9.6211,9.5886,9.5692,9.5478,9.5478,9.6067,9.7112,0.0,9.8546,9.979,10.0385,10.0913,10.1167,10.1288,10.1019,10.0596,10.0094,9.9347,9.841,0.0,0.0,0.0,0.0,0.0,0.0,0.0,0.0,0.0,5.1279,5.101,0.0,0.0,0.0,0.0,0.0,0.0,0.0,0.0,0.0,6.232,6.4012,6.6436,6.8475,7.0014,7.0898,7.1783,7.2668,7.336,7.3745,7.3899,7.463,7.4976,7.4976,7.4207,7.3937,7.3976,7.3283,7.3014,7.3014,7.3014,7.2937,7.2745,0.0,7.1129,7.0206,6.8898,7.0052,7.286,7.7207,8.1439,8.5363,8.8017,8.9402,9.0248,9.1133,9.0748,9.0248,9.0979,9.121,9.121,9.121,9.121,9.121,9.121,9.0953,9.06,9.0351,8.9566,8.871,8.8242,8.8615,8.9341,9.0503,0.0,9.3049,9.3629,9.3501,9.2949,9.1996,9.1904,9.179,9.1646,9.1897,9.2091,9.2091,9.2202,9.2276,9.2276,9.206,9.2096,9.2242,9.2774,9.3881,9.5685,9.6592,9.7072,9.7199,9.6944,9.687,9.7063,9.7063,9.7465,9.8158,9.8604,0.0,9.9999,10.0604,10.0995,10.1208,10.1288,10.1289,10.1212,10.0401,9.9892,9.9517,0.0,0.0,0.0,0.0,0.0,0.0,0.0,0.0,0.0,0.0,5.2587,5.1741,0.0,0.0,0.0,0.0,0.0,0.0,0.0,0.0,0.0,6.1396,6.3205,6.4666,6.5667,6.6551,6.7398,6.8205,6.8359,6.8783,6.9513,6.9667,6.9744,6.9706,6.9552,6.9898,7.0552,7.0437,7.036,7.036,7.036,6.9937,6.9283,6.9129,0.0,0.0,6.8244,7.0052,7.2937,7.79,8.1939,8.5478,8.8671,9.0287,9.1171,9.2018,9.1672,9.1018,9.1171,9.121,9.121,9.121,9.121,9.121,9.121,9.0953,9.06,9.0181,8.9516,8.8748,8.8158,8.8461,8.921,9.0313,9.1633,9.2859,9.4027,9.3481,9.3088,0.0,9.2305,9.1683,9.2183,0.0,0.0,0.0,0.0,9.2941,9.2941,9.2868,9.3381,9.4508,9.4852,9.579,9.7238,9.7546,9.7816,9.8096,9.7935,9.7636,9.7211,9.7393,9.7711,9.832,9.8792,0.0,10.0288,10.0574,10.0962,10.1288,10.1327,10.1289,10.1289,10.1096,10.0934,10.0474,0.0,0.0,0.0,0.0,0.0,0.0,0.0,5.4395,5.5972,5.6434,5.5742,5.4549,5.2779,5.2164,5.2087,0.0,0.0,0.0,0.0,0.0,0.0,5.9435,6.1089,6.2397,6.3281,6.4128,6.4743,6.5128,0.0,6.5359,6.5743,6.5743,6.5743,6.5743,6.5743,6.5974,6.6359,6.6359,6.6628,6.7051,6.7051,6.7051,6.709,6.709,0.0,0.0,6.809,7.0321,7.3437,7.7246,8.1054,8.5055,8.9787,9.1556,9.2056,9.2864,9.221,9.121,9.121,9.121,9.121,9.121,9.121,9.121,9.121,9.0915,9.0364,8.9647,8.9022,8.8367,8.7514,8.7767,8.8531,9.0045,9.1013,9.2114,9.3744,9.3593,9.3401,9.3597,9.2672,9.2172,0.0,9.202,0.0,0.0,0.0,9.3088,9.3088,9.3492,9.4153,9.5091,9.5774,9.6584,9.7505,9.8079,9.8367,9.832,9.8254,9.8023,9.7536,9.7748,9.8084,9.8667,9.9175,0.0,10.0612,10.0913,10.1088,10.1289,10.1289,10.1289,10.1289,10.1289,10.1208,10.088,0.0,0.0,0.0,0.0,0.0,0.0,5.3318,5.6049,5.8204,5.9242,5.9358,5.8204,5.5164,5.3241,5.2202,0.0,0.0,0.0,0.0,0.0,0.0,0.0,0.0,0.0,0.0,0.0,0.0,0.0,6.2781,0.0,0.0,0.0,0.0,0.0,6.2781,6.2858,6.3051,6.3051,6.3551,0.0,0.0,6.5013,0.0,0.0,0.0,0.0,0.0,7.036,7.336,7.6092,7.9592,8.3747,8.9363,9.1518,9.2133,9.3133,9.2364,9.121,9.121,9.121,9.121,9.121,9.121,9.121,9.121,9.0724,9.0016,8.9114,8.8504,8.7854,8.6957,8.7045,8.7814,8.9551,9.0249,9.1199,9.3002,9.3438,9.3488,9.3364,9.2914,0.0,9.2409,9.202,0.0,0.0,0.0,0.0,9.3602,9.4373,9.5,9.547,9.631,9.6951,9.7386,9.8316,9.8616,9.8254,9.832,9.8188,9.7887,9.8091,9.845,9.8938,9.9462,0.0,0.0,10.1004,10.1208,10.1289,10.1289,10.1289,10.1289,10.1289,10.1287,10.1088,0.0,0.0,0.0,0.0,0.0,0.0,5.4972,5.828,6.1012,6.2627,6.2858,6.2127,6.0281,5.5895,5.3087,0.0,0.0,0.0,0.0,0.0,0.0,0.0,0.0,0.0,0.0,0.0,0.0,0.0,0.0,0.0,0.0,0.0,0.0,0.0,0.0,6.1473,6.2204,6.2204,0.0,0.0,0.0,0.0,0.0,0.0,0.0,0.0,0.0,6.959,7.1668,7.4976,7.79,8.09,8.5324,8.8286,9.0479,9.2133,9.1941,9.121,9.121,9.121,9.121,9.121,9.121,9.121,9.121,9.0263,8.9329,8.9,8.8051,8.7183,8.6845,8.6915,8.7358,8.8446,8.9492,9.0469,9.1688,9.2496,9.3044,9.3211,0.0,0.0,9.2409,9.202,0.0,0.0,0.0,0.0,9.529,9.6061,9.6541,9.6842,9.699,9.7245,9.7459,9.8084,9.8254,9.8158,9.8423,9.8423,9.8091,9.8262,9.8552,9.8854,9.9329,0.0,0.0,10.0875,10.1088,10.1289,10.1289,10.1289,10.1289,10.1289,10.1287,10.1165,0.0,0.0,0.0,0.0,0.0,0.0,5.5203,5.8588,6.1396,6.3089,6.3782,6.3435,6.1781,5.8396,5.5434,5.3395,0.0,0.0,0.0,0.0,0.0,0.0,0.0,0.0,0.0,0.0,0.0,6.0781,0.0,0.0,0.0,0.0,0.0,0.0,0.0,0.0,6.132,6.132,0.0,0.0,0.0,0.0,0.0,0.0,0.0,0.0,0.0,0.0,7.2052,7.4437,7.6592,7.8938,8.2631,8.5247,8.7517,9.0787,9.1479,9.121,9.121,9.121,9.121,9.121,9.121,9.121,9.121,9.0225,8.91,8.8276,8.7221,8.6362,8.6101,8.614,8.677,8.8262,8.9214,9.0162,9.1283,9.2232,9.2818,9.2885,9.2684,0.0,0.0,0.0,0.0,0.0,0.0,0.0,9.6208,9.6539,9.6762,9.6989,9.7027,9.7175,9.7393,9.778,9.7986,9.8091,9.8487,9.8487,9.8329,9.8423,9.8642,9.8975,9.9443,0.0,0.0,10.1,10.1208,10.1289,10.1289,10.1289,10.1289,10.1289,10.1288,10.117,0.0,0.0,0.0,0.0,0.0,5.151,5.5164,5.8396,6.1127,6.3051,6.4051,6.3974,6.2281,5.9819,5.7049,5.3857,5.2779,0.0,0.0,0.0,0.0,0.0,0.0,0.0,0.0,0.0,6.1166,6.1166,6.1435,6.155,0.0,0.0,0.0,0.0,0.0,0.0,0.0,0.0,0.0,0.0,0.0,0.0,0.0,0.0,0.0,0.0,0.0,0.0,0.0,0.0,0.0,7.7053,8.0169,8.2708,8.5286,8.9286,9.0633,9.0864,9.1133,9.121,9.121,9.121,9.121,9.121,9.121,9.0071,8.8721,8.7781,8.6594,8.5694,8.5544,8.5724,8.647,8.8157,8.9077,8.9956,9.0942,9.1961,9.2616,9.2684,0.0,0.0,0.0,0.0,0.0,0.0,0.0,0.0,9.6685,9.6685,9.6762,9.6914,9.6914,9.6989,9.7138,9.7536,9.778,9.7955,9.8357,9.8423,9.8262,9.8357,9.8578,9.8854,9.9291,0.0,0.0,10.0995,10.1088,10.121,10.1287,10.121,10.121,10.1326,10.1326,10.121,0.0,0.0,0.0,0.0,0.0,0.0,5.5049,5.7857,6.0435,6.2974,6.4051,6.3974,6.2281,5.9819,5.728,5.4703,5.3703,0.0,0.0,0.0,0.0,0.0,0.0,0.0,0.0,0.0,6.2089,6.2089,6.2897,6.3281,6.3281,6.2474,6.2089,0.0,0.0,0.0,0.0,0.0,0.0,0.0,0.0,0.0,6.5897,0.0,0.0,0.0,0.0,0.0,0.0,0.0,0.0,0.0,0.0,8.0862,8.4286,8.7709,8.9286,9.0094,9.0979,9.121,9.121,9.121,9.121,9.121,9.121,8.9648,8.8114,8.7666,8.6252,8.517,8.5432,8.5826,8.6575,8.7949,8.8904,8.9782,9.0803,9.1753,9.2479,0.0,0.0,0.0,0.0,0.0,0.0,0.0,0.0,0.0,9.6685,9.6685,9.6685,9.6685,9.6685,9.6685,9.6685,9.7248,9.7499,9.7499,9.8091,9.8196,9.7817,9.8023,9.8225,0.0,0.0,0.0,0.0,10.0612,10.0913,10.0962,10.1088,10.1126,10.1004,10.1203,10.1206,10.1206,0.0,0.0,0.0,0.0,0.0,0.0,5.4395,5.6549,5.8473,6.0435,6.1473,6.155,6.0435,5.8588,5.6626,5.4664,5.3164,0.0,0.0,0.0,0.0,0.0,0.0,0.0,0.0,6.1627,6.2358,6.2935,6.3782,6.4205,6.4166,6.3935,6.3205,6.2089,6.182,0.0,0.0,0.0,0.0,0.0,0.0,6.4589,6.5897,0.0,0.0,0.0,0.0,0.0,0.0,0.0,0.0,0.0,0.0,0.0,0.0,8.4401,8.744,9.0094,9.0979,9.121,9.121,9.121,9.121,9.121,9.121,8.9648,8.8076,8.779,8.5895,8.455,8.5499,8.5408,8.5876,8.7839,8.8904,8.9711,9.0554,9.1683,9.2409,9.2479,9.2479,9.27,0.0,0.0,0.0,0.0,0.0,0.0,9.6685,9.6685,9.6685,9.6685,9.6685,9.6685,9.6685,9.6952,9.7248,9.7284,9.7641,9.7711,9.757,9.778,9.8023,0.0,0.0,0.0,0.0,10.0604,10.0913,10.1,10.1004,10.1,10.0869,10.0875,10.1,10.1081,0.0,0.0,0.0,0.0,0.0,0.0,5.3164,5.4972,5.6434,5.7473,5.8627,5.8934,5.7742,5.6665,5.5357,5.3664,5.2549,0.0,0.0,0.0,0.0,0.0,0.0,0.0,6.0281,6.1473,6.2666,6.3782,6.4974,6.5705,6.6013,6.5397,6.4512,6.3474,6.2512,6.1781,0.0,0.0,0.0,0.0,6.4012,6.4936,6.5897,0.0,0.0,0.0,0.0,0.0,0.0,0.0,0.0,0.0,0.0,0.0,0.0,0.0,8.5632,8.8786,9.0287,9.071,9.0787,9.1133,9.121,9.1133,9.0787,8.9455,8.8117,8.7493,8.5705,8.4515,8.5636,8.5436,8.5918,8.8483,8.9228,8.9892,9.0994,9.1797,9.2303,9.2409,0.0,0.0,0.0,0.0,0.0,0.0,0.0,0.0,9.6685,9.6685,9.6685,9.6685,9.6685,9.6685,9.6685,9.6914,9.7027,9.7175,9.7321,9.7393,9.7321,9.7536,9.7678,0.0,0.0,0.0,0.0,10.0189,10.0604,10.0696,10.078,10.0688,10.051,10.0595,10.0688,10.0825,0.0,0.0,0.0,0.0,0.0,0.0,0.0,5.328,5.4357,5.4395,5.5742,5.6126,5.4587,5.4357,5.3664,5.2049,0.0,0.0,0.0,0.0,0.0,0.0,0.0,0.0,5.9473,6.1204,6.2935,6.4705,6.6359,6.7667,6.8552,6.6936,6.609,6.5859,6.3397,6.2166,6.205,0.0,0.0,0.0,6.5128,6.582,0.0,0.0,0.0,0.0,0.0,0.0,0.0,0.0,0.0,0.0,0.0,0.0,0.0,0.0,0.0,0.0,0.0,8.9748,9.0094,9.0902,9.1133,9.0902,9.0094,8.914,0.0,8.6846,8.5589,8.4967,8.5863,8.5775,8.6586,8.9522,8.9873,9.0287,9.1944,9.2239,9.2347,0.0,9.301,0.0,0.0,0.0,0.0,0.0,0.0,0.0,9.6685,9.6685,9.6685,9.6685,9.6685,9.6685,9.6685,9.6914,9.6989,9.6989,9.7138,9.7138,9.6989,9.7211,9.7248,0.0,0.0,0.0,0.0,9.9628,9.9986,10.0177,10.0277,10.0215,10.001,10.0075,10.0227,10.0413,0.0,0.0,0.0,0.0,0.0,0.0,0.0,0.0,0.0,0.0,5.3857,5.3933,5.3549,5.2933,5.2356,0.0,0.0,0.0,0.0,0.0,0.0,0.0,0.0,0.0,5.9473,6.1204,6.3243,6.559,6.7282,6.8859,7.0283,6.9283,6.809,6.6744,6.4859,6.2935,6.1166,6.2012,0.0,0.0,6.4474,6.5282,0.0,0.0,0.0,0.0,6.8398,6.9475,0.0,0.0,0.0,0.0,0.0,0.0,0.0,0.0,8.1708,8.3747,8.6286,0.0,8.994,9.0171,9.021,9.0171,0.0,8.8679,8.7348,8.685,8.5632,8.5015,8.5974,8.5834,8.6586,8.9522,8.9873,9.0508,9.2717,9.3564,9.4005,9.4256,9.4189,0.0,0.0,0.0,0.0,0.0,0.0,9.6685,9.6685,9.6685,9.6685,9.6685,9.6685,9.6685,9.6685,9.6762,9.6762,9.6762,9.6838,9.6838,9.6762,9.6989,9.7063,0.0,0.0,0.0,9.8692,9.9462,9.9828,10.01,10.0113,9.9919,9.9611,9.9537,9.9666,9.9881,0.0,0.0,0.0,0.0,0.0,0.0,0.0,0.0,0.0,0.0,5.2333,5.241,5.2046,5.1585,0.0,0.0,0.0,0.0,0.0,0.0,0.0,0.0,0.0,5.7588,5.8934,6.1012,6.3358,6.5897,6.7975,6.986,7.1475,7.0629,6.9552,6.8167,6.5282,6.3012,6.1435,6.2281,6.3128,6.3974,6.4859,0.0,0.0,0.0,0.0,0.0,6.8398,6.9744,0.0,7.2052,7.3014,7.4207,0.0,0.0,0.0,0.0,8.1285,8.3285,8.5055,8.6824,8.8363,8.9133,8.9363,8.9248,8.8825,8.8021,8.711,8.6432,8.588,8.5705,8.6373,8.678,8.7772,8.9924,9.0439,9.1196,9.3155,9.4115,9.4411,9.4187,9.4669,0.0,0.0,0.0,0.0,0.0,0.0,9.6685,9.6685,9.6685,9.6685,9.6685,9.6685,9.6685,9.6685,9.6685,9.6685,9.6685,9.6685,9.6685,9.6685,9.6838,9.6838,0.0,0.0,0.0,9.8217,9.8877,9.9329,9.9593,9.9593,9.9367,9.9035,9.8915,9.8975,9.9234,0.0,0.0,0.0,0.0,0.0,0.0,0.0,0.0,0.0,0.0,0.0,0.0,0.0,0.0,0.0,0.0,0.0,0.0,0.0,0.0,0.0,0.0,5.6588,5.7511,5.8665,6.105,6.3589,6.6282,6.8821,7.1014,7.2745,7.1898,7.0706,6.9129,6.5089,6.2858,6.2127,6.2974,6.382,6.4666,6.5551,0.0,0.0,0.0,0.0,0.0,0.0,0.0,0.0,7.2514,7.3591,7.5053,7.5938,0.0,0.0,0.0,0.0,0.0,8.4753,8.556,8.6522,8.8402,8.8863,8.8671,8.794,8.7671,8.7333,8.6278,8.6428,8.6818,8.7223,8.807,8.9174,9.0665,9.1576,9.2498,9.3661,9.4372,9.4594,9.3822,9.4706,0.0,0.0,0.0,0.0,0.0,0.0,9.6685,9.6685,9.6685,9.6685,9.6685,9.6685,9.6685,9.6685,9.6685,9.6685,9.6685,9.6685,9.6685,9.6685,9.6685,9.6685,9.6685,0.0,0.0,9.7711,9.8217,9.8667,9.899,9.905,9.8805,9.845,9.832,9.8282,9.8504,0.0,0.0,0.0,0.0,0.0,0.0,0.0,0.0,0.0,0.0,0.0,0.0,0.0,0.0,0.0,0.0,0.0,0.0,0.0,0.0,0.0,5.678,5.6934,5.805,6.0358,6.2204,6.4743,6.8013,7.0552,7.3053,7.5399,7.4514,7.1745,6.7359,6.4551,6.2858,6.2127,6.2974,6.382,6.4666,6.5551,0.0,0.0,0.0,0.0,0.0,0.0,0.0,0.0,7.386,7.4976,7.5938,7.6823,0.0,0.0,0.0,0.0,0.0,8.519,8.5846,8.6463,8.9098,8.971,8.9671,8.9556,8.8979,8.8371,8.7926,8.7689,8.7883,8.8847,8.8822,8.9419,9.1633,9.3685,9.495,9.4869,0.0,9.5735,9.5442,0.0,0.0,0.0,0.0,0.0,0.0,0.0,9.6685,9.6685,9.6685,9.6685,9.6685,9.6685,9.6685,9.6685,9.6685,9.6685,9.6685,9.6685,9.6685,9.6685,9.6685,9.6685,9.6685,0.0,9.7101,9.7356,9.7918,9.8254,9.845,9.8578,9.8487,9.8158,9.7955,9.8023,9.8254,0.0,0.0,0.0,0.0,0.0,0.0,0.0,0.0,0.0,0.0,0.0,0.0,0.0,0.0,0.0,0.0,0.0,0.0,0.0,0.0,0.0,5.8319,5.9242,6.0281,6.1473,6.4012,6.6782,6.9744,7.2783,7.5322,7.7323,7.5515,7.1975,6.7013,6.4936,6.3551,6.2781,6.3128,6.4089,6.532,0.0,0.0,0.0,0.0,0.0,0.0,0.0,0.0,0.0,0.0,7.5284,7.6245,7.7553,0.0,0.0,0.0,0.0,0.0,8.5926,8.6851,8.7619,8.9803,8.976,8.914,8.914,8.8906,8.8637,8.842,8.8882,8.9435,8.9735,9.0495,9.1677,9.3387,9.451,9.5213,9.5492,9.5526,0.0,0.0,0.0,0.0,0.0,0.0,0.0,0.0,0.0,0.0,9.6685,9.6685,9.6685,9.6685,9.6685,9.6685,9.6685,9.6685,9.6685,9.6685,9.6685,9.6685,9.6685,9.6685,9.6685,9.6685,0.0,9.6914,9.7101,9.7428,9.7711,9.7918,9.7986,9.7849,9.757,9.7465,9.7607,9.8023,0.0,0.0,0.0,0.0,0.0,0.0,0.0,0.0,0.0,0.0,0.0,0.0,0.0,0.0,0.0,0.0,0.0,0.0,0.0,0.0,5.7742,5.9435,6.155,6.2858,6.3243,6.6359,6.9321,7.2091,7.5322,7.7553,7.8746,7.6207,7.2399,6.7628,6.5743,6.4436,6.3589,6.3589,6.4474,6.5897,0.0,0.0,0.0,0.0,0.0,0.0,0.0,0.0,0.0,0.0,0.0,0.0,0.0,0.0,0.0,8.19,8.299,8.3892,8.6354,8.7581,8.8496,8.995,8.9842,8.9301,8.9107,8.9486,8.9752,8.9489,9.0417,9.125,9.1057,9.2367,9.3727,9.4602,9.4796,0.0,0.0,0.0,0.0,0.0,0.0,0.0,0.0,0.0,0.0,0.0,0.0,0.0,9.6685,9.6685,9.6685,9.6685,9.6685,9.6685,9.6685,9.6685,9.6685,9.6685,9.6685,9.6685,9.6685,9.6685,9.6685,9.6685,9.6685,9.6762,9.6914,9.7101,9.7211,9.7356,9.7428,9.7284,9.7175,9.7063,9.7248,9.7641,0.0,0.0,0.0,0.0,0.0,0.0,0.0,0.0,0.0,0.0,0.0,0.0,0.0,0.0,0.0,0.0,0.0,0.0,0.0,0.0,5.7742,5.9435,6.2666,6.5166,6.6705,6.9283,7.2283,7.563,7.8246,7.9592,7.9669,7.7092,7.363,6.9398,6.6936,6.532,6.4512,6.4512,6.5051,6.5897,6.5897,0.0,0.0,0.0,0.0,0.0,0.0,0.0,0.0,0.0,0.0,0.0,0.0,0.0,8.1246,8.2978,8.3384,8.386,8.6279,8.7384,8.8138,8.9015,9.0564,9.1683,9.0952,9.2138,9.3059,9.2217,9.2564,9.3162,9.3746,9.4187,9.4438,9.4255,9.4875,0.0,0.0,0.0,0.0,0.0,0.0,0.0,0.0,0.0,0.0,0.0,0.0,0.0,9.6685,9.6685,9.6685,9.6685,9.6685,9.6685,9.6685,9.6685,9.6685,9.6685,9.6685,9.6685,9.6685,9.6685,9.6685,9.6685,9.6685,9.6685,9.6762,9.6914,9.7063,9.7063,9.7211,9.7211,9.6989,9.6989,9.7101,9.7284,0.0,0.0,0.0,0.0,0.0,0.0,0.0,0.0,0.0,0.0,0.0,0.0,0.0,0.0,0.0,0.0,0.0,0.0,0.0,5.5241,5.7165,5.9396,6.2281,6.5359,6.8629,7.1206,7.4168,7.7553,8.0631,8.1631,8.0554,7.8015,7.4284,6.9629,6.7552,6.5859,6.4589,6.4589,6.5089,6.5897,6.5897,6.5897,0.0,0.0,0.0,0.0,0.0,0.0,0.0,0.0,7.6784,7.7823,7.8323,7.9323,8.0746,8.2939,8.3845,8.4629,8.6928,8.8061,8.8765,8.9609,9.0852,9.1715,9.1069,9.1986,9.2864,9.2521,9.3371,9.4324,9.4822,9.4866,9.4893,9.5156,9.4896,0.0,0.0,0.0,0.0,0.0,0.0,0.0,0.0,0.0,0.0,0.0,0.0,0.0,9.6914,9.6762,9.6685,9.6685,9.6685,9.6685,9.6685,9.6685,9.6685,9.6685,9.6685,9.6685,9.6685,9.6685,9.6685,9.6685,9.6685,9.6685,9.6685,9.6762,9.6838,9.6838,9.6914,9.6838,9.6838,9.6838,9.6914,9.7101,0.0,0.0,0.0,0.0,0.0,0.0,0.0,0.0,0.0,0.0,0.0,0.0,0.0,0.0,0.0,0.0,0.0,0.0,5.3587,5.4664,5.6549,5.9396,6.1935,6.5205,6.9206,7.2052,7.5284,7.89,8.1785,8.2324,8.0631,7.8092,7.4591,7.0398,6.8706,6.7128,6.5782,6.5513,6.5743,6.6244,6.6013,6.5897,0.0,0.0,0.0,0.0,0.0,0.0,0.0,0.0,7.6746,7.7746,7.8323,7.9477,8.0977,8.3016,8.4229,8.5396,8.7118,8.8477,8.952,9.0053,9.1184,9.2087,9.1758,9.2526,9.3287,9.3287,9.4329,9.525,9.5401,9.5286,9.5235,0.0,0.0,0.0,0.0,0.0,0.0,0.0,0.0,0.0,0.0,0.0,0.0,0.0,0.0,0.0,0.0,9.6838,9.6685,9.6685,9.6685,9.6685,9.6685,9.6685,9.6685,9.6685,9.6685,9.6685,9.6685,9.6685,9.6685,9.6685,9.6685,9.6685,9.6685,9.6685,9.6685,9.6685,9.6685,9.6685,9.6685,9.6685,9.6762,9.6914,0.0,0.0,0.0,0.0,0.0,0.0,0.0,0.0,0.0,0.0,0.0,0.0,0.0,0.0,0.0,0.0,0.0,0.0,5.4395,5.4511,5.5972,5.9358,6.1935,6.4897,6.8321,7.1745,7.5592,7.9785,8.1439,8.14,7.9708,7.7169,7.463,7.2129,7.0475,6.9244,6.8359,6.7475,6.709,6.7051,6.6244,6.5897,6.5897,0.0,0.0,0.0,0.0,0.0,0.0,0.0,7.7092,7.8477,7.8477,8.0246,8.2439,8.3362,8.4652,8.5971,8.6583,8.8438,9.0243,9.0205,9.1604,9.3043,9.3368,9.4216,9.498,9.5018,9.5598,9.6019,9.5686,9.5598,0.0,0.0,0.0,0.0,0.0,0.0,0.0,0.0,0.0,0.0,0.0,0.0,0.0,0.0,0.0,0.0,0.0,9.6838,9.6685,9.6685,9.6685,9.6685,9.6685,9.6685,9.6685,9.6685,9.6685,9.6685,9.6685,9.6685,9.6685,9.6685,9.6685,9.6685,9.6685,9.6685,9.6685,9.6685,9.6685,9.6685,9.6685,9.6685,9.6685,9.6685,0.0,0.0,0.0,0.0,0.0,0.0,0.0,0.0,0.0,0.0,0.0,0.0,0.0,0.0,0.0,0.0,0.0,0.0,5.4472,5.4511,5.5742,5.855,6.0512,6.3397,6.7398,7.1975,7.5861,7.89,7.9361,7.9092,7.8015,7.6015,7.4399,7.3053,7.1321,7.009,6.9244,6.8398,6.8013,6.7936,6.709,6.6744,6.6667,0.0,0.0,0.0,0.0,0.0,0.0,0.0,0.0,0.0,7.8323,7.9862,8.1862,8.3901,8.5501,8.6929,8.8752,9.0007,9.0949,9.1518,9.2299,9.3066,9.3973,9.46,9.5172,9.5788,9.6097,9.6136,9.5859,9.5729,0.0,0.0,0.0,0.0,0.0,0.0,0.0,0.0,0.0,0.0,0.0,0.0,0.0,0.0,0.0,0.0,0.0,9.7027,9.6838,9.6685,9.6685,9.6685,9.6685,9.6685,9.6685,9.6685,9.6685,9.6685,9.6685,9.6685,9.6685,9.6685,9.6685,9.6685,9.6685,9.6685,9.6685,9.6685,9.6685,9.6685,9.6685,9.6685,9.6685,9.6685,0.0,0.0,0.0,0.0,0.0,0.0,0.0,0.0,0.0,0.0,5.1759,5.1905,0.0,0.0,0.0,0.0,0.0,0.0,5.4972,5.4972,5.6126,5.8665,6.0396,6.3281,6.7513,7.1283,7.3783,7.5014,7.6322,7.6746,7.6245,7.5207,7.463,7.4437,7.3014,7.2129,7.1591,7.0052,6.9398,6.9283,6.809,6.7398,6.7051,0.0,0.0,0.0,0.0,0.0,0.0,0.0,0.0,0.0,7.8246,7.9908,8.1952,8.4181,8.6007,8.7768,8.9735,9.0996,9.186,9.2782,9.344,9.4146,9.5016,9.5368,9.5672,9.6211,9.6557,9.6674,9.6439,9.6312,0.0,0.0,0.0,0.0,0.0,0.0,0.0,0.0,0.0,0.0,0.0,0.0,0.0,0.0,0.0,0.0,0.0,9.7248,9.6914,9.6685,9.6685,9.6685,9.6685,9.6685,9.6685,9.6685,9.6685,9.6685,9.6685,9.6685,9.6685,9.6685,9.6685,9.6685,9.6685,9.6685,9.6685,9.6685,9.6685,9.6685,9.6685,9.6685,9.6685,9.6685,0.0,0.0,0.0,0.0,0.0,0.0,0.0,0.0,0.0,5.313,5.3031,5.3292,0.0,0.0,0.0,5.5446,5.4946,5.4934,5.5665,5.578,5.6934,5.9396,6.1396,6.4282,6.8205,6.986,7.0283,6.9475,7.2668,7.4322,7.4476,7.4553,7.513,7.6092,7.5207,7.4822,7.4668,7.2168,7.1129,7.0975,6.9321,6.8129,6.7321,6.7167,0.0,0.0,0.0,0.0,0.0,0.0,0.0,0.0,7.8207,8.0145,8.2463,8.4306,8.6393,8.8489,9.0078,9.1537,9.2879,9.385,9.4845,9.5729,9.6213,9.6365,9.6403,9.6403,9.698,9.7443,9.7322,9.7319,0.0,0.0,0.0,0.0,0.0,0.0,0.0,0.0,0.0,0.0,0.0,0.0,0.0,0.0,0.0,0.0,0.0,9.7321,9.6989,9.6685,9.6685,9.6685,9.6685,9.6685,9.6685,9.6685,9.6685,9.6685,9.6685,9.6685,9.6685,9.6685,9.6685,9.6685,9.6685,9.6685,9.6685,9.6685,9.6685,9.6685,9.6685,9.6685,9.6685,9.6685,0.0,0.0,0.0,0.0,0.0,0.0,0.0,0.0,5.4182,5.4117,5.3503,5.3382,5.4158,5.4342,0.0,5.5516,5.5467,5.5511,5.5703,5.6319,5.755,5.9435,6.3089,6.5782,6.7359,6.8345,6.8433,6.7587,6.9717,7.1437,7.2745,7.3437,7.4938,7.6976,7.6092,7.5707,7.5592,7.3745,7.2937,7.2783,7.1052,6.986,6.8975,6.7628,6.7628,0.0,0.0,0.0,0.0,0.0,0.0,0.0,7.8015,7.9722,8.1771,8.4844,8.7274,8.9481,9.1686,9.2869,9.3704,9.4589,9.5227,9.5776,9.6213,9.6788,9.725,9.725,9.7365,9.7673,9.821,0.0,0.0,0.0,0.0,0.0,0.0,0.0,0.0,0.0,0.0,0.0,0.0,0.0,0.0,0.0,0.0,0.0,9.8375,9.7743,9.7248,9.6914,9.6762,9.6685,9.6685,9.6685,9.6685,0.0,9.6685,9.6685,9.6685,9.6685,9.6685,9.6685,9.6685,9.6685,9.6685,9.6685,9.6685,9.6685,9.6685,9.6685,9.6685,9.6685,9.6685,9.6685,0.0,0.0,0.0,0.0,0.0,0.0,0.0,0.0,5.5028,5.4984,5.4578,5.4441,5.4833,5.494,0.0,0.0,5.5682,5.5703,5.5703,5.6896,5.8742,6.1204,6.4243,6.609,6.6513,6.6922,6.6869,6.6446,6.7291,6.9047,7.1573,7.3226,7.5408,7.7861,7.74,7.7207,7.7053,7.4976,7.386,7.3399,7.2052,7.0783,6.959,6.8706,6.8629,6.9244,7.0937,0.0,0.0,0.0,0.0,0.0,0.0,0.0,8.0898,8.4352,8.6585,8.8561,9.1043,9.2512,9.3716,9.512,9.5653,9.6056,9.675,9.7211,9.775,9.8557,9.875,9.8827,0.0,0.0,0.0,0.0,0.0,0.0,0.0,0.0,0.0,0.0,0.0,0.0,0.0,0.0,0.0,0.0,0.0,9.9405,9.8754,9.815,9.757,9.7101,9.6914,9.6762,9.6685,9.6685,9.6685,9.6685,9.6685,9.6685,9.6685,9.6685,9.6685,9.6685,9.6685,9.6685,9.6685,9.6685,9.6685,9.6685,9.6685,9.6685,9.6685,9.6685,9.6685,9.6685,0.0,0.0,0.0,0.0,0.0,0.0,0.0,0.0,0.0,5.5638,5.5638,5.5615,5.5531,5.5554,5.5638,0.0,0.0,0.0,5.5703,5.7473,5.9819,6.2743,6.4512,6.5436,6.5436,6.5359,6.5306,6.5344,6.5465,6.7228,7.0604,7.3321,7.5994,7.8477,7.8477,7.8477,7.8323,7.5938,7.4437,7.363,7.2937,7.1552,6.9937,7.0052,6.9937,6.9937,7.1783,7.2899,7.3783,7.5438,0.0,0.0,0.0,0.0,8.014,8.34,8.5475,8.7187,8.9676,9.1778,9.3612,9.5284,9.5904,9.6367,9.7289,9.7634,9.8173,9.975,10.0096,0.0,0.0,0.0,0.0,0.0,0.0,0.0,0.0,0.0,0.0,0.0,0.0,0.0,0.0,0.0,0.0,0.0,0.0,9.9666,9.9175,9.8541,9.7918,9.7356,9.7101,9.6914,9.6685,9.6685,9.6685,9.6685,9.6685,9.6685,9.6685,9.6685,9.6685,9.6685,9.6685,9.6685,9.6685,9.6685,9.6685,9.6685,9.6685,9.6685,9.6685,9.6685,9.6685,9.6685,0.0,0.0,0.0,0.0,0.0,0.0,0.0,0.0,0.0,0.0,5.5703,5.5682,5.5682,5.5682,5.5703,5.5703,5.5703,5.5703,5.5703,0.0,0.0,6.1089,6.2743,6.3666,6.3666,6.3487,6.3378,6.3378,6.4627,6.672,6.9574,7.2993,7.5994,7.8477,7.8477,7.8477,7.8361,7.6592,7.5322,7.4553,7.4399,7.2899,7.0821,7.1591,7.0975,7.0014,7.2437,7.3399,7.3783,7.5438,7.6015,0.0,0.0,0.0,8.0087,8.2775,8.5238,8.7428,8.9228,9.2025,9.4518,9.4868,9.556,9.6367,9.7289,9.8096,9.8904,0.0,0.0,0.0,0.0,0.0,0.0,0.0,0.0,0.0,0.0,0.0,0.0,0.0,0.0,0.0,0.0,0.0,0.0,0.0,10.0326,10.0215,9.979,9.89,9.8217,9.7748,9.7248,9.6914,9.6685,9.6685,9.6685,9.6685,9.6685,9.6685,9.6685,9.6685,9.6685,9.6685,9.6685,9.6685,9.6685,9.6685,9.6685,9.6685,9.6685,9.6685,9.6685,9.6685,9.6685,9.6685,0.0,0.0,0.0,0.0,0.0,0.0,0.0,0.0,0.0,0.0,0.0,5.5703,5.5703,5.5703,5.5703,5.5703,5.5703,5.5895,5.6395,5.7473,5.8704,6.0012,6.0781,6.1396,6.1897,6.1748,6.1874,6.2333,6.4344,6.6942,0.0,7.4113,7.6855,7.8515,7.9015,7.8977,7.84,7.7207,7.5938,7.4707,7.4707,7.4053,7.3091,7.3437,7.3129,7.2706,7.4322,7.4591,7.4361,7.5592,7.6015,7.6207,7.7438,0.0,0.0,0.0,8.3048,8.5049,8.8727,9.149,9.3601,9.4561,9.5406,9.6211,9.7133,9.8057,9.8942,9.9826,0.0,0.0,0.0,0.0,0.0,0.0,0.0,0.0,0.0,0.0,0.0,0.0,0.0,0.0,0.0,0.0,0.0,0.0,10.0098,10.0277,10.0126,9.9405,9.8692,9.7949,9.7499,9.7101,9.6685,9.6685,9.6685,9.6685,9.6685,9.6685,9.6685,9.6685,9.6685,9.6685,9.6685,9.6685,9.6685,9.6685,9.6685,9.6685,9.6685,9.6685,9.6685,9.6685,9.6685,9.6685,0.0,0.0,0.0,0.0,0.0,0.0,0.0,0.0,0.0,0.0,0.0,5.5703,5.5703,0.0,0.0,0.0,5.5703,5.5972,5.6626,5.6857,5.755,5.8819,5.9088,5.9511,6.0165,5.9983,6.0329,6.1134,6.3762,6.685,7.0439,7.4887,7.7784,7.9169,7.9823,7.9785,7.9092,7.8054,7.6746,7.5399,7.5822,7.5745,7.5438,7.6092,7.6053,7.5822,7.6899,7.6592,7.5784,7.6669,7.6823,7.6746,7.74,7.7562,0.0,0.0,0.0,8.3355,8.7683,9.0411,9.2334,9.3755,9.4788,9.5818,9.7121,9.7971,9.8779,0.0,0.0,0.0,0.0,0.0,0.0,0.0,0.0,0.0,0.0,0.0,0.0,0.0,0.0,0.0,0.0,0.0,0.0,0.0,9.982,10.0413,10.0277,9.9828,9.9117,9.8245,9.7743,9.7284,9.6762,9.6685,9.6685,9.6685,9.6685,9.6685,9.6685,9.6685,9.6685,9.6685,9.6685,9.6685,9.6685,9.6685,9.6685,9.6685,9.6685,9.6685,9.6685,9.6685,9.6685,9.6685,0.0,0.0,0.0,0.0,0.0,0.0,0.0,0.0,0.0,0.0,0.0,5.5703,5.5703,5.5703,5.5703,5.5703,5.5703,5.5703,5.5742,5.6549,5.7049,5.7126,5.7934,0.0,5.8434,5.8169,5.8489,5.9331,6.2468,6.5817,6.9467,7.4522,7.8371,8.0977,8.1016,8.1016,8.0862,7.9169,7.7938,7.7284,7.89,7.8592,7.7438,7.9862,7.9746,7.8515,8.0246,7.9746,7.8438,7.9323,7.9054,7.8361,7.84,7.8438,7.8438,0.0,0.0,0.0,8.5786,8.864,9.1259,9.2027,9.3322,9.5031,9.7516,0.0,0.0,0.0,0.0,0.0,0.0,0.0,0.0,0.0,0.0,0.0,0.0,0.0,0.0,0.0,0.0,0.0,0.0,0.0,0.0,0.0,9.982,10.0604,10.0604,9.9986,9.9405,9.8792,9.7949,9.7284,9.6989,9.6762,9.6685,9.6685,9.6685,9.6685,9.6685,9.6685,9.6685,9.6685,9.6685,9.6685,9.6685,9.6685,9.6685,9.6685,9.6685,9.6685,9.6685,9.6685,9.6685,9.6685,0.0,0.0,0.0,0.0,0.0,0.0,0.0,0.0,0.0,0.0,0.0,0.0,0.0,5.5703,5.5703,5.5703,5.5703,5.5703,5.5703,5.5972,5.6165,5.6165,5.6472,5.6626,5.6626,5.7052,5.7695,5.8577,6.1781,6.5485,6.9577,7.4144,7.8276,8.1862,8.1862,8.1593,8.1016,7.9823,7.9169,7.8977,7.9554,8.0439,8.1439,8.2362,8.267,8.2708,8.3324,0.0,8.0977,8.1285,8.0477,7.9323,7.9323,7.8938,7.8592,7.9169,8.0592,8.2477,8.4709,8.7228,8.965,9.1406,9.2824,9.4182,9.5665,9.6914,9.802,0.0,0.0,0.0,0.0,0.0,0.0,0.0,0.0,0.0,0.0,0.0,0.0,0.0,0.0,0.0,0.0,0.0,0.0,0.0,0.0,9.9803,10.0385,10.0177,9.9666,9.8854,9.815,9.7499,9.6838,9.6762,9.6685,9.6685,9.6685,9.6685,9.6685,9.6685,9.6685,9.6685,9.6685,9.6685,9.6685,9.6685,9.6685,9.6685,9.6685,9.6685,9.6685,9.6685,9.6685,9.6685,0.0,0.0,0.0,0.0,0.0,0.0,0.0,0.0,5.5818,5.6088,0.0,0.0,0.0,0.0,5.6588,5.6588,5.6319,5.6126,5.6126,5.6126,5.6126,5.6126,5.6434,5.6434,5.6126,5.6614,5.7143,5.7719,6.1019,6.4698,6.8771,7.3599,7.7885,8.1446,8.2054,8.217,8.1862,8.0708,0.0,8.0708,8.1285,8.2708,8.4478,8.5093,8.5824,8.6555,0.0,0.0,0.0,0.0,8.2901,8.14,8.0823,7.9631,7.8669,7.9554,8.0631,8.1939,8.3939,8.6079,8.8268,9.0284,9.1625,9.2806,9.4296,0.0,9.7465,0.0,0.0,0.0,0.0,0.0,0.0,0.0,0.0,0.0,0.0,0.0,0.0,0.0,0.0,0.0,0.0,0.0,0.0,0.0,0.0,0.0,9.9809,9.9708,9.9253,9.8477,9.8017,9.7428,9.6685,9.6685,9.6685,9.6685,9.6685,9.6685,9.6685,9.6685,9.6685,9.6685,9.6685,9.6685,9.6685,9.6685,9.6685,9.6685,9.6685,9.6685,9.6685,9.6685,9.6685,9.6685,0.0,0.0,0.0,0.0,0.0,0.0,5.578,0.0,5.6088,5.6934,0.0,0.0,0.0,0.0,0.0,5.8357,5.755,5.7049,5.7049,5.7049,5.7049,5.7049,5.7857,5.7896,5.7049,5.686,5.6789,5.6865,5.9966,6.3332,6.6902,7.2824,7.7099,7.9736,8.1446,8.2708,8.3439,0.0,8.1593,8.2477,0.0,8.5401,8.6363,8.8094,8.9248,0.0,8.9094,8.8786,0.0,0.0,0.0,8.4709,8.2901,8.0631,7.8784,7.9631,8.1016,8.2516,0.0,0.0,0.0,8.8634,8.9627,9.098,9.3707,0.0,0.0,0.0,0.0,0.0,0.0,0.0,0.0,0.0,0.0,0.0,0.0,0.0,0.0,0.0,0.0,0.0,0.0,0.0,0.0,0.0,9.6253,9.7613,9.8718,9.8561,9.8287,9.7812,9.7465,9.7063,9.6685,9.6685,9.6685,9.6685,9.6685,9.6685,9.6685,9.6685,9.6685,9.6685,9.6685,9.6685,9.6685,9.6685,9.6685,9.6685,9.6685,9.6685,9.6685,9.6685,9.6685,9.6685,0.0,0.0,0.0,0.0,0.0,5.7588,5.7588,5.7588,5.7896,0.0,0.0,0.0,6.0012,6.0127,5.9858,5.9204,5.8934,5.855,5.7973,5.7934,5.7934,5.7934,5.8165,5.8204,5.7934,5.7251,5.7143,5.7747,5.9113,6.185,6.5894,6.998,7.4325,7.8749,7.9889,8.1222,8.2593,8.1554,0.0,0.0,8.4439,8.6132,0.0,0.0,0.0,0.0,0.0,9.1056,0.0,0.0,8.9017,8.7132,0.0,8.2324,8.1285,8.1554,8.1939,8.2631,8.4132,0.0,0.0,0.0,0.0,0.0,0.0,0.0,0.0,0.0,0.0,0.0,0.0,0.0,0.0,0.0,0.0,0.0,0.0,0.0,0.0,0.0,0.0,0.0,0.0,0.0,0.0,0.0,9.518,9.6082,9.7289,9.7667,9.7542,9.6852,9.7169,9.7063,9.6685,9.6685,9.6685,9.6685,9.6685,9.6685,9.6685,9.6685,9.6685,9.6685,9.6685,9.6685,9.6685,9.6685,9.6685,9.6685,9.6685,9.6685,9.6685,9.6685,9.6685,9.6685,0.0,0.0,5.7627,5.7973,5.8473,5.8934,5.9281,5.9358,5.9781,0.0,0.0,0.0,6.2781,6.2935,6.2589,6.1704,6.0973,6.0242,5.9396,5.9011,5.8973,5.9319,5.9358,5.9358,5.9358,5.8357,5.7901,5.7979,5.8949,6.1195,6.4731,6.8526,7.2745,7.7198,7.8903,8.0491,8.1785,8.1285,0.0,0.0,8.4901,0.0,0.0,9.0402,9.1287,0.0,0.0,0.0,9.1672,9.1325,8.9825,0.0,0.0,8.3824,8.2824,8.2824,8.3093,8.3593,8.4632,8.5273,8.5896,8.6909,0.0,0.0,0.0,0.0,0.0,0.0,0.0,0.0,0.0,0.0,0.0,0.0,0.0,0.0,0.0,0.0,0.0,0.0,0.0,0.0,0.0,9.2579,9.2732,9.3516,9.3881,9.4597,9.575,9.6331,9.6481,9.631,9.6581,9.6657,9.6685,9.6685,9.6685,9.6685,9.6685,9.6685,9.6685,9.6685,9.6685,9.6685,9.6685,9.6685,9.6685,9.6685,9.6685,9.6685,9.6685,9.6685,9.6685,9.6685,9.6685,9.6685,0.0,0.0,5.8973,5.9781,6.0089,6.0512,6.1358,6.1589,6.2204,0.0,6.4089,6.4705,6.6167,6.632,6.5897,6.4859,6.3358,6.205,6.1012,6.0281,6.0242,6.0896,6.1012,6.1089,6.1089,5.9958,5.8922,5.805,5.9247,6.1065,6.3679,6.7984,7.1887,7.5383,7.8223,8.0037,8.0977,8.1131,0.0,8.3747,8.544,8.7132,0.0,0.0,9.2364,0.0,9.2556,9.2595,9.2364,9.1595,8.9787,0.0,0.0,0.0,8.4132,8.4055,8.4555,8.517,8.517,8.5427,8.582,8.6268,8.6455,0.0,0.0,0.0,0.0,0.0,0.0,0.0,0.0,0.0,0.0,0.0,0.0,0.0,0.0,0.0,0.0,0.0,0.0,0.0,9.2818,9.2547,9.2409,9.2409,9.2647,9.3277,9.4152,9.4801,9.5309,9.5697,9.5737,9.6067,9.6575,9.6649,9.6685,9.6685,9.6685,9.6685,9.6685,9.6685,9.6685,9.6685,9.6685,9.6685,9.6685,9.6685,9.6685,9.6685,9.6685,9.6685,9.6685,9.6685,9.6685,9.6685,6.0319,6.0858,6.1589,6.2435,6.3705,6.4936,6.5743,6.6474,6.7282,6.8321,6.9013,6.9283,6.8975,6.8975,6.8052,6.582,6.5359,6.4205,6.1973,6.2281,6.2358,6.1858,6.2474,6.282,6.282,6.1198,6.0135,5.9712,5.969,6.0966,6.3426,6.7014,7.0649,7.4399,7.7169,7.9018,8.0131,8.1477,0.0,8.3747,8.544,0.0,8.8902,9.0748,9.1441,9.1633,9.2979,9.3056,9.2479,0.0,9.1441,9.021,0.0,0.0,8.7555,8.6863,8.6786,8.6901,8.6901,8.638,8.5743,8.5584,8.5759,0.0,0.0,0.0,0.0,0.0,0.0,0.0,0.0,0.0,0.0,0.0,0.0,0.0,0.0,0.0,0.0,0.0,0.0,0.0,9.2914,9.2442,9.2162,9.2162,9.2547,9.2758,9.2838,9.3684,9.4027,9.3857,9.5074,9.581,9.5731,9.6392,9.6685,9.6685,9.6685,9.6685,9.6685,9.6685,9.6685,9.6685,9.6685,9.6685,9.6685,9.6685,9.6685,9.6685,9.6685,9.6685,9.6685,9.6685,9.6685,9.6685,6.205,6.2397,6.3089,6.4359,6.5667,6.6936,6.8205,6.9129,6.9975,7.0821,7.2014,7.2822,7.2822,7.2437,7.1514,6.986,6.8513,6.7051,6.5359,6.4859,6.4589,6.4589,6.4589,6.4589,6.4589,6.3168,6.2098,6.1378,6.0993,6.1996,6.4364,6.7007,7.0458,7.4524,7.7447,7.9335,8.0453,0.0,8.3439,8.4401,8.6055,0.0,8.894,9.1056,9.1864,9.2018,9.3249,9.3441,9.3018,9.2633,9.1902,0.0,0.0,8.9017,8.8594,0.0,8.8055,8.8055,8.8055,8.7264,8.6355,8.6123,0.0,0.0,0.0,0.0,0.0,0.0,0.0,0.0,9.4789,0.0,0.0,0.0,0.0,0.0,0.0,0.0,0.0,0.0,0.0,0.0,9.3441,9.27,9.2162,9.1948,9.2162,9.2233,9.2091,9.2568,9.2973,9.3198,9.4007,9.4778,9.5511,9.5914,9.6318,9.6685,9.6685,9.6685,9.6685,9.6685,9.6685,9.6685,9.6685,9.6685,9.6685,9.6685,9.6685,9.6685,9.6685,9.6685,9.6685,9.6685,9.6685,9.6685,6.3551,6.3705,6.4359,6.609,6.7205,6.8436,7.0167,7.1245,7.2206,7.3053,7.4514,7.563,7.6207,7.563,7.4861,7.4053,7.1937,7.0244,6.9206,6.7705,6.709,6.759,6.6821,6.6474,6.6628,6.5252,6.4067,6.3099,6.2476,6.3274,6.5399,6.7409,7.0599,7.471,7.7911,7.9953,8.1042,0.0,0.0,8.5286,0.0,8.8171,8.9171,9.1595,9.2479,9.2595,9.3403,9.3903,9.4057,9.3056,0.0,9.1518,9.0671,8.9825,0.0,0.0,0.0,8.894,8.894,8.8147,8.7274,8.689,0.0,8.5204,0.0,0.0,0.0,0.0,0.0,0.0,0.0,0.0,0.0,0.0,0.0,0.0,0.0,0.0,0.0,0.0,0.0,0.0,0.0,9.2779,9.2162,9.1803,9.1803,9.1803,9.1803,9.1803,9.2134,9.2831,9.3015,9.3712,9.5034,9.5217,9.5658,9.6465,9.6465,9.6539,9.6685,9.6685,9.6685,9.6685,9.6685,9.6685,9.6685,9.6685,9.6685,9.6685,9.6685,9.6685,9.6685,9.6685,9.6685,9.6685,6.4436,6.5051,6.6128,6.7821,6.9436,7.1052,7.2822,7.4399,7.5745,7.6592,7.7515,7.7823,7.7207,7.7053,7.6669,7.5784,7.4745,0.0,7.186,0.0,7.0052,6.9436,6.859,6.8475,6.9244,6.6765,6.5303,6.5016,6.3719,6.3954,6.552,6.7878,7.0696,7.3873,7.7532,7.9774,0.0,0.0,8.5209,0.0,8.7863,8.9056,0.0,9.1787,9.2479,9.2595,9.3403,9.4672,9.5749,0.0,9.348,9.3249,0.0,9.1595,9.0902,9.0902,0.0,0.0,0.0,8.903,0.0,0.0,8.6361,0.0,0.0,0.0,0.0,8.6958,0.0,0.0,0.0,0.0,0.0,0.0,0.0,0.0,0.0,0.0,0.0,0.0,0.0,0.0,0.0,9.2128,9.1876,9.1803,9.1803,9.1803,9.1803,9.1803,9.184,9.195,9.2721,9.3198,9.3382,9.4079,9.485,9.5658,9.5658,9.6025,9.6685,9.6685,9.6685,9.6685,9.6685,9.6685,9.6685,9.6685,9.6685,9.6685,9.6685,9.6685,9.6685,9.6685,9.6685,9.6685,6.4512,6.5282,6.6436,6.8129,6.9398,7.0937,7.3168,7.4938,7.6476,7.7823,7.8746,7.9515,8.0131,8.0631,8.0823,8.0439,0.0,0.0,0.0,0.0,7.4745,7.3399,7.2514,7.1783,7.1168,6.9452,6.7944,6.6663,6.5876,6.5871,6.6737,6.8803,7.1275,7.4029,7.8024,0.0,8.2403,0.0,0.0,0.0,0.0,0.0,0.0,9.221,9.3095,9.4057,9.4903,9.5672,9.6095,0.0,9.4441,0.0,0.0,0.0,0.0,9.1364,0.0,9.0671,9.0671,8.995,0.0,0.0,0.0,0.0,8.5075,0.0,8.5013,0.0,0.0,0.0,0.0,0.0,0.0,0.0,9.1181,0.0,0.0,0.0,0.0,0.0,0.0,0.0,0.0,0.0,0.0,0.0,9.1803,9.1803,9.1803,9.1803,9.1803,9.1803,9.2134,9.2574,9.3088,9.3418,9.4006,9.4813,9.529,9.5694,9.6025,9.6502,9.6685,9.6685,9.6685,9.6685,9.6685,9.6685,9.6685,9.6685,9.6685,9.6685,9.6685,9.6685,9.6392,9.6061,6.4474,6.5282,6.6359,6.7782,6.8975,7.0706,7.3745,7.563,7.7207,7.8669,7.9823,0.0,8.217,8.3285,0.0,0.0,0.0,8.2747,0.0,0.0,7.8784,7.7092,7.6015,0.0,7.3283,7.2054,7.057,6.882,6.8109,6.7984,6.8459,7.0188,7.2274,7.4673,7.878,8.1691,8.3713,0.0,0.0,8.9479,9.071,9.2018,9.3172,9.3172,9.4095,9.5441,9.6057,9.6288,9.6211,9.5557,9.5211,0.0,9.3557,0.0,9.271,0.0,9.1902,9.1902,9.1902,0.0,0.0,0.0,0.0,0.0,0.0,0.0,0.0,0.0,0.0,0.0,0.0,0.0,8.979,8.9563,0.0,8.961,0.0,0.0,0.0,0.0,0.0,0.0,0.0,0.0,0.0,0.0,0.0,9.1803,9.1803,9.1803,9.1803,9.1803,9.1803,9.2097,9.2758,9.2758,9.3161,9.3969,9.4556,9.507,9.5547,9.6098,9.6502,9.6685,9.6685,9.6685,9.6722,9.6942,9.7016,9.7016,9.7016,9.7016,9.7016,9.6795,9.6208,9.5584,6.4589,6.5282,6.6167,6.7013,6.8552,7.1129,7.5284,7.7323,7.8746,7.9631,0.0,0.0,0.0,0.0,0.0,0.0,0.0,8.5632,8.4786,0.0,8.1439,0.0,0.0,0.0,0.0,7.4149,7.2724,7.1657,7.034,7.0001,7.0535,7.2049,7.37,7.5705,7.9609,8.2453,8.4479,8.653,8.8825,9.1133,9.1171,9.2672,9.4903,0.0,9.548,9.6249,9.6288,0.0,0.0,9.6288,9.5711,0.0,0.0,0.0,0.0,0.0,0.0,0.0,0.0,0.0,0.0,9.0914,0.0,0.0,0.0,0.0,8.5314,0.0,0.0,0.0,0.0,8.9363,8.9633,8.8863,8.9402,0.0,0.0,0.0,0.0,0.0,0.0,0.0,0.0,0.0,0.0,0.0,0.0,0.0,9.1803,9.1803,9.1803,9.1803,9.1803,9.1803,9.184,9.184,9.2281,9.3125,9.3161,9.4006,9.5511,9.5547,9.5951,9.6685,9.6685,9.6685,9.6759,9.753,9.786,9.786,9.786,9.786,9.775,9.6979,9.6208,9.5511,6.6244,6.6974,6.7628,6.7898,6.8436,7.0283,7.4476,7.7053,0.0,0.0,0.0,0.0,0.0,0.0,8.8325,0.0,0.0,8.8902,8.7517,8.6863,0.0,0.0,0.0,8.0554,0.0,0.0,7.5909,7.4331,7.3571,7.3106,7.2928,7.3916,7.5041,7.6262,7.9658,8.2596,0.0,0.0,0.0,0.0,0.0,9.4595,9.5865,0.0,0.0,9.7096,9.7096,9.7096,0.0,9.7096,9.6557,9.5749,9.5172,9.4788,9.4441,9.3864,9.371,0.0,0.0,0.0,9.2177,9.1145,0.0,0.0,0.0,0.0,0.0,0.0,0.0,0.0,0.0,8.971,8.9633,8.8825,8.844,8.7872,0.0,0.0,0.0,0.0,0.0,0.0,0.0,0.0,0.0,0.0,0.0,0.0,0.0,9.1803,9.1803,9.1803,9.1803,9.1803,9.1803,9.1803,9.195,9.2244,9.2831,9.3382,9.3932,9.4446,9.5144,9.5914,9.5914,9.6208,9.6722,9.6979,9.7126,9.7126,9.7126,9.7126,9.7052,9.6795,9.5841,9.4703,6.8513,6.8898,6.909,6.8513,6.9398,7.1552,7.5438,0.0,0.0,0.0,8.4132,0.0,8.6478,0.0,8.9902,0.0,9.071,9.0594,8.921,8.9133,0.0,8.5901,8.5247,0.0,0.0,0.0,7.9198,7.704,7.669,7.6078,7.5261,7.5897,7.6477,7.7078,8.0091,8.2927,8.5626,0.0,9.1024,0.0,0.0,9.5788,0.0,0.0,9.7057,9.7557,0.0,9.7942,9.7942,9.7942,9.7403,9.6634,9.6057,9.5672,9.5365,9.4788,9.4634,9.4634,9.4634,9.4018,0.0,9.2524,9.0837,0.0,8.919,0.0,0.0,0.0,0.0,0.0,0.0,9.0825,9.0364,8.894,8.8209,8.7372,0.0,8.5433,0.0,0.0,0.0,0.0,0.0,0.0,0.0,0.0,0.0,0.0,0.0,0.0,9.1803,9.1803,9.1803,9.1803,9.1803,9.1803,9.1803,9.1803,9.2354,9.2794,9.3125,9.3639,9.4483,9.5511,9.5511,9.5951,9.6722,9.7016,9.7126,9.7126,9.7126,9.7126,9.7089,9.6795,9.5878,9.474,7.1206,7.1052,7.0629,6.9167,7.1514,7.4745,0.0,0.0,8.2131,0.0,8.5747,8.6632,8.7478,8.9017,8.9979,9.0017,9.0748,0.0,9.0017,8.9979,0.0,0.0,8.7517,8.6363,8.3824,0.0,0.0,0.0,7.9539,7.8675,7.7434,7.7878,7.8022,7.8113,8.0961,8.3416,8.5508,8.8576,9.1408,9.398,9.5634,9.6288,9.6403,9.725,9.7557,9.7673,9.8557,9.8865,9.8865,9.8865,9.825,9.7519,9.7519,9.6942,9.6288,9.6288,9.6326,9.6365,9.6365,9.5749,9.5095,9.4983,0.0,0.0,0.0,0.0,8.9184,0.0,0.0,0.0,0.0,0.0,9.1633,8.9094,8.8632,8.791,8.6082,0.0,0.0,0.0,0.0,0.0,0.0,0.0,0.0,0.0,0.0,0.0,0.0,0.0,9.1803,9.1803,9.1803,9.1803,9.1803,9.1803,9.1803,9.1803,9.184,9.2281,9.3088,9.3125,9.4042,9.5511,9.5511,9.5951,9.6759,9.753,9.7823,9.7823,9.7823,9.7823,9.775,9.6942,9.6171,9.5547,7.3129,7.3322,7.4207,7.563,7.5592,7.6284,0.0,0.0,0.0,0.0,8.7632,8.9248,9.0133,9.0633,9.1133,9.1787,9.1441,0.0,0.0,0.0,0.0,8.9325,8.9248,8.8363,8.6478,8.5786,0.0,8.2501,8.1643,8.0545,7.9229,7.9018,7.8935,7.9037,8.0989,8.3157,8.5546,8.8997,9.245,9.5672,9.6134,9.6288,0.0,0.0,9.8481,9.8596,9.9442,9.975,9.975,9.975,9.875,9.7519,9.7519,9.6942,9.6288,9.6288,9.6711,9.7211,9.7211,9.7019,9.6865,9.6827,9.5366,9.3982,0.0,0.0,0.0,0.0,0.0,0.0,0.0,0.0,0.0,8.9017,8.7598,8.653,0.0,0.0,0.0,0.0,0.0,0.0,0.0,0.0,0.0,0.0,0.0,0.0,0.0,0.0,0.0,9.1803,9.1803,9.1803,9.1803,9.1803,9.1803,9.1803,9.2464,9.2868,9.3125,9.3712,9.4556,9.5511,9.5511,9.5951,9.6722,9.6906,9.7016,9.7016,9.7016,9.7016,9.6906,9.6098,9.6061,9.6318,7.6015,7.6361,7.763,7.9785,7.9708,0.0,8.1747,0.0,0.0,8.7478,8.9017,0.0,9.1633,9.1441,9.1556,9.2402,9.171,0.0,0.0,0.0,0.0,9.0479,9.0479,8.9863,8.8517,8.7671,0.0,8.4643,0.0,8.1955,8.0654,8.0233,8.0046,8.0104,8.1774,8.3771,8.6156,9.0263,9.3678,9.6288,9.6288,0.0,0.0,9.8173,9.8788,9.8942,10.0212,10.0596,10.0596,10.0212,9.9442,9.8557,9.8173,9.775,9.7403,9.7403,9.7711,9.8057,9.8057,9.8057,9.8057,9.8057,9.7057,9.598,9.5634,9.4903,9.4249,0.0,9.4249,0.0,0.0,0.0,0.0,0.0,0.0,0.0,0.0,0.0,0.0,0.0,0.0,0.0,0.0,0.0,0.0,0.0,0.0,0.0,0.0,0.0,0.0,9.1803,9.1803,9.1803,9.1803,9.1803,9.1803,9.1803,9.2684,9.3088,9.3125,9.3932,9.474,9.5511,9.5511,9.5951,9.6685,9.6685,9.6685,9.6685,9.6685,9.6685,9.6649,9.6208,9.6318,9.6649,7.9323,7.9592,8.0708,8.2477,0.0,0.0,0.0,8.6055,0.0,8.9594,0.0,9.071,9.2326,9.171,9.1556,0.0,0.0,9.121,9.121,9.121,9.121,9.121,9.121,9.0864,9.0094,8.9286,0.0,0.0,0.0,8.3016,8.1881,8.1413,8.1198,8.1166,8.2854,8.4942,8.7419,9.1835,9.4711,9.6288,9.6288,9.6288,9.648,9.8173,9.8788,9.9019,10.0712,10.1212,10.1019,10.0289,9.9942,9.9635,9.8981,9.8711,9.8634,9.875,9.8865,9.8981,9.8981,9.8981,9.8981,9.9096,9.8404,9.7519,9.6942,9.6134,9.548,9.5326,9.5326,9.5018,0.0,0.0,0.0,0.0,0.0,0.0,0.0,0.0,0.0,0.0,0.0,0.0,0.0,0.0,0.0,0.0,0.0,0.0,0.0,0.0,0.0,9.1767,9.1803,9.1803,9.1803,0.0,9.1803,9.1803,9.2684,9.3161,9.3272,9.4079,9.4887,9.5658,9.5658,9.6061,9.6685,9.6685,9.6685,9.6685,9.6685,9.6685,9.6685,9.6685,9.6685,9.6685,8.1823,8.1747,8.2631,0.0,0.0,8.644,8.8671,8.8594,8.8632,8.9748,9.0517,0.0,9.2402,9.171,9.1556,9.2402,9.171,0.0,0.0,0.0,0.0,9.121,9.121,9.1133,9.0979,9.0133,8.8863,0.0,0.0,8.3934,8.2835,8.1839,8.1672,8.2266,8.3164,8.598,9.0145,9.264,0.0,9.6288,9.6288,9.6288,9.648,9.8173,9.8788,9.9019,10.0712,10.0904,10.0289,10.0096,9.9135,9.8057,9.8634,9.8288,9.7865,9.8596,9.9288,9.9865,9.9865,9.9865,9.9981,10.0712,9.9712,9.8711,9.9288,9.875,9.7942,9.7211,9.7057,9.6596,9.5057,0.0,0.0,0.0,0.0,0.0,0.0,0.0,0.0,0.0,0.0,0.0,0.0,0.0,0.0,0.0,0.0,0.0,0.0,0.0,0.0,0.0,9.1803,0.0,0.0,0.0,9.1803,9.1803,9.2684,9.3455,9.4116,9.4923,9.5731,9.6502,9.6502,9.6575,9.6685,9.6685,9.6685,9.6685,9.6685,9.6685,9.6685,9.6685,9.6685,9.6685,0.0,0.0,0.0,0.0,0.0,0.0,0.0,8.9979,0.0,9.0517,9.1325,9.2172,9.3018,9.2364,9.221,9.3056,9.1941,9.121,9.121,9.121,9.121,9.121,9.121,0.0,9.121,9.0364,8.9286,8.8055,0.0,8.4921,8.3937,8.3295,8.318,8.3559,8.5276,8.7846,9.0992,0.0,0.0,9.6288,9.6288,9.6288,9.6442,9.7673,9.8134,9.8288,9.9558,9.9442,9.8827,9.925,9.8865,9.8173,9.8134,9.8134,9.8365,9.9211,9.975,10.0096,10.0096,10.0096,10.0096,9.9981,9.975,9.9481,9.9442,9.9442,9.9211,9.8365,9.8173,9.7519,9.5365,9.3287,0.0,0.0,0.0,0.0,0.0,0.0,0.0,0.0,0.0,0.0,0.0,0.0,0.0,0.0,0.0,0.0,0.0,0.0,0.0,0.0,0.0,0.0,0.0,0.0,0.0,9.1803,9.2684,9.3308,9.3712,9.452,9.5327,9.6098,9.6098,9.6318,9.6685,9.6685,9.6685,9.6685,9.6685,9.6685,9.6685,9.6685,9.6685,9.6685,0.0,8.7704,0.0,0.0,8.9479,0.0,0.0,9.0941,9.1402,9.121,9.1979,9.2749,9.3364,9.3018,9.2941,9.3403,9.2249,9.1479,9.1479,9.1479,9.1556,9.171,9.1748,9.1748,9.1748,9.0902,9.0056,0.0,0.0,0.0,8.5228,8.4775,8.4706,8.5092,8.7733,8.9764,0.0,0.0,9.4864,9.6288,9.6288,9.6288,9.6403,9.7211,9.7519,9.7596,9.8481,9.825,9.7596,9.8288,9.8404,9.8173,9.7673,9.798,9.8673,9.9558,9.9827,9.9827,9.9827,9.9673,9.9442,9.8942,9.9173,9.9442,9.9135,9.9596,9.9904,9.9211,9.8942,9.8057,9.5711,9.421,0.0,0.0,0.0,0.0,0.0,0.0,0.0,0.0,0.0,0.0,0.0,0.0,0.0,0.0,0.0,0.0,0.0,0.0,0.0,0.0,0.0,9.1803,9.1803,0.0,9.1803,9.1803,9.2501,9.2941,9.3125,9.3749,9.4593,9.5511,9.5511,9.5951,9.6685,9.6685,9.6685,9.6685,9.6685,9.6685,9.6685,9.6685,9.6685,9.6685,0.0,0.0,0.0,0.0,0.0,0.0,0.0,9.1825,9.2095,9.1287,9.1979,9.2518,9.2595,9.321,9.3326,9.2672,9.2479,9.2364,9.2364,9.2364,9.271,9.3441,9.348,9.348,9.348,9.2672,9.1825,0.0,0.0,8.7175,8.6918,8.542,8.5465,8.6966,8.9609,0.0,0.0,9.4097,9.5441,9.6288,9.6288,9.6288,9.6403,9.7211,9.7519,9.7596,9.8481,9.825,9.7519,9.7596,9.7134,9.6634,9.7288,9.7557,9.7788,9.8673,9.8904,9.8904,9.8904,9.8365,9.7904,9.8634,9.825,9.8134,9.9635,9.9981,10.0096,9.9981,9.9327,9.825,9.6519,9.6057,9.5441,0.0,0.0,0.0,0.0,0.0,9.5521,9.452,0.0,0.0,0.0,0.0,0.0,0.0,8.4284,0.0,0.0,0.0,0.0,9.0702,0.0,9.1803,9.1803,9.1803,9.1803,9.1803,9.1877,9.2354,9.3088,9.3198,9.4042,9.5511,9.5511,9.5951,9.6685,9.6685,9.6685,9.6685,9.6685,9.6685,9.6685,9.6685,9.6685,9.6685,0.0,0.0,0.0,0.0,0.0,0.0,0.0,9.2287,9.2556,9.2672,9.3441,9.398,9.398,9.4287,9.4326,9.4018,9.3518,9.321,9.321,9.321,9.3364,9.3672,9.371,9.371,9.371,9.3364,9.2556,0.0,0.0,0.0,8.8064,8.7445,8.7718,8.8874,9.0409,9.1869,9.3251,9.448,9.548,9.6288,9.6288,9.6288,9.6326,9.6673,9.6788,9.6826,9.7173,9.7096,9.6788,9.6788,9.6557,9.6365,9.6673,9.6788,9.6942,9.7788,9.8019,9.8019,9.8019,9.7788,9.748,9.7326,9.7403,9.7673,9.8365,9.9327,10.0096,10.0096,9.9827,9.9211,9.8019,9.7365,9.6634,0.0,0.0,0.0,0.0,0.0,0.0,9.4216,0.0,9.2389,0.0,0.0,0.0,0.0,0.0,0.0,0.0,0.0,0.0,9.0592,0.0,9.1803,9.1803,9.1803,9.1803,9.1803,9.1803,9.1987,9.2317,9.2317,9.3235,9.4813,9.529,9.5951,9.6685,9.6685,9.6685,9.6685,9.6685,9.6685,9.6685,9.6685,9.6685,9.6685,9.3836,0.0,9.3518,0.0,9.2864,9.2864,9.2864,9.3056,9.3441,9.4018,9.4826,9.5288,9.5018,9.5211,9.5288,9.5018,9.4441,9.4057,9.4057,9.4057,9.421,9.4441,9.4441,0.0,9.4441,9.421,9.348,9.2326,9.1825,0.0,0.0,8.9825,9.0133,0.0,9.1825,9.2979,9.4134,9.5018,9.5749,9.6288,9.6288,9.6288,9.6288,9.6288,9.6288,9.6326,9.6557,9.6519,9.6326,9.6557,9.6519,9.6288,9.6288,9.6288,9.6403,9.698,9.7134,9.7134,9.7134,9.7134,9.7019,9.6442,9.6749,9.7211,9.7442,9.8442,9.9481,9.9981,10.0096,9.9904,9.9288,9.8481,9.7596,9.6788,0.0,0.0,0.0,9.6288,0.0,9.4214,9.41,9.3021,9.0078,0.0,0.0,0.0,0.0,0.0,0.0,0.0,0.0,0.0,0.0,0.0,0.0,9.1803,9.1803,9.1803,9.1803,9.1803,9.1803,9.206,9.2831,9.3969,9.4813,9.5621,9.6355,9.6355,9.6502,9.6685,9.6428,9.6355,9.6318,9.6098,9.5988,9.6025,9.4103,9.388,9.371,9.3672,9.3672,9.3672,9.3672,9.4403,9.498,9.498,9.5749,9.5942,9.5095,9.5788,9.5942,9.5057,9.498,9.498,9.498,9.498,9.5365,0.0,0.0,9.6288,9.6288,9.5403,9.498,9.4941,0.0,0.0,9.2441,9.2441,9.2441,9.2556,9.421,9.4941,9.5018,9.5903,9.6288,9.6288,9.6288,9.6288,9.6288,9.6288,9.6288,9.6403,9.7211,9.698,9.6442,9.7211,9.698,9.6288,9.6288,9.6288,9.6288,9.6326,9.6326,9.6326,9.6326,9.6326,9.6326,9.6288,9.6326,9.6519,9.7326,9.7519,9.8019,9.975,10.0096,10.0096,10.0096,9.9365,9.8481,9.7634,0.0,0.0,0.0,9.6288,0.0,9.5095,9.5636,9.4943,9.2049,0.0,0.0,0.0,0.0,0.0,0.0,0.0,0.0,8.9417,9.0959,0.0,9.1803,9.1803,9.1803,9.1803,9.1803,9.1803,9.184,9.2684,9.3088,9.3161,9.3969,9.4777,9.5511,9.5511,9.5988,9.6612,9.5841,9.5511,9.5437,9.463,9.4336,9.4446,9.5842,9.5654,9.5288,9.4672,9.4595,9.4595,9.4595,9.4826,9.5211,9.5826,9.6134,9.6211,9.5903,9.6134,9.6172,0.0,9.5903,9.5903,0.0,9.5903,9.6019,9.6288,9.6288,9.6288,9.6288,9.6019,9.5595,9.498,0.0,0.0,0.0,9.3326,9.3633,9.421,9.4749,9.5326,9.5903,9.6172,9.6288,9.6288,9.6288,9.6634,9.7134,9.7134,9.748,9.8057,9.8288,9.8211,9.7942,9.7596,9.7326,9.7019,9.648,9.6288,9.6288,9.6288,9.6288,9.6288,9.6288,9.6288,9.6288,9.6288,9.6288,9.6365,9.6634,9.7096,9.7827,9.8981,9.9673,9.9904,9.9327,9.8981,9.8519,9.7634,9.6826,0.0,9.6288,0.0,9.5749,9.4287,9.4289,9.3793,0.0,9.1521,0.0,0.0,0.0,0.0,0.0,0.0,0.0,0.0,9.1253,0.0,9.1803,9.1803,9.1803,9.1803,9.1803,9.1803,9.1803,9.2097,9.2537,9.3125,9.3382,9.3932,9.4666,9.4666,9.4813,9.5034,9.4777,9.4666,9.4666,9.4373,9.463,9.5144,9.6676,9.6463,9.6134,9.5557,9.548,9.548,9.548,9.548,9.5672,9.6249,9.6288,9.6288,9.6288,9.6288,0.0,9.6288,9.6288,9.6288,9.6288,9.6288,9.6288,9.6288,9.6288,9.6288,9.6288,9.6288,0.0,9.548,9.548,9.5211,9.4672,9.4672,9.498,9.548,9.548,9.5788,9.6288,9.6288,9.6288,9.6288,9.6288,9.6788,9.7519,9.7519,9.8057,9.8827,9.9173,9.9058,9.8711,9.8173,9.7788,9.7403,9.6903,9.6749,9.6711,9.6403,9.6288,9.6288,9.6288,9.6288,9.6288,9.6288,9.6288,9.6288,9.6288,9.6673,9.7288,9.8134,9.875,9.9173,9.925,9.875,9.825,9.8019,9.7057,9.6288,9.6288,9.6288,9.5788,9.4364,0.0,0.0,0.0,9.2564,9.1974,0.0,0.0,0.0,0.0,0.0,0.0,9.0592,9.1363,0.0,9.1803,9.1803,9.1803,9.1803,9.1803,9.1803,9.1803,9.1803,9.2097,9.2611,9.2611,9.3088,9.3859,9.3859,9.4042,9.4263,9.3969,9.3859,9.3859,9.3859,9.4189,9.4703,9.6735,9.6459,0.0,0.0,9.6288,0.0,9.6288,9.6288,9.6288,9.6288,9.6288,9.6288,9.6288,9.6288,9.6288,9.6288,0.0,0.0,0.0,9.6288,9.6288,9.6288,9.6288,9.6288,9.6288,9.6288,9.6288,9.6288,9.6288,9.6288,9.6288,9.6288,9.6288,9.6288,9.6288,9.6288,9.6288,9.6288,9.6288,9.6288,9.6288,9.6826,9.7596,9.7596,9.8173,9.9058,9.9865,9.9673,9.8981,9.8904,9.8365,9.7673,9.7596,9.7596,9.7442,9.6634,9.6365,9.6365,9.6326,9.6288,9.6288,9.6288,9.6288,9.6288,9.6288,9.6288,9.6519,9.725,9.7442,9.8019,9.9596,9.8596,9.7788,9.8596,9.7365,9.6288,9.6288,9.6288,9.598,9.5095,0.0,0.0,0.0,9.4255,9.3715,0.0,0.0,0.0,0.0,0.0,9.0702,9.0702,9.14,9.1803,9.1803,9.1803,9.1803,9.1803,9.1803,9.1803,9.1803,9.1803,9.1803,9.1803,9.1803,9.2244,9.3015,9.3015,9.3455,9.4042,9.3308,9.3051,9.3088,9.3088,9.3161,9.3492,0.0,0.0,9.6361,9.6288,9.6288,9.6288,9.6288,9.6288,9.6288,9.6288,9.6288,9.6288,9.6288,9.6288,9.6288,9.6288,9.6288,9.6288,9.6288,9.6288,9.6288,9.6288,9.6288,9.6288,9.6288,9.6288,9.6288,9.6288,9.6288,9.6288,9.6288,9.6288,9.6288,9.6288,9.6288,9.6288,9.6288,9.6288,9.6288,9.6288,9.6288,9.7173,9.8481,9.8481,9.9404,10.0712,10.0904,10.0904,10.0596,9.9981,9.9635,9.9365,9.8711,9.8481,9.8327,9.748,9.7211,9.7096,9.648,9.6288,9.6288,9.6288,9.6288,9.6288,9.6288,9.6288,9.6365,9.6557,9.7057,9.7634,9.8057,9.7788,9.7557,9.7788,9.698,9.6288,9.6288,9.6288,9.598,9.5095,9.5172,9.5174,9.4753,9.4343,9.4164,0.0,0.0,0.0,0.0,9.1797,9.151,9.151,9.1693,9.1803,9.1803,9.1803,9.1803,9.1803,9.1803,9.1803,9.1803,9.1803,9.1803,9.1803,9.1803,9.1913,9.2097,9.2097,9.2207,9.2354,9.217,9.2501,9.3088,9.3088,9.3896,9.4997,9.6809,9.6583,9.6429,9.6361,9.6325,9.6288,9.6288,9.6288,9.6288,9.6288,9.6288,9.6288,9.6288,9.6288,9.6288,9.6288,9.6288,9.6288,9.6288,9.6288,9.6288,9.6288,9.6288,9.6288,9.6288,9.6288,9.6288,9.6288,9.6288,9.6288,9.6288,9.6288,9.6288,9.6288,9.6288,9.6288,9.6288,9.6288,9.6288,9.6288,9.6288,9.7057,9.825,9.8634,9.9596,10.0789,10.1212,10.1289,10.1212,10.0404,10.0096,9.9981,9.9519,9.9365,9.9211,9.8365,9.7827,9.7326,9.6519,9.6288,9.6288,9.6288,9.6288,9.6288,9.6288,9.6288,9.6288,9.6288,9.6634,9.7057,9.7442,9.7211,9.7057,9.7442,9.6826,9.6288,9.6288,9.6288,9.6134,9.5634,9.5595,9.5558,9.5406,9.5045,9.4799,9.4731,9.3914,0.0,9.2751,9.2233,9.1876,9.1803,9.1803,9.1803,9.1803,9.1803,9.1803,9.1803,9.1803,9.1803,9.1803,9.1803,9.1803,9.1803,9.1803,9.1803,9.1803,9.1803,9.1803,9.1803,9.1803,9.2317,9.3125,9.3529,9.4446,9.5547,9.694,9.6706,9.6492,9.6429,9.6361,9.6288,9.6288,9.6288,9.6288,9.6288,9.6288,9.6288,9.6288,9.6288,9.6288,9.6288,9.6288,9.6288,9.6288,9.6288,9.6288,9.6288,9.6288,9.6288,9.6288,9.6288,9.6288,9.6288,9.6288,9.6288,9.6288,9.6288,9.6288,9.6288,9.6288,9.6288,9.6288,9.6288,9.6288,9.6288,9.6288,9.6788,9.7596,9.8481,9.9327,10.0212,10.1019,10.1289,10.1212,10.0481,10.0289,10.0289,10.0289,10.0289,10.0096,9.9096,9.8288,9.748,9.6557,9.6288,9.6288,9.6288,9.6288,9.6288,9.6288,9.6288,9.6288,9.6288,9.6288,9.6519,9.7211,9.6749,9.6519,9.7211,9.6749,9.6288,9.6288,9.6288,9.6288,9.6288,9.6288,9.6289,9.6328,9.5936,9.5516,9.5022,9.4273,9.3536,9.2885,9.2373,9.202,9.1876,9.1803,9.1803,9.1803,9.1803,9.1803,9.1803,9.1803,9.1803,9.1803,9.1803,9.1803,9.1803,9.1803,9.1803,9.1803,9.1803,9.1803,9.1803,9.195,9.2501,9.3382,9.4189,9.4997,9.5804,9.7037,9.6782,9.6583,9.6429,9.6361,9.6288,9.6288,9.6288,9.6288,9.6288,9.6288,9.6288,9.6288,9.6288,9.6288,9.6288,9.6288,9.6288,9.6288,9.6288,9.6288,9.6288,9.6288,9.6288,9.6288,9.6288,9.6288,9.6288,9.6288,9.6288,9.6288,9.6288,9.6288,9.6288,9.6288,9.6288,9.6288,9.6288,9.6288,9.6288,9.6288,9.6788,9.7596,9.8481,9.9327,10.0212,10.1019,10.1289,10.1289,10.1212,10.1096,10.1096,10.1096,10.1096,10.0789,9.925,9.8711,9.825,9.6711,9.6288,9.6288,9.6288,9.6288,9.6288,9.6288,9.6288,9.6288,9.6288,9.6288,9.6326,9.648,9.6365,9.6326,9.648,9.6365,9.6288,9.6288,9.6288,9.6288,9.6288,9.6288,9.6557,9.7212,9.6284,9.5872,9.6286,9.4924,9.3814,9.3301,9.2714,9.2233,9.2091,9.1876,9.1803,9.1803,9.1803,9.1803,9.1803,9.1803,9.1803,9.1803,9.1803,9.1803,9.1803,9.1803,9.1803,9.1803,9.1803,9.1803,9.1877,9.2611,9.3382,9.4189,9.5034,9.5841,9.6539,9.7207,9.694,9.6706,9.6558,9.6394,9.6288,9.6288,9.6288,9.6288,9.6288,9.6288,9.6288,9.6288,9.6288,9.6288,9.6288,9.6288,9.6288,9.6288,9.6288,9.6288,9.6288,9.6288,9.6288,9.6288,9.6288,9.6288,9.6288,9.6288,9.6288,9.6288,9.6288,9.6288,9.6288,9.6288,9.6288,9.6288,9.6288,9.6288,9.6288,9.6288,9.6519,9.6942,9.7788,9.8365,9.8827,9.9635,10.0289,10.0712,10.0712,10.0904,10.1289,10.1289,10.1289,10.1019,9.9288,9.8173,9.7288,9.6519,9.6288,9.6288,9.6288,9.6288,9.6288,9.6288,9.6288,9.6288,9.6288,9.6288,9.6288,9.6288,9.6288,9.6288,9.6288,9.6288,9.6288,9.6288,9.6288,9.6288,9.6288,9.6288,9.6442,9.6826,9.625,9.5929,9.6012,9.506,9.4235,9.3536,9.2942,9.251,9.2091,9.1876,9.1803,9.1803,9.1803,9.1803,9.1803,9.1803,9.1803,9.1803,9.1803,9.1803,9.1803,9.1803,9.1803,9.1803,9.1803,9.206,9.2537,9.2941,9.3859,9.4997,9.5364,9.6025,9.6685,9.7621,9.7199,9.6793,9.6615,9.6429,9.6288,9.6288,9.6288,9.6288,9.6288,9.6288,9.6288,9.6288,9.6288,9.6288,9.6288,9.6288,9.6288,9.6288,9.6288,9.6288,9.6288,9.6288,9.6288,9.6288,9.6288,9.6288,9.6288,9.6288,9.6288,9.6288,9.6288,9.6288,9.6288,9.6288,9.6288,9.6288,9.6288,9.6288,9.6288,9.6288,9.6288,9.6403,9.7211,9.7519,9.7596,9.8481,9.9211,9.9827,9.9981,10.0481,10.1019,10.1019,10.1019,10.0712,9.8981,9.7442,9.6288,9.6288,9.6288,9.6288,9.6288,9.6288,9.6288,9.6288,9.6288,9.6288,9.6288,9.6288,9.6288,9.6288,9.6288,9.6288,9.6288,9.6288,9.6288,9.6288,9.6288,9.6288,9.6288,9.6288,9.6365,9.6557,9.629,9.6017,9.5877,9.5324,9.4628,9.3856,9.3352,9.2744,9.2091,9.1876,9.1803,9.1803,9.1803,9.1803,9.1803,9.1803,9.1803,9.1803,9.1803,9.1803,9.1803,9.1803,9.1913,9.2097,9.2097,9.2611,9.3418,9.3602,9.441,9.5547,9.5731,9.6171,9.6685,9.8538,9.7613,9.6809,9.6645,9.6429,9.6288,9.6288,9.6288,9.6288,9.6288,9.6288,9.6288,9.6288,9.6288,9.6288,9.6288,9.6288,9.6288,9.6288,9.6288,9.6288,9.6288,9.6288,9.6288,9.6288,9.6288,9.6288,9.6288,9.6288,9.6288,9.6288,9.6288,9.6288,9.6288,9.6288,9.6288,9.6288,9.6288,9.6288,9.6288,9.6288,9.6288,9.6403,9.7211,9.7519,9.7596,9.8481,9.8827,9.9019,9.9827,10.0096,10.0173,10.0173,10.0173,9.9827,9.8096,9.698,9.6288,9.6288,9.6288,9.6288,9.6288,9.6288,9.6288,9.6288,9.6288,9.6288,9.6288,9.6288,9.6288,9.6288,9.6288,9.6288,9.6288,9.6288,9.6288,9.6288,9.6288,9.6288,9.6288,9.6288,9.6596,9.7326,9.6636,9.6366,9.705,9.6019,9.5105,9.4508,9.3856,9.3099,9.2162,9.1876,9.1803,9.1803,9.1803,9.1803,9.1803,9.1803,9.1803,9.1803,9.1803,9.1803,9.1803,9.1803,9.2244,9.3015,9.3015,9.3492,9.4299,9.5034,9.5401,9.5584,9.6355,9.6649,9.6685,9.8829,9.8153,9.7495,9.6783,9.6463,9.6288,9.6288,9.6288,9.6288,9.6288,9.6749,9.7057,9.7057,9.7057,9.7057,9.7057,9.6596,9.6288,9.6288,9.6288,9.6288,9.6288,9.6288,9.6288,9.6288,9.6288,9.6288,9.6288,9.6288,9.6288,9.6288,9.6288,9.6288,9.6288,9.6288,9.6288,9.6288,9.6288,9.6288,9.6288,9.6288,9.6288,9.6326,9.6634,9.6749,9.6788,9.7134,9.7557,9.8057,9.8365,9.9211,9.9981,9.9442,9.9635,9.975,9.8019,9.6942,9.6288,9.6288,9.6288,9.6288,9.6288,9.6288,9.6288,9.6288,9.6288,9.6288,9.6288,9.6288,9.6288,9.6288,9.6288,9.6288,9.6288,9.6288,9.6288,9.6288,9.6288,9.6288,9.6288,9.6288,9.6442,9.6749,9.6443,9.629,9.6519,9.5968,9.5341,9.4819,9.3739,9.281,9.2091,9.1876,9.1803,9.1803,9.1803,9.1803,9.1803,9.1803,9.1803,9.1803,9.1803,9.1803,9.184,9.2354,9.2794,9.3125,9.3639,9.4336,9.507,9.5401,9.5804,9.6282,9.6575,9.6685,9.6685,9.938,9.8659,9.8001,9.7238,9.6917,9.6825,9.7057,9.7096,9.7096,9.7096,9.7557,9.7904,9.7904,9.7904,9.7788,9.7519,9.7019,9.6557,9.6326,9.6288,9.6288,9.6288,9.6288,9.6288,9.6288,9.6288,9.6288,9.6288,9.6288,9.6288,9.6288,9.6288,9.6288,9.6288,9.6288,9.6288,9.6288,9.6288,9.6288,9.6288,9.6288,9.6288,9.6288,9.6288,9.6288,9.6288,9.6288,9.6634,9.7173,9.7403,9.8288,9.9173,9.8596,9.8634,9.8673,9.748,9.6749,9.6288,9.6288,9.6288,9.6288,9.6288,9.6288,9.6288,9.6288,9.6288,9.6288,9.6288,9.6288,9.6288,9.6288,9.6288,9.6288,9.6288,9.6288,9.6288,9.6288,9.6288,9.6288,9.6288,9.6288,9.6288,9.6288,9.6288,9.6251,9.6136,9.5941,9.5566,9.4832,9.362,9.2781,9.2303,9.1948,9.1803,9.1803,9.1803,9.1803,9.1803,9.1803,9.1803,9.1803,9.1803,9.1803,9.184,9.2721,9.3235,9.3529,9.4336,9.5144,9.5878,9.5878,9.6208,9.6685,9.6685,9.6685,9.6685,10.0215,9.9073,9.8256,9.8041,9.7838,9.7937,9.8673,9.8788,9.8788,9.8788,9.8788,9.8788,9.8788,9.8788,9.8442,9.7596,9.7519,9.7173,9.6365,9.6288,9.6288,9.6288,9.6288,9.6288,9.6288,9.6288,9.6288,9.6288,9.6288,9.6288,9.6288,9.6288,9.6288,9.6288,9.6288,9.6288,9.6288,9.6288,9.6288,9.6288,9.6288,9.6288,9.6288,9.6288,9.6288,9.6288,9.6288,9.6288,9.6442,9.7211,9.748,9.7519,9.7519,9.6942,9.6288,9.6288,9.6288,9.6288,9.6288,9.6288,9.6288,9.6288,9.6288,9.6288,9.6288,9.6288,9.6288,9.6288,9.6288,9.6288,9.6288,9.6288,9.6288,9.6288,9.6288,9.6288,9.6288,9.6288,9.6288,9.6288,9.6288,9.6288,9.6288,9.6288,9.6288,9.6288,9.6136,9.5696,9.4731,9.368,9.2942,9.2684,9.2091,9.1803,9.1803,9.1803,9.1803,9.1803,9.1803,9.1803,9.1803,9.1803,9.1803,9.184,9.2721,9.3565,9.4373,9.518,9.5988,9.6685,9.6685,9.6685,9.6685,9.6685,9.6685,9.6685,10.0307,9.9093,9.8256,9.8099,9.7832,9.7937,9.8673,9.8788,9.8788,9.8788,9.9327,9.9712,9.9712,9.9712,9.9365,9.8481,9.7865,9.7173,9.6365,9.6288,9.6288,9.6288,9.6288,9.6288,9.6288,9.6288,9.6288,9.6288,9.6288,9.6288,9.6288,9.6288,9.6288,9.6288,9.6288,9.6288,9.6288,9.6288,9.6288,9.6288,9.6288,9.6288,9.6288,9.6288,9.6288,9.6288,9.6288,9.6288,9.6326,9.6596,9.7019,9.7519,9.7519,9.6942,9.6288,9.6288,9.6288,9.6288,9.6288,9.6288,9.6288,9.6288,9.6288,9.6288,9.6288,9.6288,9.6288,9.6288,9.6288,9.6288,9.6288,9.6288,9.6288,9.6288,9.6288,9.6288,9.6288,9.6288,9.6288,9.6288,9.6288,9.6288,9.6288,9.6288,9.6288,9.6288,9.5938,9.5433,9.4769,9.376,9.3099,9.2684,9.2091,9.1803,9.1803,9.1803,9.1803,9.1803,9.1803,9.1803,9.1803,9.1803,9.1803,9.1877,9.3308,9.4079,9.441,9.5768,9.6502,9.6685,9.6685,9.6685,9.6685,9.6685,9.6685,9.6685,9.9884,9.8977,9.8352,9.8234,9.823,9.8545,9.9248,9.9596,9.9788,9.9788,10.0212,10.0596,10.0596,10.0596,10.0096,9.8904,9.7711,9.6826,9.6326,9.6288,9.6288,9.6288,9.6288,9.6288,9.6288,9.6288,9.6288,9.6288,9.6288,9.6288,9.6288,9.6288,9.6288,9.6288,9.6288,9.6288,9.6288,9.6288,9.6288,9.6288,9.6288,9.6288,9.6288,9.6288,9.6288,9.6288,9.6288,9.6288,9.6288,9.6288,9.6634,9.7019,9.7019,9.6711,9.6288,9.6288,9.6288,9.6288,9.6288,9.6288,9.6288,9.6288,9.6288,9.6288,9.6288,9.6288,9.6288,9.6288,9.6288,9.6288,9.6288,9.6288,9.6288,9.6288,9.6288,9.6288,9.6288,9.6288,9.6288,9.6288,9.6288,9.6288,9.6288,9.6288,9.6288,9.6288,9.5856,9.5379,9.4882,9.3877,9.3163,9.2818,9.2162,9.1803,9.1803,9.1803,9.1803,9.1803,9.1803,9.1803,9.1803,9.1803,9.1803,9.1877,9.3235,9.4006,9.441,9.5694,9.6428,9.6685,9.6685,9.6685,9.6685,9.6685,9.6685,9.6685,9.9218,9.8692,9.8462,9.8341,9.8728,9.9371,10.009,10.0788,10.1212,10.1289,10.1289,10.1289,10.1289,10.1289,10.0596,9.8942,9.7288,9.6288,9.6288,9.6288,9.6288,9.6288,9.6288,9.6288,9.6288,9.6288,9.6288,9.6288,9.6288,9.6288,9.6288,9.6288,9.6288,9.6288,9.6288,9.6288,9.6288,9.6288,9.6288,9.6288,9.6288,9.6288,9.6288,9.6288,9.6288,9.6288,9.6288,9.6288,9.6288,9.6288,9.6288,9.6288,9.6288,9.6288,9.6288,9.6288,9.6288,9.6288,9.6288,9.6288,9.6288,9.6288,9.6288,9.6288,9.6288,9.6288,9.6288,9.6288,9.6288,9.6288,9.6288,9.6288,9.6288,9.6288,9.6288,9.6288,9.6288,9.6288,9.6288,9.6288,9.6288,9.6288,9.6288,9.6288,9.6288,9.6288,9.5856,9.5471,9.5115,9.3991,9.3189,9.2914,9.2196,9.1803,9.1803,9.1803,9.1803,9.1803,9.1803,9.1803,9.1803,9.1803,9.1803,9.184,9.2794,9.3602,9.4373,9.5254,9.6061,9.6685,9.6685,9.6685,9.6685,9.6685,9.6685,9.6685,9.9047,9.8252,9.7825,9.8295,9.835,9.8764,10.0119,10.0398,10.0596,10.1212,10.1289,10.1289,10.1289,10.1289,10.0596,9.8942,9.7288,9.6288,9.6288,9.6288,9.6288,9.6288,9.6288,9.6288,9.6288,9.6288,9.6288,9.6288,9.6288,9.6288,9.6288,9.6288,9.6288,9.6288,9.6288,9.6288,9.6288,9.6288,9.6288,9.6288,9.6288,9.6288,9.6288,9.6288,9.6288,9.6288,9.6288,9.6288,9.6288,9.6288,9.6288,9.6288,9.6288,9.6288,9.6288,9.6288,9.6288,9.6288,9.6288,9.6288,9.6288,9.6288,9.6288,9.6288,9.6288,9.6288,9.6288,9.6288,9.6288,9.6288,9.6288,9.6288,9.6288,9.6288,9.6288,9.6288,9.6288,9.6288,9.6288,9.6288,9.6288,9.6288,9.6288,9.6288,9.6288,9.6288,9.59,9.5522,9.5115,9.4215,9.3475,9.2914,9.2373,9.1948,9.1803,9.1803,9.1803,9.1803,9.1803,9.1803,9.1803,9.1803,9.1803,9.1877,9.3382,9.4153,9.441,9.5841,9.6539,9.6685,9.6685,9.6685,9.6685,9.6685,9.6685,9.6685,9.8473,9.7896,9.7572,9.7861,9.807,9.8408,9.9062,9.974,10.0287,10.0673,10.1096,10.1289,10.1289,10.1289,10.0596,9.8942,9.7288,9.6288,9.6288,9.6288,9.6288,9.6288,9.6288,9.6288,9.6288,9.6288,9.6288,9.6288,9.6288,9.6288,9.6288,9.6288,9.6288,9.6288,9.6288,9.6288,9.6288,9.6288,9.6288,9.6288,9.6288,9.6288,9.6288,9.6288,9.6288,9.6288,9.6288,9.6288,9.6288,9.6288,9.6288,9.6288,9.6288,9.6288,9.6288,9.6288,9.6288,9.6288,9.6288,9.6288,9.6288,9.6288,9.6288,9.6288,9.6288,9.6288,9.6288,9.6288,9.6288,9.6288,9.6288,9.6288,9.6288,9.6288,9.6288,9.6288,9.6288,9.6288,9.6288,9.6288,9.6288,9.6288,9.6288,9.6288,9.6288,9.6288,9.59,9.5566,9.521,9.427,9.356,9.3007,9.2405,9.202,9.1803,9.1803,9.1803,9.1803,9.1803,9.1803,9.1803,9.1803,9.1803,9.1877,9.3161,9.3932,9.441,9.5621,9.6355,9.6685,9.6685,9.6685,9.6685,9.6685,9.6685,9.6685,9.7851,9.7641,9.7581,9.7435,9.7791,9.8079,9.7952,9.9,9.99,10.0096,10.0673,10.1096,10.1096,10.0789,10.0212,9.8904,9.7288,9.6288,9.6288,9.6288,9.6288,9.6288,9.6288,9.6288,9.6288,9.6288,9.6288,9.6288,9.6288,9.6288,9.6288,9.6288,9.6288,9.6288,9.6288,9.6288,9.6288,9.6288,9.6288,9.6288,9.6288,9.6288,9.6288,9.6288,9.6288,9.6288,9.6288,9.6288,9.6288,9.6288,9.6288,9.6288,9.6288,9.6288,9.6288,9.6288,9.6288,9.6288,9.6288,9.6288,9.6288,9.6288,9.6288,9.6288,9.6288,9.6288,9.6288,9.6288,9.6288,9.6288,9.6288,9.6288,9.6288,9.6288,9.6288,9.6288,9.6288,9.6288,9.6288,9.6288,9.6288,9.6288,9.6288,9.6288,9.6288,9.6288,9.5941,9.5653,9.5303,9.4432,9.368,9.3099,9.2473,9.2091,9.1803,9.1803,9.1803,9.1803,9.1803,9.1803,9.1803,9.1803,9.1803,9.184,9.2868,9.3675,9.4373,9.5327,9.6098,9.6685,9.6685,9.6685,9.6685,9.6685,9.6685,9.6685,9.7734,9.7689,9.7623,9.7515,9.741,9.7548,9.8065,9.8153,9.8622,10.0015,10.0173,10.0289,10.0289,9.8904,9.8211,9.875,9.7288,9.6288,9.6288,9.6288,9.6288,9.6288,9.6288,9.6288,9.6288,9.6288,9.6288,9.6288,9.6288,9.6288,9.6288,9.6288,9.6288,9.6288,9.6288,9.6288,9.6288,9.6288,9.6288,9.6288,9.6288,9.6288,9.6288,9.6288,9.6288,9.6288,9.6288,9.6288,9.6288,9.6288,9.6288,9.6288,9.6288,9.6288,9.6288,9.6288,9.6288,9.6288,9.6288,9.6288,9.6288,9.6288,9.6288,9.6288,9.6288,9.6288,9.6288,9.6288,9.6288,9.6288,9.6288,9.6288,9.6288,9.6288,9.6288,9.6288,9.6288,9.6288,9.6288,9.6288,9.6288,9.6288,9.6288,9.6288,9.6288,9.6288,9.6136,9.5859,9.5349,9.4832,9.4142,9.3099,9.2781,9.234,9.1803,9.1803,9.1803,9.1803,9.1803,9.1803,9.1803,9.1803,9.1803,9.1877,9.3455,9.4189,9.441,9.5914,9.6612,9.6685,9.6685,9.6685,9.6685,9.6685,9.6685,9.6685,9.7695,9.7691,9.7667,9.7554,9.7379,9.7304,9.747,9.7732,9.8135,9.8773,9.9206,9.9441,9.9365,9.825,9.7634,9.8057,9.698,9.6288,9.6288,9.6288,9.6288,9.6288,9.6288,9.6288,9.6288,9.6288,9.6288,9.6288,9.6288,9.6288,9.6288,9.6288,9.6288,9.6288,9.6288,9.6288,9.6288,9.6288,9.6288,9.6288,9.6288,9.6288,9.6288,9.6288,9.6288,9.6288,9.6288,9.6288,9.6288,9.6288,9.6288,9.6288,9.6288,9.6288,9.6288,9.6288,9.6288,9.6288,9.6288,9.6288,9.6288,9.6288,9.6288,9.6288,9.6288,9.6288,9.6288,9.6288,9.6288,9.6288,9.6288,9.6288,9.6288,9.6288,9.6288,9.6288,9.6288,9.6288,9.6288,9.6288,9.6288,9.6288,9.6288,9.6288,9.6288,9.6288,9.6213,9.5941,9.5528,9.498,9.4308,9.3499,9.2979,9.2479,9.1948,9.1876,9.1803,9.1803,9.1803,9.1803,9.1803,9.1803,9.1803,9.1877,9.3565,9.4299,9.441,9.6025,9.6685,9.6685,9.6685,9.6685,9.6685,9.6685,9.6685,9.6685]},{"header":{"parameterUnit":"m.s-1","parameterCategory":1,"la1":30.6,"la2":28.766,"lo1":-90.7593,"lo2":-88.6598,"dx":0.0162,"dy":0.0183,"nx":116,"ny":114,"refTime":"2022-11-14T18:00:00:Z","depth":0,"parameterNumber":3,"parameterNumberName":"V-component_of_WINDS"},"data":[0.0,0.0,0.0,0.0,0.0,0.0,0.0,0.0,0.0,0.0,0.0,0.0,0.0,0.0,0.0,0.0,0.0,0.0,0.0,0.0,0.0,0.0,0.0,0.0,0.0,0.0,0.0,0.0,0.0,0.0,0.0,0.0,0.0,0.0,0.0,0.0,0.0,0.0,0.0,0.0,0.0,0.0,0.0,0.0,0.0,0.0,0.0,0.0,0.0,0.0,0.0,0.0,0.0,0.0,0.0,0.0,0.0,0.0,0.0,0.0,0.0,0.0,0.0,0.0,0.0,0.0,0.0,0.0,0.0,0.0,0.0,0.0,0.0,0.0,0.0,0.0,0.0,0.0,0.0,0.0,0.0,0.0,0.0,0.0,0.0,0.0,0.0,0.0,0.0,0.0,0.0,0.0,0.0,0.0,0.0,0.0,0.0,0.0,0.0,0.0,0.0,0.0,0.0,0.0,0.0,0.0,0.0,0.0,0.0,0.0,0.0,0.0,0.0,0.0,0.0,0.0,0.0,0.0,0.0,0.0,0.0,0.0,0.0,0.0,0.0,0.0,0.0,0.0,0.0,0.0,0.0,0.0,0.0,0.0,0.0,0.0,0.0,0.0,0.0,0.0,0.0,0.0,0.0,0.0,0.0,0.0,0.0,0.0,0.0,0.0,0.0,0.0,0.0,0.0,0.0,0.0,0.0,0.0,0.0,0.0,0.0,0.0,0.0,0.0,0.0,0.0,0.0,0.0,0.0,0.0,0.0,0.0,0.0,0.0,0.0,0.0,0.0,0.0,0.0,0.0,0.0,0.0,0.0,0.0,0.0,0.0,0.0,0.0,0.0,0.0,0.0,0.0,0.0,0.0,0.0,0.0,0.0,0.0,0.0,0.0,0.0,0.0,0.0,0.0,0.0,0.0,0.0,0.0,0.0,0.0,0.0,0.0,0.0,0.0,0.0,0.0,0.0,0.0,0.0,0.0,0.0,0.0,0.0,0.0,0.0,0.0,0.0,0.0,0.0,0.0,0.0,0.0,0.0,0.0,0.0,0.0,0.0,0.0,0.0,0.0,0.0,0.0,0.0,0.0,0.0,0.0,0.0,0.0,0.0,0.0,0.0,0.0,0.0,0.0,0.0,0.0,0.0,0.0,0.0,0.0,0.0,0.0,0.0,0.0,0.0,0.0,0.0,0.0,0.0,0.0,0.0,0.0,0.0,0.0,0.0,0.0,0.0,0.0,0.0,0.0,0.0,0.0,0.0,0.0,0.0,0.0,0.0,0.0,0.0,0.0,0.0,0.0,0.0,0.0,0.0,0.0,0.0,0.0,0.0,0.0,0.0,0.0,0.0,0.0,0.0,0.0,0.0,0.0,0.0,0.0,0.0,0.0,0.0,0.0,0.0,0.0,0.0,0.0,0.0,0.0,0.0,0.0,0.0,0.0,0.0,0.0,0.0,0.0,0.0,0.0,0.0,0.0,0.0,0.0,0.0,0.0,0.0,0.0,0.0,0.0,0.0,0.0,0.0,0.0,0.0,0.0,0.0,0.0,0.0,0.0,0.0,0.0,0.0,0.0,0.0,0.0,0.0,0.0,0.0,0.0,0.0,0.0,0.0,0.0,0.0,0.0,0.0,0.0,0.0,0.0,0.0,0.0,0.0,0.0,0.0,0.0,0.0,0.0,0.0,0.0,0.0,0.0,0.0,0.0,0.0,0.0,0.0,0.0,0.0,0.0,0.0,0.0,0.0,0.0,0.0,0.0,0.0,0.0,0.0,0.0,0.0,0.0,0.0,0.0,0.0,0.0,0.0,0.0,0.0,0.0,0.0,0.0,0.0,0.0,0.0,0.0,0.0,0.0,0.0,0.0,0.0,0.0,0.0,0.0,0.0,0.0,0.0,0.0,0.0,0.0,0.0,0.0,0.0,0.0,0.0,0.0,0.0,0.0,0.0,0.0,0.0,0.0,0.0,0.0,0.0,0.0,0.0,0.0,0.0,0.0,0.0,0.0,0.0,0.0,0.0,0.0,0.0,0.0,0.0,0.0,0.0,0.0,0.0,0.0,0.0,0.0,0.0,0.0,0.0,0.0,0.0,0.0,0.0,0.0,0.0,0.0,0.0,0.0,0.0,0.0,0.0,0.0,0.0,0.0,0.0,0.0,0.0,0.0,0.0,0.0,0.0,0.0,0.0,0.0,0.0,0.0,0.0,0.0,0.0,0.0,0.0,0.0,0.0,0.0,0.0,0.0,0.0,0.0,0.0,0.0,0.0,0.0,0.0,0.0,0.0,0.0,0.0,0.0,0.0,0.0,0.0,0.0,0.0,0.0,0.0,0.0,0.0,0.0,0.0,0.0,0.0,0.0,0.0,0.0,0.0,0.0,0.0,0.0,0.0,0.0,0.0,0.0,0.0,0.0,0.0,0.0,0.0,0.0,0.0,0.0,0.0,0.0,0.0,0.0,0.0,0.0,0.0,0.0,0.0,0.0,0.0,0.0,0.0,0.0,0.0,0.0,0.0,0.0,0.0,0.0,0.0,0.0,0.0,0.0,0.0,0.0,0.0,0.0,0.0,0.0,0.0,0.0,0.0,0.0,0.0,0.0,0.0,0.0,0.0,0.0,0.0,0.0,0.0,0.0,0.0,0.0,0.0,0.0,0.0,0.0,0.0,0.0,0.0,0.0,0.0,0.0,0.0,0.0,0.0,0.0,0.0,0.0,0.0,0.0,0.0,0.0,0.0,0.0,0.0,0.0,0.0,0.0,0.0,0.0,0.0,0.0,0.0,0.0,0.0,0.0,0.0,0.0,0.0,0.0,0.0,0.0,0.0,0.0,0.0,0.0,0.0,0.0,0.0,0.0,0.0,0.0,0.0,0.0,0.0,0.0,0.0,0.0,0.0,0.0,0.0,0.0,0.0,0.0,0.0,0.0,0.0,0.0,0.0,0.0,0.0,0.0,0.0,0.0,0.0,0.0,0.0,0.0,0.0,0.0,0.0,0.0,0.0,0.0,0.0,0.0,0.0,0.0,0.0,0.0,0.0,0.0,0.0,0.0,0.0,0.0,0.0,0.0,0.0,0.0,0.0,0.0,0.0,0.0,0.0,0.0,0.0,0.0,0.0,0.0,0.0,0.0,0.0,0.0,0.0,0.0,0.0,0.0,0.0,0.0,0.0,0.0,0.0,0.0,0.0,0.0,0.0,0.0,0.0,0.0,0.0,0.0,0.0,0.0,0.0,0.0,0.0,0.0,0.0,0.0,0.0,0.0,0.0,0.0,0.0,0.0,0.0,0.0,0.0,0.0,0.0,0.0,0.0,0.0,0.0,0.0,0.0,0.0,0.0,0.0,0.0,0.0,0.0,0.0,0.0,0.0,0.0,0.0,0.0,0.0,0.0,0.0,0.0,0.0,0.0,0.0,0.0,0.0,0.0,0.0,0.0,0.0,0.0,0.0,0.0,0.0,0.0,0.0,0.0,0.0,0.0,0.0,0.0,0.0,0.0,0.0,0.0,0.0,0.0,0.0,0.0,0.0,0.0,0.0,0.0,0.0,0.0,0.0,0.0,0.0,0.0,0.0,0.0,0.0,0.0,0.0,0.0,0.0,0.0,0.0,0.0,0.0,0.0,0.0,0.0,0.0,0.0,0.0,0.0,0.0,0.0,0.0,0.0,0.0,0.0,0.0,0.0,0.0,0.0,0.0,0.0,0.0,0.0,0.0,0.0,0.0,0.0,0.0,0.0,0.0,0.0,0.0,0.0,0.0,0.0,0.0,0.0,0.0,0.0,0.0,0.0,0.0,0.0,0.0,0.0,0.0,0.0,0.0,0.0,0.0,0.0,0.0,0.0,0.0,0.0,0.0,0.0,0.0,0.0,0.0,0.0,0.0,0.0,0.0,0.0,0.0,0.0,0.0,0.0,0.0,0.0,0.0,0.0,0.0,0.0,0.0,0.0,0.0,0.0,0.0,0.0,0.0,0.0,0.0,0.0,0.0,0.0,0.0,0.0,0.0,0.0,0.0,0.0,0.0,0.0,0.0,0.0,0.0,0.0,0.0,0.0,0.0,0.0,0.0,0.0,0.0,0.0,0.0,0.0,0.0,0.0,0.0,0.0,0.0,0.0,0.0,0.0,0.0,0.0,0.0,0.0,0.0,0.0,0.0,0.0,0.0,0.0,0.0,0.0,0.0,0.0,0.0,0.0,0.0,0.0,0.0,0.0,0.0,0.0,0.0,0.0,0.0,0.0,0.0,0.0,0.0,0.0,0.0,0.0,0.0,0.0,0.0,0.0,0.0,0.0,0.0,0.0,0.0,0.0,0.0,0.0,0.0,0.0,0.0,0.0,0.0,0.0,0.0,0.0,0.0,0.0,0.0,0.0,0.0,0.0,0.0,0.0,0.0,0.0,0.0,0.0,0.0,0.0,0.0,0.0,0.0,0.0,0.0,0.0,0.0,0.0,0.0,0.0,0.0,0.0,0.0,0.0,0.0,0.0,0.0,0.0,0.0,0.0,0.0,0.0,0.0,0.0,0.0,0.0,0.0,0.0,0.0,0.0,0.0,0.0,0.0,0.0,0.0,0.0,0.0,0.0,0.0,0.0,0.0,0.0,0.0,0.0,0.0,0.0,0.0,0.0,0.0,0.0,0.0,0.0,0.0,0.0,0.0,0.0,0.0,0.0,0.0,0.0,0.0,0.0,0.0,0.0,0.0,0.0,0.0,0.0,0.0,0.0,0.0,0.0,0.0,0.0,0.0,0.0,0.0,0.0,0.0,0.0,0.0,0.0,0.0,0.0,0.0,0.0,0.0,0.0,0.0,0.0,0.0,0.0,0.0,0.0,0.0,0.0,0.0,0.0,0.0,0.0,0.0,0.0,0.0,0.0,0.0,0.0,0.0,0.0,0.0,0.0,0.0,0.0,0.0,0.0,0.0,0.0,0.0,0.0,0.0,0.0,0.0,0.0,0.0,0.0,0.0,0.0,0.0,0.0,0.0,0.0,0.0,0.0,0.0,0.0,0.0,0.0,0.0,0.0,0.0,0.0,0.0,0.0,0.0,0.0,0.0,0.0,0.0,0.0,0.0,0.0,0.0,0.0,0.0,0.0,0.0,0.0,0.0,0.0,0.0,0.0,0.0,0.0,0.0,0.0,0.0,0.0,0.0,0.0,0.0,0.0,0.0,0.0,0.0,0.0,0.0,0.0,0.0,0.0,0.0,0.0,0.0,0.0,0.0,0.0,0.0,0.0,0.0,0.0,0.0,0.0,0.0,0.0,0.0,0.0,0.0,0.0,0.0,0.0,0.0,0.0,0.0,0.0,0.0,0.0,0.0,0.0,0.0,0.0,0.0,0.0,0.0,0.0,0.0,0.0,0.0,0.0,0.0,0.0,0.0,0.0,0.0,0.0,0.0,0.0,0.0,0.0,0.0,0.0,0.0,0.0,0.0,0.0,0.0,0.0,0.0,0.0,0.0,0.0,0.0,0.0,0.0,0.0,0.0,0.0,0.0,0.0,0.0,0.0,0.0,0.0,0.0,0.0,0.0,0.0,0.0,0.0,0.0,0.0,0.0,0.0,0.0,0.0,0.0,0.0,0.0,0.0,0.0,0.0,0.0,0.0,0.0,0.0,0.0,0.0,0.0,0.0,0.0,0.0,0.0,0.0,0.0,0.0,0.0,0.0,0.0,0.0,0.0,0.0,0.0,0.0,0.0,0.0,0.0,0.0,0.0,0.0,0.0,0.0,0.0,0.0,0.0,0.0,0.0,0.0,0.0,0.0,0.0,0.0,0.0,0.0,0.0,0.0,0.0,0.0,0.0,0.0,0.0,0.0,0.0,0.0,0.0,0.0,0.0,0.0,0.0,0.0,0.0,0.0,0.0,0.0,0.0,0.0,0.0,0.0,0.0,0.0,0.0,0.0,0.0,0.0,0.0,0.0,0.0,0.0,0.0,0.0,0.0,0.0,0.0,0.0,0.0,0.0,0.0,0.0,0.0,0.0,0.0,0.0,0.0,0.0,0.0,0.0,0.0,0.0,0.0,0.0,0.0,0.0,0.0,0.0,0.0,0.0,0.0,0.0,0.0,0.0,0.0,0.0,0.0,0.0,0.0,0.0,0.0,-2.167,0.0,0.0,0.0,0.0,0.0,0.0,0.0,0.0,0.0,0.0,0.0,0.0,0.0,0.0,0.0,0.0,0.0,0.0,0.0,0.0,0.0,0.0,0.0,0.0,-0.7163,-0.7278,-0.7353,-0.736,0.0,0.0,0.0,0.0,0.0,0.0,0.0,-0.7251,-0.7387,-0.7577,-0.7801,-0.8248,-0.8771,-0.934,-0.9096,-0.8635,-0.8018,0.0,0.0,0.0,0.0,0.0,0.0,0.0,0.0,0.0,0.0,0.0,0.0,0.0,0.0,0.0,0.0,0.0,0.0,0.0,0.0,0.0,0.0,0.0,0.0,0.0,0.0,0.0,0.0,0.0,0.0,0.0,0.0,0.0,0.0,0.0,0.0,0.0,0.0,0.0,0.0,0.0,0.0,0.0,0.0,0.0,0.0,0.0,0.0,0.0,0.0,0.0,0.0,0.0,0.0,0.0,0.0,0.0,0.0,0.0,0.0,0.0,0.0,0.0,0.0,0.0,0.0,0.0,0.0,0.0,0.0,0.0,-2.2672,0.0,0.0,0.0,0.0,0.0,0.0,0.0,0.0,0.0,0.0,0.0,0.0,0.0,0.0,0.0,0.0,0.0,0.0,0.0,0.0,0.0,-0.7034,-0.7204,-0.738,-0.755,-0.7706,-0.7719,-0.7719,-0.7719,-0.7665,0.0,0.0,0.0,0.0,-0.7638,-0.7828,-0.8106,-0.8465,-0.9069,-0.9774,-1.0555,-1.0826,-1.0344,-0.9245,-0.9062,0.0,0.0,0.0,0.0,0.0,0.0,0.0,0.0,0.0,0.0,0.0,0.0,0.0,0.0,0.0,0.0,0.0,0.0,0.0,0.0,0.0,0.0,0.0,0.0,0.0,0.0,0.0,0.0,0.0,0.0,0.0,0.0,0.0,0.0,0.0,0.0,0.0,0.0,0.0,0.0,0.0,0.0,0.0,0.0,0.0,0.0,0.0,0.0,0.0,0.0,0.0,0.0,0.0,0.0,0.0,0.0,0.0,0.0,0.0,0.0,0.0,0.0,0.0,-2.5344,-2.5585,-2.5825,-2.6119,-2.6266,-2.6199,-2.5037,-2.4249,-2.3741,0.0,0.0,0.0,0.0,0.0,0.0,0.0,0.0,0.0,0.0,0.0,0.0,0.0,0.0,0.0,0.0,0.0,0.0,0.0,0.0,-0.7224,-0.7509,-0.7787,-0.8011,-0.8167,-0.818,-0.818,-0.818,-0.7929,0.0,0.0,0.0,-0.7658,-0.778,-0.818,-0.8669,-0.9232,-1.0466,-1.126,-1.1633,-1.1803,-1.1721,-1.1382,-1.0473,-0.9836,-0.9415,0.0,0.0,0.0,0.0,0.0,0.0,0.0,0.0,0.0,0.0,0.0,0.0,0.0,0.0,0.0,0.0,0.0,0.0,0.0,0.0,0.0,0.0,0.0,0.0,0.0,0.0,0.0,0.0,0.0,0.0,0.0,0.0,0.0,0.0,0.0,0.0,0.0,0.0,0.0,0.0,0.0,-2.0788,-2.0535,0.0,0.0,0.0,0.0,0.0,0.0,0.0,0.0,0.0,0.0,0.0,0.0,0.0,-2.1972,-2.3235,-2.384,-2.4907,-2.6287,-2.6799,-2.7001,-2.7041,-2.7335,-2.7468,-2.7468,-2.7535,0.0,-2.5545,-2.469,0.0,0.0,0.0,0.0,0.0,0.0,0.0,0.0,0.0,0.0,0.0,0.0,0.0,0.0,0.0,0.0,0.0,0.0,0.0,0.0,0.0,-0.8289,-0.8581,-0.8988,-0.8947,-0.8893,-0.8893,-0.8615,0.0,0.0,-0.8126,-0.8126,-0.8187,-0.871,-0.953,-1.0643,-1.1647,-1.2298,-1.2589,-1.2739,-1.2779,-1.2691,-1.2149,-1.1375,-1.046,-1.0161,0.0,0.0,0.0,0.0,0.0,0.0,0.0,0.0,0.0,0.0,0.0,0.0,0.0,0.0,0.0,0.0,0.0,0.0,0.0,0.0,0.0,0.0,0.0,0.0,0.0,0.0,0.0,0.0,0.0,0.0,0.0,0.0,0.0,0.0,0.0,0.0,0.0,0.0,0.0,-2.1136,-2.1804,-2.167,-2.151,-2.1115,0.0,0.0,0.0,0.0,0.0,0.0,0.0,0.0,0.0,-2.238,-2.2241,-2.2545,-2.3517,-2.4544,-2.5785,-2.7238,-2.7891,-2.8406,-2.8764,-2.8885,-2.8951,-2.8951,-2.9085,-2.8778,-2.807,-2.668,-2.5678,-2.4917,0.0,0.0,0.0,0.0,-2.1906,-2.1626,0.0,0.0,0.0,0.0,0.0,0.0,0.0,0.0,0.0,0.0,0.0,0.0,-0.8594,-0.8927,-0.932,-0.9849,-0.9822,-0.9747,-0.9673,-0.9347,-0.9028,-0.8723,-0.8676,-0.8689,-0.8771,-0.9585,-1.0649,-1.1959,-1.2671,-1.3166,-1.3464,-1.358,-1.3627,-1.3627,-1.3512,-1.2752,-1.1538,-1.1206,-1.0656,-0.9958,0.0,0.0,0.0,0.0,0.0,0.0,0.0,0.0,0.0,0.0,0.0,0.0,0.0,0.0,0.0,0.0,0.0,0.0,0.0,0.0,0.0,0.0,0.0,0.0,0.0,0.0,0.0,0.0,0.0,0.0,0.0,0.0,0.0,0.0,0.0,0.0,0.0,-2.2205,-2.2819,-2.2966,-2.2792,-2.2417,0.0,0.0,0.0,0.0,0.0,0.0,-2.3927,-2.397,-2.3854,-2.3213,-2.2688,-2.2674,-2.338,-2.4617,-2.6187,-2.7686,-2.8835,-2.9585,-3.014,-3.014,-3.014,-3.014,-3.014,-3.014,-3.002,-2.847,-2.7402,-2.668,-2.6092,-2.5524,-2.4814,-2.4648,-2.4146,-2.3806,0.0,0.0,0.0,0.0,0.0,0.0,0.0,0.0,0.0,0.0,0.0,-0.8608,-0.9069,-0.9768,-1.0324,-1.0636,-1.0792,-1.0744,-1.0453,-1.0019,-0.9646,-0.9347,-0.9198,-0.9252,-0.9544,-1.0968,-1.2094,-1.2895,-1.3492,-1.3939,-1.4245,-1.4251,-1.4251,-1.4251,-1.4245,-1.3648,-1.2623,-1.2182,-1.164,-1.1009,-1.0127,0.0,0.0,0.0,0.0,0.0,0.0,0.0,0.0,0.0,0.0,0.0,0.0,0.0,0.0,0.0,0.0,0.0,0.0,0.0,0.0,0.0,0.0,0.0,0.0,0.0,0.0,0.0,0.0,0.0,0.0,0.0,0.0,0.0,0.0,0.0,0.0,0.0,0.0,-2.4462,-2.4516,0.0,0.0,0.0,0.0,-2.383,-2.4713,-2.5296,-2.5532,-2.545,-2.4806,-2.3402,-2.2818,-2.2563,-2.2849,-2.4366,-2.5982,-2.7727,-2.925,-3.0201,-3.0755,-3.0755,-3.0755,-3.0755,-3.0755,-3.0755,-3.0675,-2.9753,-2.9179,-2.8831,-2.8217,-2.7636,-2.6887,-2.69,-2.6082,-2.5203,0.0,0.0,0.0,-0.7143,-0.7143,-0.7143,-0.7143,-0.7272,-0.7495,-0.7834,-0.8404,-0.9089,-0.9924,-1.0514,-1.1084,-1.1681,-1.1687,-1.1579,-1.1369,-1.0934,-1.0466,-0.9978,-0.991,-1.0202,-1.0887,-1.1993,-1.2874,-1.3526,-1.4129,-1.4529,-1.4733,-1.4828,-1.4869,-1.4869,-1.4869,-1.4557,-1.398,-1.3342,-1.2664,-1.1965,-1.126,-1.0534,0.0,0.0,0.0,0.0,0.0,0.0,0.0,0.0,0.0,0.0,0.0,0.0,0.0,0.0,0.0,0.0,0.0,0.0,0.0,0.0,0.0,0.0,0.0,0.0,0.0,0.0,0.0,0.0,0.0,0.0,0.0,0.0,0.0,0.0,0.0,0.0,0.0,-2.5678,-2.5598,0.0,-2.5445,-2.515,-2.5244,-2.5659,-2.6234,-2.6658,-2.6872,-2.6521,-2.5553,-2.4096,-2.2687,-2.1985,-2.2029,-2.3104,-2.4926,-2.7688,-2.9004,-3.0226,-3.1356,-3.1356,-3.1356,-3.1356,-3.1356,-3.1356,-3.133,-3.1022,-3.0501,-2.9873,-2.9659,-2.9272,-2.8711,-2.9097,-2.8582,-2.7813,0.0,0.0,0.0,-0.7143,-0.7143,-0.7156,-0.721,-0.7387,-0.7699,-0.8201,-0.8879,-0.9673,-1.0616,-1.1212,-1.1803,-1.2461,-1.242,-1.2277,-1.2074,-1.1687,-1.1226,-1.0677,-1.0799,-1.1253,-1.2054,-1.2901,-1.36,-1.4143,-1.4746,-1.512,-1.5276,-1.5418,-1.5486,-1.5486,-1.5432,-1.5269,-1.5004,-1.4407,-1.3661,-1.2827,-1.2176,-1.147,-1.0724,0.0,0.0,0.0,0.0,0.0,0.0,0.0,0.0,0.0,0.0,0.0,0.0,0.0,0.0,0.0,0.0,0.0,0.0,0.0,0.0,0.0,0.0,0.0,0.0,0.0,0.0,0.0,0.0,0.0,0.0,0.0,0.0,0.0,0.0,0.0,-2.5959,-2.6734,-2.6587,-2.6613,-2.6637,-2.6346,-2.616,-2.6449,-2.6835,-2.7017,-2.7108,-2.6328,-2.5339,-2.3905,-2.2363,-2.1522,-2.1394,-2.2751,-2.4788,-2.7494,-2.9127,-3.0574,-3.181,-3.181,-3.1757,-3.1664,-3.1664,-3.1717,-3.181,-3.181,-3.1476,-3.0929,-3.0728,-3.0421,-3.0114,-3.0394,-3.0003,-2.9534,0.0,0.0,-0.7143,-0.7143,-0.7143,-0.719,-0.7346,-0.7624,-0.8038,-0.8642,-0.9503,-1.0351,-1.1111,-1.1857,-1.2488,-1.2942,-1.2976,-1.2847,-1.2549,-1.225,-1.1884,-1.1443,-1.1857,-1.2379,-1.2983,-1.3722,-1.4319,-1.4767,-1.5364,-1.5723,-1.5872,-1.6022,-1.6096,-1.609,-1.594,-1.5791,-1.5635,-1.533,-1.4611,-1.3614,-1.2847,-1.2271,-1.1789,0.0,0.0,0.0,0.0,0.0,0.0,0.0,0.0,0.0,0.0,0.0,0.0,0.0,0.0,0.0,0.0,0.0,0.0,0.0,0.0,0.0,0.0,0.0,0.0,0.0,0.0,0.0,0.0,0.0,0.0,0.0,0.0,0.0,-2.5104,-2.6132,-2.7081,-2.7682,-2.7512,-2.7343,-2.7369,-2.6996,-2.6717,-2.6426,-2.6394,-2.6237,-2.6126,-2.5195,-2.4156,-2.2837,-2.1901,-2.1226,-2.0817,-2.3168,-2.5437,-2.7605,-2.9849,-3.1425,-3.2118,-3.2104,-3.1944,-3.1677,-3.1677,-3.1837,-3.2104,-3.2104,-3.2104,-3.2051,-3.1476,-3.1236,-3.1196,-3.0915,-3.0439,-3.0108,-0.7143,-0.7143,-0.7143,-0.7143,-0.7143,-0.719,-0.7346,-0.7719,-0.8228,-0.894,-0.9815,-1.0738,-1.1708,-1.2291,-1.2834,-1.3397,-1.3342,-1.3247,-1.3159,-1.2773,-1.244,-1.221,-1.263,-1.3152,-1.3749,-1.4394,-1.4943,-1.5391,-1.5771,-1.6035,-1.6185,-1.6334,-1.6402,-1.6395,-1.6354,-1.6198,-1.5947,-1.575,-1.5316,-1.4679,-1.3817,-1.32,-1.2725,0.0,0.0,0.0,0.0,0.0,0.0,0.0,0.0,0.0,0.0,0.0,0.0,0.0,0.0,0.0,0.0,0.0,0.0,0.0,0.0,0.0,0.0,0.0,0.0,0.0,0.0,0.0,0.0,0.0,0.0,0.0,0.0,-2.6319,-2.6627,-2.698,-2.7577,-2.8365,-2.7648,-2.7498,-2.7925,-2.6435,-2.5513,-2.5763,-2.4764,-2.4398,-2.4854,-2.4833,-2.438,-2.3655,-2.2692,-2.233,-2.2583,-2.3375,-2.5251,-2.8191,-2.9653,-3.1125,-3.2412,-3.2198,-3.2064,-3.1971,-3.1757,-3.1837,-3.2104,-3.2104,-3.1912,-3.1513,-3.1739,-3.1597,-3.1236,-3.1383,-3.1046,-3.0681,-0.7143,-0.7143,-0.7143,-0.7143,-0.7143,-0.7217,-0.7434,-0.7848,-0.8425,-0.9239,-1.0181,-1.1124,-1.2054,-1.261,-1.3132,-1.3675,-1.3526,-1.3424,-1.3492,-1.3132,-1.2935,-1.2969,-1.3403,-1.3899,-1.4434,-1.5031,-1.5499,-1.5825,-1.6185,-1.6408,-1.6497,-1.6646,-1.6714,-1.6714,-1.6646,-1.6524,-1.6341,-1.6069,-1.5798,-1.5493,-1.4713,-1.4102,-1.358,-1.2956,-1.2474,-1.2101,-1.1803,-1.1457,-1.1151,-1.1151,0.0,0.0,0.0,0.0,0.0,0.0,0.0,0.0,0.0,0.0,0.0,0.0,0.0,0.0,0.0,0.0,0.0,0.0,0.0,0.0,0.0,0.0,0.0,0.0,-2.6987,-2.7729,-2.797,-2.8142,-2.8199,-2.8513,-2.7702,-2.7037,-2.6979,-2.523,-2.402,-2.3575,-2.2645,-2.2189,-2.278,-2.2906,-2.317,-2.3365,-2.2974,-2.2974,-2.3561,-2.4556,-2.643,-2.8593,-3.0169,-3.1672,-3.2545,-3.2492,-3.2332,0.0,-3.1931,-3.1944,-3.2104,-3.1912,-3.1526,0.0,0.0,0.0,0.0,0.0,-3.0713,-2.9949,-0.7143,-0.7143,-0.7143,-0.7143,-0.7156,-0.7265,-0.7556,-0.8011,-0.8635,-0.9517,-1.0527,-1.145,-1.221,-1.2786,-1.3295,-1.3729,-1.3526,-1.3437,-1.3593,-1.3397,-1.3403,-1.3695,-1.4136,-1.459,-1.5059,-1.5601,-1.5967,-1.6157,-1.6558,-1.6761,-1.6781,-1.6917,-1.6978,-1.6978,-1.6836,-1.6768,-1.672,-1.6327,-1.613,-1.6035,-1.5499,-1.493,-1.4353,-1.3899,-1.3553,-1.3261,-1.2983,-1.2596,-1.2216,-1.2216,0.0,0.0,0.0,0.0,0.0,0.0,0.0,0.0,0.0,0.0,0.0,0.0,0.0,0.0,0.0,0.0,0.0,0.0,0.0,0.0,0.0,0.0,0.0,0.0,-2.8377,-2.9123,-2.9182,-2.9119,-2.877,-2.842,-2.7373,-2.6336,-2.5417,-2.3516,-2.2094,-2.1126,-2.032,-2.0021,-2.0629,0.0,0.0,0.0,0.0,-2.3756,-2.4341,-2.6515,-2.8203,-2.9189,-3.1317,-3.2458,-3.2599,-3.2866,-3.2679,-3.2144,-3.2118,-3.2104,-3.2104,-3.1526,-3.0947,-3.0341,-3.0715,-3.0536,-2.9937,-3.0331,-2.9554,-2.8404,-0.7163,-0.7143,-0.7143,-0.7143,-0.7244,-0.7387,-0.757,-0.818,-0.8899,-0.968,-1.0588,-1.145,-1.221,-1.2603,-1.2949,-1.3275,-1.3247,-1.3281,-1.3437,-1.3729,-1.398,-1.4163,-1.4604,-1.5106,-1.5669,-1.5913,-1.6232,-1.6619,-1.6707,-1.6815,-1.6937,-1.6965,-1.6978,-1.6978,-1.6951,-1.687,-1.6741,-1.6659,-1.6415,-1.6069,-1.5954,-1.5547,-1.4964,-1.4509,-1.4231,-1.4061,-1.3878,-1.3526,-1.3139,-1.3139,-1.284,-1.2447,-1.2291,-1.1932,0.0,0.0,0.0,0.0,0.0,0.0,0.0,0.0,0.0,0.0,0.0,0.0,0.0,0.0,0.0,0.0,0.0,0.0,0.0,-2.8457,-2.9085,-2.9508,-2.9769,-2.8955,-2.8144,-2.7581,-2.5962,-2.4567,-2.4186,-2.1902,-2.055,-2.0158,-1.9018,-1.8449,-1.9437,-2.0808,-2.2182,-2.3561,-2.4914,-2.6089,-2.7056,-2.8074,-2.9177,-3.0354,0.0,0.0,-3.2893,-3.2959,-3.2786,-3.2452,-3.2211,-3.2104,-3.2104,-3.1526,-2.9966,-2.8168,-2.8355,-2.8428,-2.82,-2.8392,-2.8008,-2.7249,-0.7387,-0.7366,-0.7366,-0.7366,-0.7434,-0.7536,-0.7685,-0.8214,-0.8866,-0.9618,-1.05,-1.1314,-1.1986,-1.2393,-1.2705,-1.2929,-1.3152,-1.3349,-1.3505,-1.4,-1.4394,-1.4624,-1.5133,-1.5588,-1.5961,-1.6259,-1.6524,-1.6748,-1.6829,-1.6904,-1.6978,-1.6978,-1.6978,-1.6978,-1.6978,-1.6937,-1.6863,-1.6781,-1.6578,-1.6286,-1.6144,-1.5859,-1.5466,-1.5018,-1.476,-1.4618,-1.4462,-1.4211,-1.3953,-1.3953,-1.3709,-1.3376,-1.322,-1.2861,-1.2413,0.0,0.0,0.0,0.0,0.0,0.0,0.0,0.0,0.0,0.0,0.0,0.0,0.0,0.0,-2.2537,0.0,0.0,-2.7643,-2.9158,-2.9713,-2.9782,-2.9267,-2.8234,-2.7389,-2.6679,-2.4661,-2.3033,-2.1977,-2.0021,-1.8647,-1.8441,-1.7466,-1.7268,-1.8449,-2.0021,-2.1594,-2.3561,-2.5701,-2.7249,-2.8212,-2.9307,-3.0152,-3.0741,-3.1894,-3.2563,-3.2772,-3.3066,-3.304,-3.2759,-3.2612,-3.2452,-3.2318,-3.0569,-2.8587,-2.6398,-2.5293,-2.5495,-2.626,-2.6851,-2.6465,-2.5895,-0.7638,-0.7665,-0.7665,-0.7611,-0.7624,-0.7678,-0.7794,-0.8221,-0.8777,-0.9476,-1.0297,-1.1036,-1.1599,-1.2033,-1.2386,-1.2623,-1.3057,-1.3417,-1.3654,-1.4251,-1.474,-1.5045,-1.5594,-1.5981,-1.6164,-1.6551,-1.6761,-1.6795,-1.6917,-1.6978,-1.6978,-1.7012,-1.7005,-1.6985,-1.7012,-1.7005,-1.6971,-1.6849,-1.6686,-1.6503,-1.6259,-1.6042,-1.5811,-1.5452,-1.5208,-1.5038,-1.4916,-1.4733,-1.4563,-1.459,-1.4401,-1.4136,-1.4007,-1.3702,-1.3466,-1.3331,-1.3187,0.0,0.0,0.0,0.0,0.0,0.0,0.0,0.0,0.0,-1.7423,-1.9085,-2.1116,-2.3561,-2.603,-2.7498,-2.8665,-2.9664,-3.0186,-2.9935,-2.846,-2.7553,-2.6669,-2.5495,-2.3461,-2.1585,-2.0021,-1.8449,-1.7466,-1.6871,-1.6474,-1.6672,-1.7863,-1.9429,-2.1388,-2.3561,-2.6089,-2.8019,-2.898,-3.0383,-3.0994,-3.1007,-3.1957,-3.243,-3.2456,-3.2974,-3.3054,-3.2775,-3.2722,-3.2366,-3.1764,-2.9393,-2.7202,-2.4808,-2.28,-2.2794,-2.4062,-2.5051,-2.5051,-2.4474,-0.7787,-0.7896,-0.7909,-0.7645,-0.7706,-0.7794,-0.7807,-0.8309,-0.8859,-0.9347,-0.9964,-1.0534,-1.0995,-1.1328,-1.1735,-1.2291,-1.2752,-1.3241,-1.3783,-1.4509,-1.5052,-1.535,-1.5805,-1.6185,-1.6469,-1.6653,-1.6815,-1.6951,-1.6971,-1.6978,-1.6985,-1.7107,-1.71,-1.6985,-1.7114,-1.71,-1.6978,-1.6965,-1.6788,-1.6517,-1.6483,-1.6225,-1.5845,-1.5798,-1.5601,-1.5357,-1.5343,-1.5065,-1.4733,-1.4875,-1.4719,-1.4462,-1.4441,-1.4319,-1.4256,-1.4133,-1.4244,-1.4388,-1.4532,-1.4696,-1.468,-1.4859,-1.4519,-1.4268,0.0,0.0,-1.6738,-1.8312,-2.0754,-2.351,-2.585,-2.7632,-2.9128,-3.029,-3.0447,-2.9999,-2.8715,-2.741,-2.5983,-2.3996,-2.2088,-2.062,-1.9429,-1.7855,-1.6864,-1.6864,-1.6864,-1.7261,-1.8259,-2.0808,-2.315,-2.5108,-2.7827,-2.9567,-3.0713,-3.1548,-3.1666,-3.1294,-3.1868,-3.1944,-3.156,-3.2268,-3.2455,-3.2181,-3.192,-3.1005,-2.9602,-2.8416,-2.6417,-2.3815,-2.2205,-2.137,-2.1133,-2.2132,-2.3136,-2.3747,-0.7943,-0.7997,-0.7997,-0.7875,-0.7902,-0.7943,-0.7943,-0.8303,-0.871,-0.9076,-0.9646,-1.0154,-1.0521,-1.09,-1.1301,-1.1728,-1.2332,-1.2983,-1.3675,-1.4502,-1.514,-1.5527,-1.5974,-1.6313,-1.6517,-1.6673,-1.6829,-1.6978,-1.6978,-1.6978,-1.6985,-1.7127,-1.7114,-1.6985,-1.7127,-1.7114,-1.6978,-1.6883,-1.672,-1.6517,-1.6429,-1.6232,-1.5988,-1.5988,-1.5805,-1.552,-1.5343,-1.5106,0.0,-1.4841,-1.4814,-1.478,-1.478,-1.474,-1.4798,-1.5477,-1.5809,-1.5973,-1.6441,-1.6229,0.0,0.0,-1.4988,-1.4757,-1.5291,-1.6258,-1.7612,-1.9332,-2.1771,-2.4301,-2.6887,-2.8533,-2.9505,0.0,-2.9962,-2.9301,-2.7627,-2.6179,-2.4513,-2.286,-2.0907,-1.9203,-1.8597,-1.7319,-1.6474,-1.6871,-1.7268,-1.7855,-1.9232,-2.1585,-2.3796,-2.6081,-2.8438,-3.0265,-3.1412,-3.2111,-3.2164,-3.1581,-3.1998,-3.1996,-3.1412,-3.2281,-3.2546,-3.2429,-3.1913,-3.0652,-2.8836,-2.7436,-2.5196,-2.2542,-2.0908,-2.0093,-2.0076,-2.1688,-2.2809,-2.3815,-0.8038,-0.8038,-0.8038,-0.8038,-0.8038,-0.8038,-0.8038,-0.8289,-0.8574,-0.8838,-0.932,-0.9768,-1.0114,-1.048,-1.0853,-1.1233,-1.1911,-1.2657,-1.3451,-1.4346,-1.5045,-1.5493,-1.5981,-1.6293,-1.6395,-1.6632,-1.6802,-1.6917,-1.6958,-1.6978,-1.6985,-1.7127,-1.7114,-1.6985,-1.7127,-1.7087,-1.691,-1.6795,-1.6639,-1.6456,-1.6347,-1.6218,-1.6076,-1.6035,-1.5832,-1.554,-1.5276,-1.5038,-1.4821,-1.4672,-1.4692,-1.4794,-1.4835,-1.4875,-1.5039,-1.6032,-1.68,-1.7379,-1.7852,-1.7586,0.0,-1.6235,-1.5682,-1.5403,-1.5772,-1.667,-1.8145,-1.9906,-2.2115,-2.4768,-2.7296,-2.8876,-2.9886,-3.009,-2.9554,-2.85,-2.6615,-2.5127,-2.363,-2.2186,-2.0276,-1.8769,-1.8112,-1.6964,-1.6474,-1.707,-1.7908,-1.9123,-2.069,-2.31,-2.5166,-2.7316,-2.9298,-3.0776,-3.1764,-3.2234,-3.2077,-3.1488,-3.1771,-3.1514,-3.1127,-3.1918,-3.241,-3.241,-3.1605,-3.0177,-2.7918,-2.6087,-2.4029,-2.1552,-1.9887,-1.9268,-1.9454,-2.1251,-2.2775,-2.3991,-0.8038,-0.8038,-0.8038,-0.8038,-0.8038,-0.8038,-0.8038,-0.8289,-0.854,-0.8696,-0.8981,-0.934,-0.9788,-0.9978,-1.0317,-1.0907,-1.1511,-1.223,-1.3125,-1.4027,-1.4726,-1.5174,-1.5771,-1.609,-1.6096,-1.6524,-1.6754,-1.6754,-1.691,-1.6978,-1.6985,-1.7127,-1.7114,-1.6985,-1.7127,-1.7032,-1.6754,-1.6754,-1.6585,-1.6313,-1.6313,-1.6218,-1.6069,-1.592,-1.5676,-1.5398,-1.5242,-1.4903,-1.4502,-1.436,-1.4319,-1.4346,-1.4482,-1.4624,-1.4901,-1.5643,-1.7073,-1.8541,-1.8548,-1.8275,-1.7842,-1.7245,-1.6487,-1.5825,-1.5825,-1.6501,-1.7604,-1.8737,-2.1477,-2.4438,-2.6591,-2.8752,-3.0115,-3.0128,-2.9363,-2.7909,-2.6027,-2.4666,-2.3203,-2.1599,-2.0384,-1.9509,0.0,-1.7562,-1.707,-1.7672,-1.941,-2.1098,-2.269,-2.545,-2.7764,-2.9369,-3.0954,-3.1764,-3.1751,-3.2038,-3.1586,-3.0602,-3.0875,-3.0809,-3.0202,-3.1416,-3.1819,-3.1819,-3.0797,-2.8959,-2.6713,-2.4647,-2.2581,-2.0937,-1.9268,-1.8641,-1.8843,-2.0496,-2.2554,-2.4422,-0.8038,-0.8038,-0.8038,-0.8038,-0.8038,-0.8038,-0.8038,-0.8289,-0.8499,-0.8554,-0.8994,0.0,0.0,0.0,0.0,0.0,-1.1192,-1.1877,-1.2678,-1.3566,-1.4265,-1.4719,-1.5316,-1.5683,-1.5784,-1.6029,-1.6252,-1.6456,-1.651,-1.6585,-1.668,-1.6829,-1.6822,-1.668,-1.6829,-1.6788,-1.6592,-1.6497,-1.6341,-1.6151,-1.6049,-1.592,-1.5771,-1.5615,-1.5377,-1.5059,0.0,-1.4346,-1.4197,-1.4048,-1.3994,-1.4021,-1.417,-1.4387,-1.4958,-1.6453,-1.8049,-1.9142,-1.8923,-1.8673,-1.8151,-1.712,-1.6369,-1.613,-1.6029,-1.6757,-1.7909,-1.9331,-2.1874,-2.4615,-2.7021,-2.8584,-2.9617,-2.9791,-2.8462,-2.6649,-2.5471,-2.3653,-2.2452,-2.2193,-2.116,0.0,0.0,0.0,0.0,-1.9419,-2.1072,-2.2945,-2.5074,-2.6959,-2.9069,-3.0838,-3.1247,-3.1547,-3.1726,-3.1628,-3.1076,-3.0258,-3.076,-3.1214,-3.1819,-3.2209,-3.2312,-3.1883,-3.0443,-2.8482,-2.6128,-2.3821,-2.172,-1.9615,-1.8756,-1.8265,-1.839,-1.9641,-2.1656,-2.4029,-0.8038,-0.8038,-0.8038,-0.8038,-0.8038,0.0,0.0,0.0,0.0,0.0,0.0,0.0,0.0,0.0,0.0,0.0,0.0,-1.1443,-1.2142,-1.2976,-1.3668,-1.4177,-1.4719,-1.5106,-1.5309,-1.5513,-1.5737,-1.5988,-1.6096,-1.6191,-1.6286,-1.6435,-1.6456,-1.6368,-1.6408,-1.6347,-1.6198,-1.6049,-1.59,-1.575,-1.5655,-1.556,-1.5452,-1.5248,-1.4991,0.0,-1.4048,-1.3763,-1.3668,-1.362,-1.3675,-1.3797,-1.4007,-1.4489,-1.5167,-1.678,-1.796,-1.8826,-1.8461,-1.8328,-1.8105,-1.699,-1.6564,-1.6286,-1.6185,-1.6921,-1.8061,-1.9429,-2.1977,-2.4699,-2.7033,-2.8669,-2.9574,-2.9347,-2.7686,-2.5879,-2.4376,-2.3086,-2.2223,-2.2287,-2.2123,-2.2213,0.0,0.0,0.0,-2.1595,-2.3469,-2.5367,-2.7115,-2.8814,-3.0354,-3.1926,-3.1939,-3.1628,-3.1201,-3.0607,-3.025,-3.0131,-3.0538,-3.1604,-3.2924,-3.2924,-3.2812,-3.2173,-3.0308,-2.8104,-2.5721,-2.2974,-2.0848,-1.8926,-1.828,-1.8002,-1.791,-1.9334,-2.0919,-2.3087,-0.8038,-0.8038,-0.8038,0.0,0.0,0.0,0.0,0.0,0.0,0.0,0.0,0.0,0.0,0.0,0.0,0.0,0.0,0.0,-1.1545,-1.2277,-1.2949,-1.3539,-1.4007,-1.4387,-1.4665,-1.4964,-1.5194,-1.5357,-1.5635,-1.5784,-1.5798,-1.5947,-1.6015,-1.6008,-1.5859,-1.5716,-1.5581,-1.5438,-1.5282,-1.5133,-1.5133,-1.5126,-1.5079,-1.4794,-1.4496,-1.4163,-1.358,-1.318,-1.2963,-1.3112,-1.3376,-1.3702,-1.4007,-1.4764,-1.5518,-1.6236,-1.677,-1.753,-1.7674,-1.7622,-1.7518,-1.7056,-1.6703,-1.6307,-1.63,-1.6985,-1.8061,-1.9042,-2.1781,-2.4504,0.0,0.0,-2.959,-2.8994,-2.7255,-2.5429,-2.3241,-2.2416,-2.2132,0.0,0.0,0.0,0.0,0.0,0.0,-2.4428,0.0,-2.8175,-2.9202,-3.0863,-3.2008,-3.2611,-3.2611,-3.1806,-3.0189,-2.9593,-2.953,-2.9789,-3.0394,-3.1763,-3.3472,-3.3472,-3.3266,-3.2464,-3.0361,-2.8059,-2.554,-2.2147,-2.0237,-1.8955,-1.7878,-1.7439,-1.7628,-1.9182,-2.0385,-2.182,0.0,0.0,0.0,0.0,0.0,0.0,0.0,0.0,0.0,0.0,0.0,0.0,0.0,0.0,0.0,0.0,0.0,0.0,-1.109,-1.1708,-1.223,-1.2617,-1.3275,-1.3668,-1.3743,-1.4034,-1.4312,-1.4584,-1.4658,-1.4808,-1.5025,-1.5065,-1.5086,-1.5079,-1.5045,-1.5004,-1.497,-1.493,-1.476,-1.4523,-1.4523,-1.4387,-1.4163,-1.398,-1.3722,-1.341,-1.3037,-1.2779,-1.2657,-1.2929,-1.3437,-1.4027,-1.4441,-1.5083,-1.5696,-1.6155,-1.6729,-1.7098,-1.6918,-1.7005,-1.7028,-1.6557,-1.6426,-1.6279,-1.6164,-1.6907,-1.8061,-1.9429,-2.1967,-2.4699,0.0,0.0,0.0,-2.8658,-2.6715,0.0,-2.3044,-2.2396,0.0,-2.3346,0.0,-2.6442,-2.7747,-2.8825,0.0,0.0,-2.925,-2.9864,-3.1089,-3.1969,-3.2611,-3.3213,-3.2008,-3.0797,-2.9569,-2.8335,-2.8561,-3.0047,-3.1085,-3.2376,-3.4103,-3.4103,-3.3382,-3.2115,-3.0411,-2.7962,-2.4919,-2.2326,-2.0381,-1.8629,-1.7964,-1.7684,-1.7589,-1.8409,-2.003,-2.1823,0.0,0.0,0.0,0.0,0.0,0.0,0.0,0.0,0.0,0.0,0.0,0.0,0.0,0.0,0.0,0.0,0.0,0.0,0.0,-1.1151,-1.1579,-1.1884,-1.2488,-1.2874,-1.3003,-1.3234,-1.3471,-1.3709,-1.3777,-1.3892,-1.4055,-1.4122,-1.415,-1.415,-1.4082,-1.4048,-1.4048,-1.3987,-1.3865,0.0,0.0,-1.3607,-1.3437,-1.3288,-1.3085,-1.284,-1.2542,-1.2508,-1.2678,-1.318,-1.3844,-1.4543,-1.4991,-1.5423,-1.5779,-1.6015,-1.63,-1.6544,-1.6504,-1.6474,-1.6585,-1.6103,-1.6144,-1.6185,-1.6103,-1.707,-1.8457,-1.9824,-2.2359,-2.5292,-2.7418,-2.862,0.0,0.0,0.0,0.0,-2.3287,-2.31,-2.3355,0.0,-2.645,0.0,-2.9567,-3.0689,-3.1641,0.0,-3.1252,-3.1428,-3.2209,-3.2611,-3.3013,-3.3414,-3.1819,-3.0047,-2.8096,-2.7119,-2.7773,-2.9874,-3.1155,-3.2483,-3.428,-3.428,-3.3313,-3.1553,0.0,-2.7329,-2.4418,-2.2025,-2.0073,-1.875,-1.8088,-1.7812,-1.7738,-1.8326,-1.9536,-2.1367,0.0,0.0,0.0,0.0,0.0,0.0,0.0,0.0,0.0,-0.9042,-0.8994,0.0,0.0,0.0,0.0,0.0,0.0,0.0,0.0,0.0,-1.0989,-1.1287,-1.1714,-1.2074,-1.2345,-1.2501,-1.2657,-1.2813,-1.2935,-1.3003,-1.303,-1.3159,-1.322,-1.322,-1.3085,-1.3037,-1.3044,-1.2922,-1.2874,-1.2874,-1.2874,-1.2861,-1.2827,0.0,-1.2542,-1.2379,-1.2149,-1.2352,-1.2847,-1.3614,-1.436,-1.5052,-1.552,-1.5764,-1.5913,-1.6069,-1.6001,-1.5913,-1.6042,-1.6083,-1.6083,-1.6083,-1.6083,-1.6083,-1.6083,-1.7268,-1.8845,-1.9824,-2.2955,-2.6067,-2.7611,-2.9007,-2.9676,-2.8753,0.0,-2.5368,-2.3779,-2.3964,-2.4688,-2.5513,-2.766,-2.9603,-3.0664,-3.1867,-3.2611,-3.2611,-3.265,-3.2676,-3.2676,-3.328,-3.3293,-3.3118,-3.1719,-2.9601,-2.6536,-2.6334,-2.7377,-2.9717,-3.0799,-3.2412,-3.4134,-3.4134,-3.2848,-3.0714,-2.8974,0.0,-2.3547,-2.1384,-1.986,-1.853,-1.8088,-1.786,-1.7846,-1.8382,-1.9191,-2.0473,0.0,0.0,0.0,0.0,0.0,0.0,0.0,0.0,0.0,0.0,-0.9273,-0.9123,0.0,0.0,0.0,0.0,0.0,0.0,0.0,0.0,0.0,-1.0826,-1.1145,-1.1402,-1.1579,-1.1735,-1.1884,-1.2026,-1.2054,-1.2128,-1.2257,-1.2284,-1.2298,-1.2291,-1.2264,-1.2325,-1.244,-1.242,-1.2406,-1.2406,-1.2406,-1.2332,-1.2216,-1.2189,0.0,0.0,-1.2033,-1.2352,-1.2861,-1.3736,-1.4448,-1.5072,-1.5635,-1.592,-1.6076,-1.6225,-1.6164,-1.6049,-1.6076,-1.6083,-1.6083,-1.6083,-1.6083,-1.6083,-1.6083,-1.7268,-1.8845,-2.0406,-2.315,-2.6078,-2.8008,-2.9599,-3.0066,-2.9344,-2.8015,-2.6627,-2.5194,-2.5267,-2.5816,0.0,-2.8883,-3.0677,-3.1516,0.0,0.0,0.0,0.0,-3.3598,-3.3598,-3.3801,-3.3298,-3.2081,-3.1048,-2.9515,-2.7653,-2.7281,-2.8048,-2.9991,-3.0644,-3.196,-3.371,-3.306,-3.1984,-3.0059,-2.8328,0.0,-2.2463,-2.1148,-1.9625,-1.8088,-1.7867,-1.786,-1.786,-1.8053,-1.8935,-2.067,0.0,0.0,0.0,0.0,0.0,0.0,0.0,-0.9591,-0.9869,-0.9951,-0.9829,-0.9618,-0.9306,-0.9198,-0.9184,0.0,0.0,0.0,0.0,0.0,0.0,-1.048,-1.0772,-1.1002,-1.1158,-1.1307,-1.1416,-1.1484,0.0,-1.1525,-1.1592,-1.1592,-1.1592,-1.1592,-1.1592,-1.1633,-1.1701,-1.1701,-1.1748,-1.1823,-1.1823,-1.1823,-1.183,-1.183,0.0,0.0,-1.2006,-1.24,-1.2949,-1.362,-1.4292,-1.4997,-1.5832,-1.6144,-1.6232,-1.6374,-1.6259,-1.6083,-1.6083,-1.6083,-1.6083,-1.6083,-1.6083,-1.6083,-1.6083,-1.7466,-1.9207,-2.0285,-2.3645,-2.6806,-2.8224,-2.9579,-3.0484,-2.991,-2.8696,-2.7504,-2.6659,-2.6617,-2.7003,-2.7725,-2.9665,-3.1064,0.0,-3.2812,0.0,0.0,0.0,-3.3881,-3.3881,-3.4028,-3.3341,-3.1817,-3.1119,-2.999,-2.842,-2.8124,-2.8671,-3.0059,-3.0274,-3.1142,-3.2635,-3.1996,-3.0691,-2.8759,-2.6806,0.0,-2.1156,-2.0073,-1.8964,-1.786,-1.786,-1.786,-1.786,-1.786,-1.853,-1.9838,0.0,0.0,0.0,0.0,0.0,0.0,-0.9401,-0.9883,-1.0263,-1.0446,-1.0466,-1.0263,-0.9727,-0.9388,-0.9205,0.0,0.0,0.0,0.0,0.0,0.0,0.0,0.0,0.0,0.0,0.0,0.0,0.0,-1.107,0.0,0.0,0.0,0.0,0.0,-1.107,-1.1084,-1.1118,-1.1118,-1.1206,0.0,0.0,-1.1463,0.0,0.0,0.0,0.0,0.0,-1.2406,-1.2935,-1.3417,-1.4034,-1.4767,-1.5757,-1.6137,-1.6246,-1.6422,-1.6286,-1.6083,-1.6083,-1.6083,-1.6083,-1.6083,-1.6083,-1.6083,-1.6083,-1.7635,-1.9339,-2.0164,-2.3922,-2.7279,-2.8044,-2.976,-3.0881,-3.0399,-2.9541,-2.8755,-2.8212,-2.8122,-2.8359,-2.8767,-3.0189,0.0,-3.1819,-3.2812,0.0,0.0,0.0,0.0,-3.4068,-3.4349,-3.3875,-3.2408,-3.1991,-3.1034,-2.9774,-2.9123,-2.9211,-3.0274,-3.0059,-3.0488,-3.1569,-3.0928,-2.963,-2.767,-2.5723,0.0,0.0,-1.9405,-1.853,-1.786,-1.786,-1.786,-1.786,-1.786,-1.8316,-1.8964,0.0,0.0,0.0,0.0,0.0,0.0,-0.9693,-1.0276,-1.0758,-1.1043,-1.1084,-1.0955,-1.0629,-0.9856,-0.9361,0.0,0.0,0.0,0.0,0.0,0.0,0.0,0.0,0.0,0.0,0.0,0.0,0.0,0.0,0.0,0.0,0.0,0.0,0.0,0.0,-1.0839,-1.0968,-1.0968,0.0,0.0,0.0,0.0,0.0,0.0,0.0,0.0,0.0,-1.2271,-1.2637,-1.322,-1.3736,-1.4265,-1.5045,-1.5567,-1.5954,-1.6246,-1.6212,-1.6083,-1.6083,-1.6083,-1.6083,-1.6083,-1.6083,-1.6083,-1.6083,-1.7545,-1.9191,-2.0139,-2.3799,-2.7071,-2.8008,-3.0139,-3.158,-3.132,-3.0814,-3.049,-2.9791,-2.9831,-2.9784,-2.9389,0.0,0.0,-3.1819,-3.2812,0.0,0.0,0.0,0.0,-3.4683,-3.4963,-3.49,-3.4056,-3.3633,-3.301,-3.2373,-3.0691,-3.0274,-3.0714,-2.9856,-2.9856,-3.0928,-3.0511,-2.9426,-2.8113,-2.6383,0.0,0.0,-2.0065,-1.8964,-1.786,-1.786,-1.786,-1.786,-1.786,-1.8316,-1.8978,0.0,0.0,0.0,0.0,0.0,0.0,-0.9734,-1.0331,-1.0826,-1.1124,-1.1246,-1.1185,-1.0894,-1.0297,-0.9774,-0.9415,0.0,0.0,0.0,0.0,0.0,0.0,0.0,0.0,0.0,0.0,0.0,-1.0717,0.0,0.0,0.0,0.0,0.0,0.0,0.0,0.0,-1.0812,-1.0812,0.0,0.0,0.0,0.0,0.0,0.0,0.0,0.0,0.0,0.0,-1.2705,-1.3125,-1.3505,-1.3919,-1.457,-1.5031,-1.5432,-1.6008,-1.613,-1.6083,-1.6083,-1.6083,-1.6083,-1.6083,-1.6083,-1.6083,-1.6083,-1.7538,-1.9142,-1.9975,-2.3575,-2.6816,-2.7769,-2.9871,-3.1367,-3.1255,-3.1374,-3.1266,-3.0765,-3.0637,-3.0607,-3.0404,-3.1012,0.0,0.0,0.0,0.0,0.0,0.0,0.0,-3.5017,-3.5137,-3.498,-3.4346,-3.4121,-3.3697,-3.306,-3.1771,-3.113,-3.0928,-2.9641,-2.9641,-3.0297,-2.9856,-2.8985,-2.7681,-2.5949,0.0,0.0,-1.9632,-1.853,-1.786,-1.786,-1.786,-1.786,-1.786,-1.8088,-1.8522,0.0,0.0,0.0,0.0,0.0,-0.9083,-0.9727,-1.0297,-1.0778,-1.1118,-1.1294,-1.128,-1.0982,-1.0548,-1.0059,-0.9496,-0.9306,0.0,0.0,0.0,0.0,0.0,0.0,0.0,0.0,0.0,-1.0785,-1.0785,-1.0833,-1.0853,0.0,0.0,0.0,0.0,0.0,0.0,0.0,0.0,0.0,0.0,0.0,0.0,0.0,0.0,0.0,0.0,0.0,0.0,0.0,0.0,0.0,-1.3587,-1.4136,-1.4584,-1.5038,-1.5744,-1.5981,-1.6022,-1.6069,-1.6083,-1.6083,-1.6083,-1.6083,-1.6083,-1.6083,-1.7304,-1.8858,-1.9863,-2.3203,-2.6199,-2.7589,-2.9517,-3.1046,-3.1435,-3.1763,-3.1855,-3.1758,-3.1441,-3.1214,-3.1012,0.0,0.0,0.0,0.0,0.0,0.0,0.0,0.0,-3.5191,-3.5191,-3.498,-3.4557,-3.4557,-3.4346,-3.3922,-3.2635,-3.1771,-3.1356,-3.0071,-2.9856,-3.0511,-3.0071,-2.92,-2.8113,-2.6373,0.0,0.0,-1.986,-1.8964,-1.8302,-1.8316,-1.8302,-1.8302,-1.8095,-1.8095,-1.8302,0.0,0.0,0.0,0.0,0.0,0.0,-0.9707,-1.0202,-1.0656,-1.1104,-1.1294,-1.128,-1.0982,-1.0548,-1.01,-0.9646,-0.9469,0.0,0.0,0.0,0.0,0.0,0.0,0.0,0.0,0.0,-1.0948,-1.0948,-1.109,-1.1158,-1.1158,-1.1016,-1.0948,0.0,0.0,0.0,0.0,0.0,0.0,0.0,0.0,0.0,-1.1619,0.0,0.0,0.0,0.0,0.0,0.0,0.0,0.0,0.0,0.0,-1.4258,-1.4862,-1.5466,-1.5744,-1.5886,-1.6042,-1.6083,-1.6083,-1.6083,-1.6083,-1.6083,-1.6083,-1.702,-1.8328,-1.9837,-2.2507,-2.5228,-2.7553,-2.9343,-3.087,-3.2011,-3.2358,-3.2456,-3.2155,-3.2042,-3.1617,0.0,0.0,0.0,0.0,0.0,0.0,0.0,0.0,0.0,-3.5191,-3.5191,-3.5191,-3.5191,-3.5191,-3.5191,-3.5191,-3.3485,-3.2623,-3.2623,-3.0928,-3.0726,-3.1783,-3.1142,-3.05,0.0,0.0,0.0,0.0,-2.1156,-2.0073,-1.9625,-1.8964,-1.8971,-1.9405,-1.8985,-1.8757,-1.8757,0.0,0.0,0.0,0.0,0.0,0.0,-0.9591,-0.9971,-1.031,-1.0656,-1.0839,-1.0853,-1.0656,-1.0331,-0.9985,-0.9639,-0.9374,0.0,0.0,0.0,0.0,0.0,0.0,0.0,0.0,-1.0867,-1.0995,-1.1097,-1.1246,-1.1321,-1.1314,-1.1274,-1.1145,-1.0948,-1.09,0.0,0.0,0.0,0.0,0.0,0.0,-1.1389,-1.1619,0.0,0.0,0.0,0.0,0.0,0.0,0.0,0.0,0.0,0.0,0.0,0.0,-1.4882,-1.5418,-1.5886,-1.6042,-1.6083,-1.6083,-1.6083,-1.6083,-1.6083,-1.6083,-1.702,-1.832,-1.9463,-2.2014,-2.4844,-2.6958,-2.8992,-3.0621,-3.1971,-3.2358,-3.2652,-3.2735,-3.2242,-3.1819,-3.1617,-3.1617,-3.1693,0.0,0.0,0.0,0.0,0.0,0.0,-3.5191,-3.5191,-3.5191,-3.5191,-3.5191,-3.5191,-3.5191,-3.4332,-3.3485,-3.326,-3.2197,-3.1984,-3.241,-3.1771,-3.1142,0.0,0.0,0.0,0.0,-2.1384,-2.0073,-1.9632,-1.9405,-1.9632,-2.0293,-2.0065,-1.9632,-1.9419,0.0,0.0,0.0,0.0,0.0,0.0,-0.9374,-0.9693,-0.9951,-1.0134,-1.0337,-1.0392,-1.0181,-0.9992,-0.9761,-0.9462,-0.9266,0.0,0.0,0.0,0.0,0.0,0.0,0.0,-1.0629,-1.0839,-1.105,-1.1246,-1.1457,-1.1586,-1.164,-1.1531,-1.1375,-1.1192,-1.1023,-1.0894,0.0,0.0,0.0,0.0,-1.1287,-1.145,-1.1619,0.0,0.0,0.0,0.0,0.0,0.0,0.0,0.0,0.0,0.0,0.0,0.0,0.0,-1.5099,-1.5655,-1.592,-1.5995,-1.6008,-1.6069,-1.6083,-1.6069,-1.6008,-1.6781,-1.7728,-1.8996,-2.117,-2.3836,-2.6386,-2.8172,-2.9794,-3.1333,-3.2036,-3.2496,-3.2895,-3.2507,-3.2008,-3.1819,0.0,0.0,0.0,0.0,0.0,0.0,0.0,0.0,-3.5191,-3.5191,-3.5191,-3.5191,-3.5191,-3.5191,-3.5191,-3.4557,-3.4121,-3.3697,-3.3273,-3.306,-3.3273,-3.2635,-3.2209,0.0,0.0,0.0,0.0,-2.29,-2.1384,-2.0945,-2.0733,-2.1172,-2.1823,-2.1612,-2.1172,-2.0513,0.0,0.0,0.0,0.0,0.0,0.0,0.0,-0.9395,-0.9585,-0.9591,-0.9829,-0.9897,-0.9625,-0.9585,-0.9462,-0.9178,0.0,0.0,0.0,0.0,0.0,0.0,0.0,0.0,-1.0487,-1.0792,-1.1097,-1.1409,-1.1701,-1.1932,-1.2088,-1.1803,-1.1653,-1.1613,-1.1179,-1.0962,-1.0941,0.0,0.0,0.0,-1.1484,-1.1606,0.0,0.0,0.0,0.0,0.0,0.0,0.0,0.0,0.0,0.0,0.0,0.0,0.0,0.0,0.0,0.0,0.0,-1.5825,-1.5886,-1.6029,-1.6069,-1.6029,-1.5886,-1.6119,0.0,-1.8658,-2.0153,-2.2172,-2.5638,-2.7251,-2.8552,-3.0606,-3.1385,-3.1972,-3.2559,-3.2663,-3.2475,0.0,-3.2708,0.0,0.0,0.0,0.0,0.0,0.0,0.0,-3.5191,-3.5191,-3.5191,-3.5191,-3.5191,-3.5191,-3.5191,-3.4557,-3.4346,-3.4346,-3.3922,-3.3922,-3.4346,-3.371,-3.3485,0.0,0.0,0.0,0.0,-2.5071,-2.3774,-2.3128,-2.269,-2.3137,-2.401,-2.3565,-2.2909,-2.2261,0.0,0.0,0.0,0.0,0.0,0.0,0.0,0.0,0.0,0.0,-0.9496,-0.951,-0.9442,-0.9334,-0.9232,0.0,0.0,0.0,0.0,0.0,0.0,0.0,0.0,0.0,-1.0487,-1.0792,-1.1151,-1.1565,-1.1864,-1.2142,-1.2393,-1.2216,-1.2006,-1.1769,-1.1436,-1.1097,-1.0785,-1.0934,0.0,0.0,-1.1369,-1.1511,0.0,0.0,0.0,0.0,-1.206,-1.225,0.0,0.0,0.0,0.0,0.0,0.0,0.0,0.0,-1.4407,-1.4767,-1.5215,0.0,-1.5859,-1.59,-1.5906,-1.59,0.0,-1.6036,-1.6781,-1.8263,-1.9967,-2.1986,-2.5263,-2.7063,-2.8552,-3.0606,-3.1385,-3.2051,-3.2833,-3.3133,-3.3058,-3.2455,-3.3123,0.0,0.0,0.0,0.0,0.0,0.0,-3.5191,-3.5191,-3.5191,-3.5191,-3.5191,-3.5191,-3.5191,-3.5191,-3.498,-3.498,-3.498,-3.4768,-3.4768,-3.498,-3.4346,-3.4134,0.0,0.0,0.0,-2.8533,-2.5723,-2.4428,-2.3801,-2.3574,-2.4219,-2.5298,-2.5742,-2.5081,-2.421,0.0,0.0,0.0,0.0,0.0,0.0,0.0,0.0,0.0,0.0,-0.9581,-0.9595,-0.9412,-0.9328,0.0,0.0,0.0,0.0,0.0,0.0,0.0,0.0,0.0,-1.0154,-1.0392,-1.0758,-1.1172,-1.1619,-1.1986,-1.2318,-1.2603,-1.2454,-1.2264,-1.202,-1.1511,-1.1111,-1.0833,-1.0982,-1.1131,-1.128,-1.1436,0.0,0.0,0.0,0.0,0.0,-1.206,-1.2298,0.0,-1.2705,-1.2874,-1.3085,0.0,0.0,0.0,0.0,-1.4333,-1.4685,-1.4997,-1.5309,-1.5581,-1.5716,-1.5757,-1.5737,-1.5662,-1.5719,-1.6145,-1.7585,-1.9236,-2.117,-2.4156,-2.6118,-2.7674,-2.9653,-3.07,-3.1624,-3.2531,-3.3097,-3.3433,-3.2892,-3.3524,0.0,0.0,0.0,0.0,0.0,0.0,-3.5191,-3.5191,-3.5191,-3.5191,-3.5191,-3.5191,-3.5191,-3.5191,-3.5191,-3.5191,-3.5191,-3.5191,-3.5191,-3.5191,-3.4768,-3.4768,0.0,0.0,0.0,-3.0262,-2.7886,-2.6383,-2.5525,-2.5525,-2.6393,-2.7465,-2.7897,-2.7681,-2.659,0.0,0.0,0.0,0.0,0.0,0.0,0.0,0.0,0.0,0.0,0.0,0.0,0.0,0.0,0.0,0.0,0.0,0.0,0.0,0.0,0.0,0.0,-0.9978,-1.0141,-1.0344,-1.0765,-1.1212,-1.1687,-1.2135,-1.2522,-1.2827,-1.2678,-1.2467,-1.2189,-1.1477,-1.1084,-1.0955,-1.1104,-1.1253,-1.1402,-1.1558,0.0,0.0,0.0,0.0,0.0,0.0,0.0,0.0,-1.2786,-1.2976,-1.3234,-1.339,0.0,0.0,0.0,0.0,0.0,-1.5135,-1.5279,-1.5451,-1.5588,-1.5669,-1.5635,-1.5506,-1.5459,-1.5792,-1.7162,-1.8371,-2.0043,-2.2964,-2.5046,-2.6838,-2.8369,-2.9755,-3.095,-3.2022,-3.2956,-3.3266,-3.3224,-3.4003,0.0,0.0,0.0,0.0,0.0,0.0,-3.5191,-3.5191,-3.5191,-3.5191,-3.5191,-3.5191,-3.5191,-3.5191,-3.5191,-3.5191,-3.5191,-3.5191,-3.5191,-3.5191,-3.5191,-3.5191,-3.5191,0.0,0.0,-3.1984,-3.0262,-2.8759,-2.7918,-2.7702,-2.8565,-2.963,-3.0059,-3.0048,-2.9178,0.0,0.0,0.0,0.0,0.0,0.0,0.0,0.0,0.0,0.0,0.0,0.0,0.0,0.0,0.0,0.0,0.0,0.0,0.0,0.0,0.0,-1.0012,-1.0039,-1.0236,-1.0643,-1.0968,-1.1416,-1.1993,-1.244,-1.2881,-1.3295,-1.3139,-1.2651,-1.1877,-1.1382,-1.1084,-1.0955,-1.1104,-1.1253,-1.1402,-1.1558,0.0,0.0,0.0,0.0,0.0,0.0,0.0,0.0,-1.3024,-1.322,-1.339,-1.3546,0.0,0.0,0.0,0.0,0.0,-1.5789,-1.6104,-1.6416,-1.5911,-1.5818,-1.5811,-1.5791,-1.5689,-1.598,-1.749,-1.8639,-2.0289,-2.3391,-2.526,-2.6699,-2.8015,-2.9314,-3.0622,-3.1743,0.0,-3.3198,-3.3798,0.0,0.0,0.0,0.0,0.0,0.0,0.0,-3.5191,-3.5191,-3.5191,-3.5191,-3.5191,-3.5191,-3.5191,-3.5191,-3.5191,-3.5191,-3.5191,-3.5191,-3.5191,-3.5191,-3.5191,-3.5191,-3.5191,0.0,-3.3909,-3.3048,-3.1344,-3.0274,-2.963,-2.92,-2.9641,-3.0714,-3.1356,-3.1142,-3.0274,0.0,0.0,0.0,0.0,0.0,0.0,0.0,0.0,0.0,0.0,0.0,0.0,0.0,0.0,0.0,0.0,0.0,0.0,0.0,0.0,0.0,-1.0283,-1.0446,-1.0629,-1.0839,-1.1287,-1.1775,-1.2298,-1.2834,-1.3281,-1.3634,-1.3315,-1.2691,-1.1816,-1.145,-1.1206,-1.107,-1.1131,-1.1301,-1.1518,0.0,0.0,0.0,0.0,0.0,0.0,0.0,0.0,0.0,0.0,-1.3275,-1.3444,-1.3675,0.0,0.0,0.0,0.0,0.0,-1.6314,-1.6882,-1.7429,-1.7253,-1.6636,-1.6119,-1.6119,-1.5877,-1.5828,-1.6787,-1.8083,-1.9623,-2.1958,-2.4037,-2.6072,-2.7884,-2.8894,-2.9792,-3.0338,-3.15,0.0,0.0,0.0,0.0,0.0,0.0,0.0,0.0,0.0,0.0,-3.5191,-3.5191,-3.5191,-3.5191,-3.5191,-3.5191,-3.5191,-3.5191,-3.5191,-3.5191,-3.5191,-3.5191,-3.5191,-3.5191,-3.5191,-3.5191,0.0,-3.4557,-3.3909,-3.2835,-3.1984,-3.1344,-3.113,-3.1557,-3.241,-3.2848,-3.2422,-3.1142,0.0,0.0,0.0,0.0,0.0,0.0,0.0,0.0,0.0,0.0,0.0,0.0,0.0,0.0,0.0,0.0,0.0,0.0,0.0,0.0,-1.0181,-1.048,-1.0853,-1.1084,-1.1151,-1.1701,-1.2223,-1.2712,-1.3281,-1.3675,-1.3885,-1.3437,-1.2766,-1.1925,-1.1592,-1.1362,-1.1212,-1.1212,-1.1369,-1.1619,0.0,0.0,0.0,0.0,0.0,0.0,0.0,0.0,0.0,0.0,0.0,0.0,0.0,0.0,0.0,-1.4441,-1.5007,-1.5927,-1.6981,-1.7818,-1.8407,-1.871,-1.7667,-1.6753,-1.6515,-1.6182,-1.6028,-1.6384,-1.7575,-1.898,-2.0604,-2.303,-2.5553,-2.735,-2.808,0.0,0.0,0.0,0.0,0.0,0.0,0.0,0.0,0.0,0.0,0.0,0.0,0.0,-3.5191,-3.5191,-3.5191,-3.5191,-3.5191,-3.5191,-3.5191,-3.5191,-3.5191,-3.5191,-3.5191,-3.5191,-3.5191,-3.5191,-3.5191,-3.5191,-3.5191,-3.498,-3.4557,-3.3909,-3.3472,-3.3048,-3.2835,-3.326,-3.3697,-3.4134,-3.3485,-3.2197,0.0,0.0,0.0,0.0,0.0,0.0,0.0,0.0,0.0,0.0,0.0,0.0,0.0,0.0,0.0,0.0,0.0,0.0,0.0,0.0,-1.0181,-1.048,-1.105,-1.1491,-1.1762,-1.2216,-1.2745,-1.3336,-1.3797,-1.4034,-1.4048,-1.3593,-1.2983,-1.2237,-1.1803,-1.1518,-1.1375,-1.1375,-1.147,-1.1619,-1.1619,0.0,0.0,0.0,0.0,0.0,0.0,0.0,0.0,0.0,0.0,0.0,0.0,0.0,-1.4326,-1.4631,-1.5454,-1.6301,-1.7358,-1.8574,-1.9338,-1.9531,-1.8631,-1.7614,-1.7062,-1.6661,-1.6618,-1.6883,-1.7993,-1.9378,-2.0569,-2.283,-2.4863,-2.6139,-2.6534,0.0,0.0,0.0,0.0,0.0,0.0,0.0,0.0,0.0,0.0,0.0,0.0,0.0,-3.5191,-3.5191,-3.5191,-3.5191,-3.5191,-3.5191,-3.5191,-3.5191,-3.5191,-3.5191,-3.5191,-3.5191,-3.5191,-3.5191,-3.5191,-3.5191,-3.5191,-3.5191,-3.498,-3.4557,-3.4134,-3.4134,-3.371,-3.371,-3.4346,-3.4346,-3.3909,-3.326,0.0,0.0,0.0,0.0,0.0,0.0,0.0,0.0,0.0,0.0,0.0,0.0,0.0,0.0,0.0,0.0,0.0,0.0,0.0,-0.9741,-1.008,-1.0473,-1.0982,-1.1525,-1.2101,-1.2556,-1.3078,-1.3675,-1.4217,-1.4394,-1.4204,-1.3756,-1.3098,-1.2277,-1.1911,-1.1613,-1.1389,-1.1389,-1.1477,-1.1619,-1.1619,-1.1619,0.0,0.0,0.0,0.0,0.0,0.0,0.0,0.0,-1.3539,-1.3722,-1.381,-1.3987,-1.4238,-1.4624,-1.554,-1.6642,-1.8081,-1.9321,-2.0289,-2.0277,-1.9726,-1.866,-1.7702,-1.6841,-1.6374,-1.6522,-1.7305,-1.8762,-2.0588,-2.2338,-2.3879,-2.5052,-2.5872,0.0,0.0,0.0,0.0,0.0,0.0,0.0,0.0,0.0,0.0,0.0,0.0,0.0,-3.4557,-3.498,-3.5191,-3.5191,-3.5191,-3.5191,-3.5191,-3.5191,-3.5191,-3.5191,-3.5191,-3.5191,-3.5191,-3.5191,-3.5191,-3.5191,-3.5191,-3.5191,-3.5191,-3.498,-3.4768,-3.4768,-3.4557,-3.4768,-3.4768,-3.4768,-3.4557,-3.3909,0.0,0.0,0.0,0.0,0.0,0.0,0.0,0.0,0.0,0.0,0.0,0.0,0.0,0.0,0.0,0.0,0.0,0.0,-0.9449,-0.9639,-0.9971,-1.0473,-1.0921,-1.1497,-1.2203,-1.2705,-1.3275,-1.3912,-1.4421,-1.4516,-1.4217,-1.377,-1.3152,-1.2413,-1.2115,-1.1837,-1.1599,-1.1552,-1.1592,-1.1681,-1.164,-1.1619,0.0,0.0,0.0,0.0,0.0,0.0,0.0,0.0,-1.3532,-1.3709,-1.381,-1.4014,-1.4278,-1.4638,-1.5611,-1.6793,-1.8319,-1.9615,-2.0667,-2.079,-2.0215,-1.9364,-1.8044,-1.7149,-1.6449,-1.6449,-1.7058,-1.8299,-2.0496,-2.1561,-2.2644,0.0,0.0,0.0,0.0,0.0,0.0,0.0,0.0,0.0,0.0,0.0,0.0,0.0,0.0,0.0,0.0,-3.4768,-3.5191,-3.5191,-3.5191,-3.5191,-3.5191,-3.5191,-3.5191,-3.5191,-3.5191,-3.5191,-3.5191,-3.5191,-3.5191,-3.5191,-3.5191,-3.5191,-3.5191,-3.5191,-3.5191,-3.5191,-3.5191,-3.5191,-3.5191,-3.5191,-3.498,-3.4557,0.0,0.0,0.0,0.0,0.0,0.0,0.0,0.0,0.0,0.0,0.0,0.0,0.0,0.0,0.0,0.0,0.0,0.0,-0.9591,-0.9612,-0.9869,-1.0466,-1.0921,-1.1443,-1.2047,-1.2651,-1.3329,-1.4068,-1.436,-1.4353,-1.4055,-1.3607,-1.3159,-1.2718,-1.2427,-1.221,-1.2054,-1.1898,-1.183,-1.1823,-1.1681,-1.1619,-1.1619,0.0,0.0,0.0,0.0,0.0,0.0,0.0,-1.3593,-1.3838,-1.3838,-1.415,-1.4536,-1.4699,-1.5689,-1.6906,-1.8206,-1.9606,-2.0834,-2.0826,-2.0308,-1.9565,-1.836,-1.7462,-1.6748,-1.6754,-1.7287,-1.823,-1.9903,-2.032,0.0,0.0,0.0,0.0,0.0,0.0,0.0,0.0,0.0,0.0,0.0,0.0,0.0,0.0,0.0,0.0,0.0,-3.4768,-3.5191,-3.5191,-3.5191,-3.5191,-3.5191,-3.5191,-3.5191,-3.5191,-3.5191,-3.5191,-3.5191,-3.5191,-3.5191,-3.5191,-3.5191,-3.5191,-3.5191,-3.5191,-3.5191,-3.5191,-3.5191,-3.5191,-3.5191,-3.5191,-3.5191,-3.5191,0.0,0.0,0.0,0.0,0.0,0.0,0.0,0.0,0.0,0.0,0.0,0.0,0.0,0.0,0.0,0.0,0.0,0.0,-0.9605,-0.9612,-0.9829,-1.0324,-1.067,-1.1179,-1.1884,-1.2691,-1.3376,-1.3912,-1.3994,-1.3946,-1.3756,-1.3403,-1.3119,-1.2881,-1.2576,-1.2359,-1.221,-1.206,-1.1993,-1.1979,-1.183,-1.1769,-1.1755,0.0,0.0,0.0,0.0,0.0,0.0,0.0,0.0,0.0,-1.381,-1.4082,-1.4434,-1.4794,-1.604,-1.7884,-1.927,-2.0987,-2.2255,-2.2394,-2.1309,-2.0207,-1.9119,-1.7747,-1.6781,-1.689,-1.7161,-1.7601,-1.885,-1.9694,0.0,0.0,0.0,0.0,0.0,0.0,0.0,0.0,0.0,0.0,0.0,0.0,0.0,0.0,0.0,0.0,0.0,-3.4121,-3.4768,-3.5191,-3.5191,-3.5191,-3.5191,-3.5191,-3.5191,-3.5191,-3.5191,-3.5191,-3.5191,-3.5191,-3.5191,-3.5191,-3.5191,-3.5191,-3.5191,-3.5191,-3.5191,-3.5191,-3.5191,-3.5191,-3.5191,-3.5191,-3.5191,-3.5191,0.0,0.0,0.0,0.0,0.0,0.0,0.0,0.0,0.0,0.0,-1.0296,-1.056,0.0,0.0,0.0,0.0,0.0,0.0,-0.9693,-0.9693,-0.9897,-1.0344,-1.0649,-1.1158,-1.1904,-1.2569,-1.301,-1.3227,-1.3458,-1.3532,-1.3444,-1.3261,-1.3159,-1.3125,-1.2874,-1.2718,-1.2623,-1.2352,-1.2237,-1.2216,-1.2006,-1.1884,-1.1823,0.0,0.0,0.0,0.0,0.0,0.0,0.0,0.0,0.0,-1.3797,-1.427,-1.4819,-1.5222,-1.6718,-1.8456,-1.9894,-2.1217,-2.2478,-2.2489,-2.1572,-2.0011,-1.8684,-1.746,-1.687,-1.6965,-1.7026,-1.7482,-1.8528,-1.9376,0.0,0.0,0.0,0.0,0.0,0.0,0.0,0.0,0.0,0.0,0.0,0.0,0.0,0.0,0.0,0.0,0.0,-3.3485,-3.4557,-3.5191,-3.5191,-3.5191,-3.5191,-3.5191,-3.5191,-3.5191,-3.5191,-3.5191,-3.5191,-3.5191,-3.5191,-3.5191,-3.5191,-3.5191,-3.5191,-3.5191,-3.5191,-3.5191,-3.5191,-3.5191,-3.5191,-3.5191,-3.5191,-3.5191,0.0,0.0,0.0,0.0,0.0,0.0,0.0,0.0,0.0,-1.0207,-1.0308,-1.06,0.0,0.0,0.0,-1.0778,-1.006,-0.9686,-0.9815,-0.9836,-1.0039,-1.0473,-1.0826,-1.1335,-1.2026,-1.2318,-1.2393,-1.225,-1.2813,-1.3105,-1.3132,-1.3146,-1.3247,-1.3417,-1.3261,-1.3193,-1.3166,-1.2725,-1.2542,-1.2515,-1.2223,-1.2013,-1.187,-1.1843,0.0,0.0,0.0,0.0,0.0,0.0,0.0,0.0,-1.379,-1.4493,-1.5284,-1.5625,-1.7185,-1.9011,-1.997,-2.1133,-2.2084,-2.1883,-2.1027,-1.9694,-1.7398,-1.6992,-1.6998,-1.6998,-1.71,-1.7621,-1.8697,-1.8917,0.0,0.0,0.0,0.0,0.0,0.0,0.0,0.0,0.0,0.0,0.0,0.0,0.0,0.0,0.0,0.0,0.0,-3.3273,-3.4346,-3.5191,-3.5191,-3.5191,-3.5191,-3.5191,-3.5191,-3.5191,-3.5191,-3.5191,-3.5191,-3.5191,-3.5191,-3.5191,-3.5191,-3.5191,-3.5191,-3.5191,-3.5191,-3.5191,-3.5191,-3.5191,-3.5191,-3.5191,-3.5191,-3.5191,0.0,0.0,0.0,0.0,0.0,0.0,0.0,0.0,-0.9676,-1.003,-0.9916,-1.0135,-1.065,-1.0317,0.0,-1.0415,-1.003,-0.9788,-0.9822,-0.993,-1.0148,-1.048,-1.1124,-1.1599,-1.1877,-1.2359,-1.2529,-1.2374,-1.245,-1.2596,-1.2827,-1.2949,-1.3214,-1.3573,-1.3417,-1.3349,-1.3329,-1.3003,-1.2861,-1.2834,-1.2528,-1.2318,-1.2162,-1.1925,-1.1925,0.0,0.0,0.0,0.0,0.0,0.0,0.0,-1.3756,-1.4416,-1.5155,-1.5725,-1.736,-1.9224,-2.0117,-2.1441,-2.2496,-2.2491,-2.1111,-1.9268,-1.7398,-1.7066,-1.7148,-1.7148,-1.7168,-1.7442,-1.8202,0.0,0.0,0.0,0.0,0.0,0.0,0.0,0.0,0.0,0.0,0.0,0.0,0.0,0.0,0.0,0.0,0.0,-2.9608,-3.1759,-3.3485,-3.4557,-3.498,-3.5191,-3.5191,-3.5191,-3.5191,0.0,-3.5191,-3.5191,-3.5191,-3.5191,-3.5191,-3.5191,-3.5191,-3.5191,-3.5191,-3.5191,-3.5191,-3.5191,-3.5191,-3.5191,-3.5191,-3.5191,-3.5191,-3.5191,0.0,0.0,0.0,0.0,0.0,0.0,0.0,0.0,-0.9827,-1.0067,-1.0115,-1.0213,-1.0658,-1.0307,0.0,0.0,-0.9943,-0.9822,-0.9822,-1.0032,-1.0358,-1.0792,-1.1328,-1.1653,-1.1728,-1.2102,-1.2393,-1.2315,-1.2472,-1.2641,-1.2943,-1.3241,-1.3466,-1.3729,-1.3648,-1.3614,-1.3587,-1.322,-1.3024,-1.2942,-1.2705,-1.2481,-1.2271,-1.2115,-1.2101,-1.221,-1.2508,0.0,0.0,0.0,0.0,0.0,0.0,0.0,-1.5359,-1.6015,-1.7616,-1.9229,-1.9767,-2.0721,-2.1421,-2.087,-1.9678,-1.8454,-1.7277,-1.7141,-1.7236,-1.7378,-1.7412,-1.7648,0.0,0.0,0.0,0.0,0.0,0.0,0.0,0.0,0.0,0.0,0.0,0.0,0.0,0.0,0.0,0.0,0.0,-2.594,-2.8317,-3.0477,-3.241,-3.3909,-3.4557,-3.498,-3.5191,-3.5191,-3.5191,-3.5191,-3.5191,-3.5191,-3.5191,-3.5191,-3.5191,-3.5191,-3.5191,-3.5191,-3.5191,-3.5191,-3.5191,-3.5191,-3.5191,-3.5191,-3.5191,-3.5191,-3.5191,-3.5191,0.0,0.0,0.0,0.0,0.0,0.0,0.0,0.0,0.0,-1.0186,-1.0186,-1.0308,-1.0543,-1.0422,-1.0186,0.0,0.0,0.0,-0.9822,-1.0134,-1.0548,-1.1063,-1.1375,-1.1538,-1.1538,-1.1966,-1.2251,-1.2258,-1.2873,-1.322,-1.3245,-1.3589,-1.3742,-1.3838,-1.3838,-1.3838,-1.381,-1.339,-1.3125,-1.2983,-1.2861,-1.2617,-1.2332,-1.2352,-1.2332,-1.2332,-1.2657,-1.2854,-1.301,-1.3302,0.0,0.0,0.0,0.0,-1.5578,-1.6211,-1.7584,-1.893,-1.9061,-1.9508,-1.9898,-1.8737,-1.8208,-1.7643,-1.7374,-1.7216,-1.7311,-1.7589,-1.765,0.0,0.0,0.0,0.0,0.0,0.0,0.0,0.0,0.0,0.0,0.0,0.0,0.0,0.0,0.0,0.0,0.0,0.0,-2.5081,-2.6806,-2.9189,-3.1344,-3.3048,-3.3909,-3.4557,-3.5191,-3.5191,-3.5191,-3.5191,-3.5191,-3.5191,-3.5191,-3.5191,-3.5191,-3.5191,-3.5191,-3.5191,-3.5191,-3.5191,-3.5191,-3.5191,-3.5191,-3.5191,-3.5191,-3.5191,-3.5191,-3.5191,0.0,0.0,0.0,0.0,0.0,0.0,0.0,0.0,0.0,0.0,-0.9822,-0.9943,-0.9943,-0.9943,-0.9822,-0.9822,-0.9822,-0.9822,-0.9822,0.0,0.0,-1.0772,-1.1063,-1.1226,-1.1226,-1.2197,-1.2751,-1.2751,-1.4032,-1.4334,-1.3839,-1.3858,-1.3742,-1.3838,-1.3838,-1.3838,-1.3817,-1.3505,-1.3281,-1.3146,-1.3119,-1.2854,-1.2488,-1.2623,-1.2515,-1.2345,-1.2773,-1.2942,-1.301,-1.3302,-1.3403,0.0,0.0,0.0,-1.5024,-1.5528,-1.6376,-1.739,-1.7749,-1.8305,-1.8586,-1.7797,-1.7711,-1.7643,-1.7374,-1.7297,-1.7439,0.0,0.0,0.0,0.0,0.0,0.0,0.0,0.0,0.0,0.0,0.0,0.0,0.0,0.0,0.0,0.0,0.0,0.0,0.0,-2.2472,-2.3137,-2.4418,-2.766,-3.0262,-3.1996,-3.3485,-3.4557,-3.5191,-3.5191,-3.5191,-3.5191,-3.5191,-3.5191,-3.5191,-3.5191,-3.5191,-3.5191,-3.5191,-3.5191,-3.5191,-3.5191,-3.5191,-3.5191,-3.5191,-3.5191,-3.5191,-3.5191,-3.5191,-3.5191,0.0,0.0,0.0,0.0,0.0,0.0,0.0,0.0,0.0,0.0,0.0,-0.9822,-0.9822,-0.9822,-0.9822,-0.9822,-0.9822,-0.9856,-0.9944,-1.0134,-1.0351,-1.0582,-1.0717,-1.0826,-1.0914,-1.1723,-1.2307,-1.2399,-1.3677,-1.4229,0.0,-1.4238,-1.4244,-1.3844,-1.3933,-1.3926,-1.3824,-1.3614,-1.339,-1.3173,-1.3173,-1.3057,-1.2888,-1.2949,-1.2895,-1.282,-1.3105,-1.3152,-1.3112,-1.3329,-1.3403,-1.3437,-1.3654,0.0,0.0,0.0,-1.5767,-1.6532,-1.6845,-1.737,-1.7559,-1.7526,-1.7898,-1.8266,-1.8222,-1.7953,-1.7892,-1.8051,0.0,0.0,0.0,0.0,0.0,0.0,0.0,0.0,0.0,0.0,0.0,0.0,0.0,0.0,0.0,0.0,0.0,0.0,-2.242,-2.269,-2.3346,-2.594,-2.8533,-3.1118,-3.2623,-3.3909,-3.5191,-3.5191,-3.5191,-3.5191,-3.5191,-3.5191,-3.5191,-3.5191,-3.5191,-3.5191,-3.5191,-3.5191,-3.5191,-3.5191,-3.5191,-3.5191,-3.5191,-3.5191,-3.5191,-3.5191,-3.5191,-3.5191,0.0,0.0,0.0,0.0,0.0,0.0,0.0,0.0,0.0,0.0,0.0,-0.9822,-0.9822,0.0,0.0,0.0,-0.9822,-0.9869,-0.9985,-1.0025,-1.0148,-1.0371,-1.0419,-1.0493,-1.0609,-1.1388,-1.1863,-1.2022,-1.3408,-1.3905,-1.3692,-1.4557,-1.4592,-1.396,-1.4075,-1.4068,-1.3946,-1.3763,-1.3532,-1.3295,-1.337,-1.3356,-1.3302,-1.3417,-1.341,-1.337,-1.3559,-1.3505,-1.3363,-1.3519,-1.3546,-1.3532,-1.3648,-1.3851,0.0,0.0,0.0,-1.5825,-1.6053,-1.6553,-1.7113,-1.7588,-1.8425,-1.9059,-1.9318,-1.9044,-1.8977,0.0,0.0,0.0,0.0,0.0,0.0,0.0,0.0,0.0,0.0,0.0,0.0,0.0,0.0,0.0,0.0,0.0,0.0,0.0,-2.2587,-2.2261,-2.269,-2.4428,-2.7022,-3.0037,-3.1759,-3.326,-3.498,-3.5191,-3.5191,-3.5191,-3.5191,-3.5191,-3.5191,-3.5191,-3.5191,-3.5191,-3.5191,-3.5191,-3.5191,-3.5191,-3.5191,-3.5191,-3.5191,-3.5191,-3.5191,-3.5191,-3.5191,-3.5191,0.0,0.0,0.0,0.0,0.0,0.0,0.0,0.0,0.0,0.0,0.0,-0.9822,-0.9822,-0.9822,-0.9822,-0.9822,-0.9822,-0.9822,-0.9829,-0.9971,-1.0059,-1.0073,-1.0215,0.0,-1.0304,-1.1307,-1.19,-1.2071,-1.3849,-1.4441,-1.3976,-1.4992,-1.5056,-1.4278,-1.4285,-1.4285,-1.4258,-1.396,-1.3743,-1.3627,-1.3912,-1.3858,-1.3654,-1.4082,-1.4061,-1.3844,-1.415,-1.4061,-1.3831,-1.3987,-1.3939,-1.3817,-1.3824,-1.3831,-1.3831,0.0,0.0,0.0,-1.5126,-1.6029,-1.712,-1.7888,-1.8987,-1.9983,-2.0505,0.0,0.0,0.0,0.0,0.0,0.0,0.0,0.0,0.0,0.0,0.0,0.0,0.0,0.0,0.0,0.0,0.0,0.0,0.0,0.0,0.0,-2.2587,-2.1384,-2.1384,-2.3774,-2.594,-2.8328,-3.1118,-3.326,-3.4346,-3.498,-3.5191,-3.5191,-3.5191,-3.5191,-3.5191,-3.5191,-3.5191,-3.5191,-3.5191,-3.5191,-3.5191,-3.5191,-3.5191,-3.5191,-3.5191,-3.5191,-3.5191,-3.5191,-3.5191,-3.5191,0.0,0.0,0.0,0.0,0.0,0.0,0.0,0.0,0.0,0.0,0.0,0.0,0.0,-0.9822,-0.9822,-0.9822,-0.9822,-0.9822,-0.9822,-0.9869,-0.9903,-0.9903,-0.9958,-0.9985,-0.9985,-1.0703,-1.1084,-1.1254,-1.2569,-1.3174,-1.321,-1.4077,-1.4508,-1.4434,-1.4434,-1.4387,-1.4285,-1.4075,-1.396,-1.3926,-1.4027,-1.4183,-1.436,-1.4523,-1.4577,-1.4584,-1.4692,0.0,-1.4278,-1.4333,-1.419,-1.3987,-1.3987,-1.3919,-1.3858,-1.396,-1.4211,-1.4543,-1.4936,-1.6364,-1.7832,-1.8804,-2.0579,-2.2177,-2.2526,-2.2152,-2.1506,0.0,0.0,0.0,0.0,0.0,0.0,0.0,0.0,0.0,0.0,0.0,0.0,0.0,0.0,0.0,0.0,0.0,0.0,0.0,0.0,-2.2126,-2.2025,-2.3128,-2.5081,-2.8113,-3.0477,-3.2623,-3.4768,-3.498,-3.5191,-3.5191,-3.5191,-3.5191,-3.5191,-3.5191,-3.5191,-3.5191,-3.5191,-3.5191,-3.5191,-3.5191,-3.5191,-3.5191,-3.5191,-3.5191,-3.5191,-3.5191,-3.5191,-3.5191,0.0,0.0,0.0,0.0,0.0,0.0,0.0,0.0,-0.9842,-0.989,0.0,0.0,0.0,0.0,-0.9978,-0.9978,-0.993,-0.9897,-0.9897,-0.9897,-0.9897,-0.9897,-0.9951,-0.9951,-0.9897,-1.0493,-1.0849,-1.0958,-1.1999,-1.2723,-1.3057,-1.3807,-1.4259,-1.4544,-1.4468,-1.4489,-1.4434,-1.4231,0.0,-1.4231,-1.4333,-1.4584,-1.4896,-1.5004,-1.5133,-1.5262,0.0,0.0,0.0,0.0,-1.4618,-1.4353,-1.4251,-1.4041,-1.3871,-1.4027,-1.4217,-1.4448,-1.4801,-1.6343,-1.8159,-1.9396,-2.1786,-2.4001,-2.4167,0.0,-2.3399,0.0,0.0,0.0,0.0,0.0,0.0,0.0,0.0,0.0,0.0,0.0,0.0,0.0,0.0,0.0,0.0,0.0,0.0,0.0,0.0,0.0,-2.2813,-2.3249,-2.5438,-2.9404,-3.0904,-3.2835,-3.5191,-3.5191,-3.5191,-3.5191,-3.5191,-3.5191,-3.5191,-3.5191,-3.5191,-3.5191,-3.5191,-3.5191,-3.5191,-3.5191,-3.5191,-3.5191,-3.5191,-3.5191,-3.5191,-3.5191,-3.5191,-3.5191,0.0,0.0,0.0,0.0,0.0,0.0,-0.9836,0.0,-0.989,-1.0039,0.0,0.0,0.0,0.0,0.0,-1.029,-1.0148,-1.0059,-1.0059,-1.0059,-1.0059,-1.0059,-1.0202,-1.0209,-1.0059,-1.0667,-1.1039,-1.1053,-1.2473,-1.3173,-1.3459,-1.432,-1.4638,-1.4778,-1.4544,-1.4584,-1.4713,0.0,-1.4387,-1.4543,0.0,-1.5059,-1.5228,-1.5533,-1.5737,0.0,-1.571,-1.5655,0.0,0.0,0.0,-1.4936,-1.4618,-1.4217,-1.3892,-1.4041,-1.4285,-1.455,0.0,0.0,0.0,-1.9447,-2.2554,-2.5231,-2.5328,0.0,0.0,0.0,0.0,0.0,0.0,0.0,0.0,0.0,0.0,0.0,0.0,0.0,0.0,0.0,0.0,0.0,0.0,0.0,0.0,0.0,-2.5791,-2.4112,-2.37,-2.4346,-2.6796,-3.1545,-3.2848,-3.4134,-3.5191,-3.5191,-3.5191,-3.5191,-3.5191,-3.5191,-3.5191,-3.5191,-3.5191,-3.5191,-3.5191,-3.5191,-3.5191,-3.5191,-3.5191,-3.5191,-3.5191,-3.5191,-3.5191,-3.5191,-3.5191,-3.5191,0.0,0.0,0.0,0.0,0.0,-1.0154,-1.0154,-1.0154,-1.0209,0.0,0.0,0.0,-1.0582,-1.0602,-1.0555,-1.0439,-1.0392,-1.0324,-1.0222,-1.0215,-1.0215,-1.0215,-1.0256,-1.0263,-1.0215,-1.0482,-1.0849,-1.1225,-1.2161,-1.3006,-1.3706,-1.4397,-1.4784,-1.4951,-1.4807,-1.4687,-1.4563,-1.438,0.0,0.0,-1.4889,-1.5187,0.0,0.0,0.0,0.0,0.0,-1.6056,0.0,0.0,-1.5696,-1.5364,0.0,-1.4516,-1.4333,-1.438,-1.4448,-1.457,-1.4835,0.0,0.0,0.0,0.0,0.0,0.0,0.0,0.0,0.0,0.0,0.0,0.0,0.0,0.0,0.0,0.0,0.0,0.0,0.0,0.0,0.0,0.0,0.0,0.0,0.0,0.0,0.0,-2.7742,-2.642,-2.5387,-2.6398,-2.8431,-3.1469,-3.2748,-3.4134,-3.5191,-3.5191,-3.5191,-3.5191,-3.5191,-3.5191,-3.5191,-3.5191,-3.5191,-3.5191,-3.5191,-3.5191,-3.5191,-3.5191,-3.5191,-3.5191,-3.5191,-3.5191,-3.5191,-3.5191,-3.5191,-3.5191,0.0,0.0,-1.0161,-1.0222,-1.031,-1.0392,-1.0453,-1.0466,-1.0541,0.0,0.0,0.0,-1.107,-1.1097,-1.1036,-1.088,-1.0751,-1.0622,-1.0473,-1.0405,-1.0399,-1.046,-1.0466,-1.0466,-1.0466,-1.0948,-1.1255,-1.1664,-1.2934,-1.3987,-1.4647,-1.5035,-1.5297,-1.5356,-1.498,-1.4555,-1.4421,-1.4333,0.0,0.0,-1.497,0.0,0.0,-1.594,-1.6096,0.0,0.0,0.0,-1.6164,-1.6103,-1.5839,0.0,0.0,-1.478,-1.4604,-1.4604,-1.4652,-1.474,-1.4923,-1.619,-1.7866,-1.9466,0.0,0.0,0.0,0.0,0.0,0.0,0.0,0.0,0.0,0.0,0.0,0.0,0.0,0.0,0.0,0.0,0.0,0.0,0.0,0.0,0.0,-3.1201,-3.1478,-3.0611,-2.9601,-2.8471,-2.7456,-2.8535,-3.0189,-3.1991,-3.302,-3.4228,-3.5191,-3.5191,-3.5191,-3.5191,-3.5191,-3.5191,-3.5191,-3.5191,-3.5191,-3.5191,-3.5191,-3.5191,-3.5191,-3.5191,-3.5191,-3.5191,-3.5191,-3.5191,-3.5191,-3.5191,-3.5191,-3.5191,0.0,0.0,-1.0399,-1.0541,-1.0595,-1.067,-1.0819,-1.086,-1.0968,0.0,-1.1301,-1.1409,-1.1667,-1.1694,-1.1619,-1.1436,-1.1172,-1.0941,-1.0758,-1.0629,-1.0622,-1.0738,-1.0758,-1.0772,-1.0772,-1.1519,-1.2122,-1.2471,-1.4087,-1.5367,-1.6025,-1.6008,-1.5937,-1.5851,-1.5205,-1.4653,-1.4278,-1.4306,0.0,-1.4767,-1.5065,-1.5364,0.0,0.0,-1.6286,0.0,-1.632,-1.6327,-1.6286,-1.6151,-1.5832,0.0,0.0,0.0,-1.4835,-1.4821,-1.4909,-1.5018,-1.5018,-1.6219,-1.7655,-1.8928,-2.1556,0.0,0.0,0.0,0.0,0.0,0.0,0.0,0.0,0.0,0.0,0.0,0.0,0.0,0.0,0.0,0.0,0.0,0.0,0.0,-3.0607,-3.1416,-3.1819,-3.1819,-3.0999,-3.0083,-2.9912,-3.0574,-3.1659,-3.2951,-3.3667,-3.4255,-3.5151,-3.5177,-3.5191,-3.5191,-3.5191,-3.5191,-3.5191,-3.5191,-3.5191,-3.5191,-3.5191,-3.5191,-3.5191,-3.5191,-3.5191,-3.5191,-3.5191,-3.5191,-3.5191,-3.5191,-3.5191,-3.5191,-1.0636,-1.0731,-1.086,-1.1009,-1.1233,-1.145,-1.1592,-1.1721,-1.1864,-1.2047,-1.2169,-1.2216,-1.2162,-1.2162,-1.1999,-1.1606,-1.1525,-1.1321,-1.0928,-1.0982,-1.0995,-1.0907,-1.1016,-1.1077,-1.1077,-1.1481,-1.2235,-1.3101,-1.4744,-1.5909,-1.6847,-1.7331,-1.7125,-1.6154,-1.57,-1.5002,-1.4129,-1.4367,0.0,-1.4767,-1.5065,0.0,-1.5676,-1.6001,-1.6123,-1.6157,-1.6395,-1.6408,-1.6307,0.0,-1.6123,-1.5906,0.0,0.0,-1.5438,-1.5316,-1.5303,-1.5323,-1.5323,-1.601,-1.725,-1.8582,-2.0787,0.0,0.0,0.0,0.0,0.0,0.0,0.0,0.0,0.0,0.0,0.0,0.0,0.0,0.0,0.0,0.0,0.0,0.0,0.0,-3.0189,-3.1605,-3.241,-3.241,-3.1416,-3.1036,-3.1288,-3.1346,-3.1918,-3.3006,-3.3667,-3.4163,-3.4843,-3.5084,-3.5191,-3.5191,-3.5191,-3.5191,-3.5191,-3.5191,-3.5191,-3.5191,-3.5191,-3.5191,-3.5191,-3.5191,-3.5191,-3.5191,-3.5191,-3.5191,-3.5191,-3.5191,-3.5191,-3.5191,-1.0941,-1.1002,-1.1124,-1.1348,-1.1579,-1.1803,-1.2026,-1.2189,-1.2338,-1.2488,-1.2698,-1.284,-1.284,-1.2773,-1.261,-1.2318,-1.2081,-1.1823,-1.1525,-1.1436,-1.1389,-1.1389,-1.1389,-1.1389,-1.1389,-1.1993,-1.2775,-1.3888,-1.549,-1.7047,-1.8153,-1.8268,-1.7894,-1.7205,-1.6285,-1.5421,-1.4548,0.0,-1.4713,-1.4882,-1.5174,0.0,-1.5683,-1.6056,-1.6198,-1.6225,-1.6442,-1.6476,-1.6402,-1.6334,-1.6205,0.0,0.0,-1.5696,-1.5622,0.0,-1.5527,-1.5527,-1.5527,-1.6173,-1.7177,-1.8306,0.0,0.0,0.0,0.0,0.0,0.0,0.0,0.0,-1.6927,0.0,0.0,0.0,0.0,0.0,0.0,0.0,0.0,0.0,0.0,0.0,-3.0587,-3.1693,-3.241,-3.3013,-3.241,-3.2209,-3.2611,-3.2553,-3.2695,-3.3462,-3.3752,-3.4262,-3.4763,-3.491,-3.5057,-3.5191,-3.5191,-3.5191,-3.5191,-3.5191,-3.5191,-3.5191,-3.5191,-3.5191,-3.5191,-3.5191,-3.5191,-3.5191,-3.5191,-3.5191,-3.5191,-3.5191,-3.5191,-3.5191,-1.1206,-1.1233,-1.1348,-1.1653,-1.185,-1.2067,-1.2372,-1.2562,-1.2732,-1.2881,-1.3139,-1.3336,-1.3437,-1.3336,-1.32,-1.3057,-1.2684,-1.2386,-1.2203,-1.1938,-1.183,-1.1918,-1.1782,-1.1721,-1.1748,-1.2536,-1.3472,-1.4423,-1.6157,-1.7845,-1.9217,-1.9011,-1.8752,-1.8281,-1.6916,-1.5722,-1.502,0.0,0.0,-1.5038,0.0,-1.5547,-1.5723,-1.6151,-1.6307,-1.6327,-1.6469,-1.6558,-1.6585,-1.6408,0.0,-1.6137,-1.5988,-1.5839,0.0,0.0,0.0,-1.5683,-1.5683,-1.6337,-1.7162,-1.8073,0.0,-2.1244,0.0,0.0,0.0,0.0,0.0,0.0,0.0,0.0,0.0,0.0,0.0,0.0,0.0,0.0,0.0,0.0,0.0,0.0,0.0,-3.1946,-3.241,-3.3414,-3.3414,-3.3414,-3.3414,-3.3414,-3.3534,-3.3788,-3.3855,-3.4108,-3.4589,-3.4656,-3.4817,-3.511,-3.511,-3.5137,-3.5191,-3.5191,-3.5191,-3.5191,-3.5191,-3.5191,-3.5191,-3.5191,-3.5191,-3.5191,-3.5191,-3.5191,-3.5191,-3.5191,-3.5191,-3.5191,-1.1362,-1.147,-1.166,-1.1959,-1.2244,-1.2528,-1.284,-1.3119,-1.3356,-1.3505,-1.3668,-1.3722,-1.3614,-1.3587,-1.3519,-1.3363,-1.318,0.0,-1.2671,0.0,-1.2352,-1.2244,-1.2094,-1.2074,-1.221,-1.2525,-1.3286,-1.4265,-1.6183,-1.7586,-1.8942,-1.9785,-1.944,-1.8248,-1.7544,-1.6412,0.0,0.0,-1.5025,0.0,-1.5493,-1.5703,0.0,-1.6185,-1.6307,-1.6327,-1.6469,-1.6693,-1.6883,0.0,-1.6483,-1.6442,0.0,-1.6151,-1.6029,-1.6029,0.0,0.0,0.0,-1.6501,0.0,0.0,-1.9938,0.0,0.0,0.0,0.0,-1.888,0.0,0.0,0.0,0.0,0.0,0.0,0.0,0.0,0.0,0.0,0.0,0.0,0.0,0.0,0.0,-3.2624,-3.3213,-3.3414,-3.3414,-3.3414,-3.3414,-3.3414,-3.3427,-3.3467,-3.3748,-3.3921,-3.3988,-3.4242,-3.4523,-3.4817,-3.4817,-3.495,-3.5191,-3.5191,-3.5191,-3.5191,-3.5191,-3.5191,-3.5191,-3.5191,-3.5191,-3.5191,-3.5191,-3.5191,-3.5191,-3.5191,-3.5191,-3.5191,-1.1375,-1.1511,-1.1714,-1.2013,-1.2237,-1.2508,-1.2901,-1.3214,-1.3485,-1.3722,-1.3885,-1.4021,-1.4129,-1.4217,-1.4251,-1.4183,0.0,0.0,0.0,0.0,-1.318,-1.2942,-1.2786,-1.2657,-1.2549,-1.3029,-1.3823,-1.4779,-1.6577,-1.8422,-1.9927,-2.038,-2.027,-1.9836,-1.8193,0.0,-1.6017,0.0,0.0,0.0,0.0,0.0,0.0,-1.6259,-1.6415,-1.6585,-1.6734,-1.687,-1.6944,0.0,-1.6653,0.0,0.0,0.0,0.0,-1.611,0.0,-1.5988,-1.5988,-1.6468,0.0,0.0,0.0,0.0,-2.0621,0.0,-2.0214,0.0,0.0,0.0,0.0,0.0,0.0,0.0,-1.6899,0.0,0.0,0.0,0.0,0.0,0.0,0.0,0.0,0.0,0.0,0.0,-3.3414,-3.3414,-3.3414,-3.3414,-3.3414,-3.3414,-3.3534,-3.3694,-3.3881,-3.4002,-3.4215,-3.4509,-3.4683,-3.483,-3.495,-3.5124,-3.5191,-3.5191,-3.5191,-3.5191,-3.5191,-3.5191,-3.5191,-3.5191,-3.5191,-3.5191,-3.5191,-3.5191,-3.5084,-3.4963,-1.1369,-1.1511,-1.1701,-1.1952,-1.2162,-1.2467,-1.3003,-1.3336,-1.3614,-1.3871,-1.4075,0.0,-1.4489,-1.4685,0.0,0.0,0.0,-1.459,0.0,0.0,-1.3892,-1.3593,-1.3403,0.0,-1.2922,-1.3354,-1.4037,-1.4785,-1.6824,-1.8694,-2.0441,-2.0791,-2.0895,-2.0884,-1.8732,-1.755,-1.6842,0.0,0.0,-1.5778,-1.5995,-1.6225,-1.6429,-1.6429,-1.6592,-1.6829,-1.6937,-1.6978,-1.6965,-1.6849,-1.6788,0.0,-1.6497,0.0,-1.6347,0.0,-1.6205,-1.6205,-1.6205,0.0,0.0,0.0,0.0,0.0,0.0,0.0,0.0,0.0,0.0,0.0,0.0,0.0,-1.6035,-1.6196,0.0,-1.7013,0.0,0.0,0.0,0.0,0.0,0.0,0.0,0.0,0.0,0.0,0.0,-3.3414,-3.3414,-3.3414,-3.3414,-3.3414,-3.3414,-3.3521,-3.3761,-3.3761,-3.3908,-3.4202,-3.4416,-3.4603,-3.4776,-3.4977,-3.5124,-3.5191,-3.5191,-3.5191,-3.5204,-3.5284,-3.5311,-3.5311,-3.5311,-3.5311,-3.5311,-3.5231,-3.5017,-3.479,-1.1389,-1.1511,-1.1667,-1.1816,-1.2088,-1.2542,-1.3275,-1.3634,-1.3885,-1.4041,0.0,0.0,0.0,0.0,0.0,0.0,0.0,-1.5099,-1.495,0.0,-1.436,0.0,0.0,0.0,0.0,-1.3408,-1.3807,-1.4579,-1.6401,-1.8104,-1.9727,-2.083,-2.1307,-2.0817,-1.9296,-1.8091,-1.6996,-1.5842,-1.5662,-1.6069,-1.6076,-1.6341,-1.6734,0.0,-1.6836,-1.6971,-1.6978,0.0,0.0,-1.6978,-1.6876,0.0,0.0,0.0,0.0,0.0,0.0,0.0,0.0,0.0,0.0,-1.8084,0.0,0.0,0.0,0.0,-1.8719,0.0,0.0,0.0,0.0,-1.5757,-1.5805,-1.5669,-1.5764,0.0,0.0,0.0,0.0,0.0,0.0,0.0,0.0,0.0,0.0,0.0,0.0,0.0,-3.3414,-3.3414,-3.3414,-3.3414,-3.3414,-3.3414,-3.3427,-3.3427,-3.3587,-3.3895,-3.3908,-3.4215,-3.4763,-3.4776,-3.4923,-3.5191,-3.5191,-3.5191,-3.5217,-3.5498,-3.5618,-3.5618,-3.5618,-3.5618,-3.5578,-3.5297,-3.5017,-3.4763,-1.1681,-1.1809,-1.1925,-1.1972,-1.2067,-1.2393,-1.3132,-1.3587,0.0,0.0,0.0,0.0,0.0,0.0,-1.5574,0.0,0.0,-1.5676,-1.5432,-1.5316,0.0,0.0,0.0,-1.4204,0.0,0.0,-1.4412,-1.4954,-1.6816,-1.8736,-2.074,-2.1545,-2.1873,-2.1868,-2.0231,-1.8879,0.0,0.0,0.0,0.0,0.0,-1.668,-1.6904,0.0,0.0,-1.7121,-1.7121,-1.7121,0.0,-1.7121,-1.7026,-1.6883,-1.6781,-1.6714,-1.6653,-1.6551,-1.6524,0.0,0.0,0.0,-1.6668,-1.7304,0.0,0.0,0.0,0.0,0.0,0.0,0.0,0.0,0.0,-1.5818,-1.5805,-1.5662,-1.5594,-1.589,0.0,0.0,0.0,0.0,0.0,0.0,0.0,0.0,0.0,0.0,0.0,0.0,0.0,-3.3414,-3.3414,-3.3414,-3.3414,-3.3414,-3.3414,-3.3414,-3.3467,-3.3574,-3.3788,-3.3988,-3.4189,-3.4376,-3.4629,-3.491,-3.491,-3.5017,-3.5204,-3.5297,-3.5351,-3.5351,-3.5351,-3.5351,-3.5324,-3.5231,-3.4883,-3.4469,-1.2081,-1.2149,-1.2182,-1.2081,-1.2237,-1.2617,-1.3302,0.0,0.0,0.0,-1.4835,0.0,-1.5248,0.0,-1.5852,0.0,-1.5995,-1.5974,-1.573,-1.5716,0.0,-1.5147,-1.5031,0.0,0.0,0.0,-1.4678,-1.515,-1.6651,-1.844,-2.0518,-2.1584,-2.211,-2.2284,-2.09,-1.9527,-1.82,0.0,-1.646,0.0,0.0,-1.689,0.0,0.0,-1.7114,-1.7202,0.0,-1.727,-1.727,-1.727,-1.7175,-1.7039,-1.6937,-1.687,-1.6815,-1.6714,-1.6686,-1.6686,-1.6686,-1.6578,0.0,-1.694,-1.7041,0.0,-1.7741,0.0,0.0,0.0,0.0,0.0,0.0,-1.6015,-1.5934,-1.5683,-1.5554,-1.5799,0.0,-1.8354,0.0,0.0,0.0,0.0,0.0,0.0,0.0,0.0,0.0,0.0,0.0,0.0,-3.3414,-3.3414,-3.3414,-3.3414,-3.3414,-3.3414,-3.3414,-3.3414,-3.3614,-3.3774,-3.3895,-3.4082,-3.4389,-3.4763,-3.4763,-3.4923,-3.5204,-3.5311,-3.5351,-3.5351,-3.5351,-3.5351,-3.5338,-3.5231,-3.4897,-3.4482,-1.2556,-1.2528,-1.2454,-1.2196,-1.261,-1.318,0.0,0.0,-1.4482,0.0,-1.512,-1.5276,-1.5425,-1.5696,-1.5866,-1.5872,-1.6001,0.0,-1.5872,-1.5866,0.0,0.0,-1.5432,-1.5228,-1.478,0.0,0.0,0.0,-1.6002,-1.7622,-1.9306,-2.0867,-2.1821,-2.2214,-2.1126,-1.9834,-1.8566,-1.7217,-1.6529,-1.6571,-1.6863,-1.6978,-1.6998,-1.7148,-1.7202,-1.7222,-1.7378,-1.7433,-1.7433,-1.7433,-1.7324,-1.7195,-1.7195,-1.7093,-1.6978,-1.6978,-1.6985,-1.6992,-1.6992,-1.6883,-1.6768,-1.739,0.0,0.0,0.0,0.0,-1.6529,0.0,0.0,0.0,0.0,0.0,-1.6157,-1.571,-1.5628,-1.5897,-1.6538,0.0,0.0,0.0,0.0,0.0,0.0,0.0,0.0,0.0,0.0,0.0,0.0,0.0,-3.3414,-3.3414,-3.3414,-3.3414,-3.3414,-3.3414,-3.3414,-3.3414,-3.3427,-3.3587,-3.3881,-3.3895,-3.4229,-3.4763,-3.4763,-3.4923,-3.5217,-3.5498,-3.5605,-3.5605,-3.5605,-3.5605,-3.5578,-3.5284,-3.5004,-3.4776,-1.2895,-1.2929,-1.3085,-1.3336,-1.3329,-1.3451,0.0,0.0,0.0,0.0,-1.5452,-1.5737,-1.5893,-1.5981,-1.6069,-1.6185,-1.6123,0.0,0.0,0.0,0.0,-1.575,-1.5737,-1.5581,-1.5248,-1.5126,0.0,-1.5291,-1.624,-1.7488,-1.9204,-2.0988,-2.1891,-2.2105,-2.208,-2.0733,-1.8574,-1.8107,-1.7552,-1.687,-1.6951,-1.6978,0.0,0.0,-1.7365,-1.7385,-1.7534,-1.7589,-1.7589,-1.7589,-1.7412,-1.7195,-1.7195,-1.7093,-1.6978,-1.6978,-1.7053,-1.7141,-1.7141,-1.7107,-1.708,-1.7291,-1.703,-1.6783,0.0,0.0,0.0,0.0,0.0,0.0,0.0,0.0,0.0,-1.5696,-1.5643,-1.5842,0.0,0.0,0.0,0.0,0.0,0.0,0.0,0.0,0.0,0.0,0.0,0.0,0.0,0.0,0.0,-3.3414,-3.3414,-3.3414,-3.3414,-3.3414,-3.3414,-3.3414,-3.3654,-3.3801,-3.3895,-3.4108,-3.4416,-3.4763,-3.4763,-3.4923,-3.5204,-3.5271,-3.5311,-3.5311,-3.5311,-3.5311,-3.5271,-3.4977,-3.4963,-3.5057,-1.3403,-1.3464,-1.3688,-1.4068,-1.4055,0.0,-1.4414,0.0,0.0,-1.5425,-1.5696,0.0,-1.6157,-1.6123,-1.6144,-1.6293,-1.6171,0.0,0.0,0.0,0.0,-1.5954,-1.5954,-1.5845,-1.5608,-1.5459,0.0,-1.5306,0.0,-1.686,-1.8435,-2.019,-2.1074,-2.1464,-2.172,-2.0692,-1.8706,-1.7954,-1.7362,-1.6978,-1.6978,0.0,0.0,-1.7311,-1.7419,-1.7446,-1.767,-1.7738,-1.7738,-1.767,-1.7534,-1.7378,-1.7311,-1.7236,-1.7175,-1.7175,-1.7229,-1.729,-1.729,-1.729,-1.729,-1.729,-1.7114,-1.6924,-1.6863,-1.6734,-1.6619,0.0,-1.6619,0.0,0.0,0.0,0.0,0.0,0.0,0.0,0.0,0.0,0.0,0.0,0.0,0.0,0.0,0.0,0.0,0.0,0.0,0.0,0.0,0.0,0.0,-3.3414,-3.3414,-3.3414,-3.3414,-3.3414,-3.3414,-3.3414,-3.3734,-3.3881,-3.3895,-3.4189,-3.4482,-3.4763,-3.4763,-3.4923,-3.5191,-3.5191,-3.5191,-3.5191,-3.5191,-3.5191,-3.5177,-3.5017,-3.5057,-3.5177,-1.3987,-1.4034,-1.4231,-1.4543,0.0,0.0,0.0,-1.5174,0.0,-1.5798,0.0,-1.5995,-1.6279,-1.6171,-1.6144,0.0,0.0,-1.6083,-1.6083,-1.6083,-1.6083,-1.6083,-1.6083,-1.6022,-1.5886,-1.5744,0.0,0.0,0.0,-1.6137,-1.7218,-1.8796,-1.9869,-2.0802,-2.0658,-2.0001,-1.8781,-1.7228,-1.67,-1.6978,-1.6978,-1.6978,-1.7012,-1.7311,-1.7419,-1.746,-1.7758,-1.7846,-1.7812,-1.7684,-1.7623,-1.7568,-1.7453,-1.7405,-1.7392,-1.7412,-1.7433,-1.7453,-1.7453,-1.7453,-1.7453,-1.7473,-1.7351,-1.7195,-1.7093,-1.6951,-1.6836,-1.6809,-1.6809,-1.6754,0.0,0.0,0.0,0.0,0.0,0.0,0.0,0.0,0.0,0.0,0.0,0.0,0.0,0.0,0.0,0.0,0.0,0.0,0.0,0.0,0.0,-3.34,-3.3414,-3.3414,-3.3414,0.0,-3.3414,-3.3414,-3.3734,-3.3908,-3.3948,-3.4242,-3.4536,-3.4817,-3.4817,-3.4963,-3.5191,-3.5191,-3.5191,-3.5191,-3.5191,-3.5191,-3.5191,-3.5191,-3.5191,-3.5191,-1.4428,-1.4414,-1.457,0.0,0.0,-1.5242,-1.5635,-1.5622,-1.5628,-1.5825,-1.5961,0.0,-1.6293,-1.6171,-1.6144,-1.6293,-1.6171,0.0,0.0,0.0,0.0,-1.6083,-1.6083,-1.6069,-1.6042,-1.5893,-1.5669,0.0,0.0,-1.6125,-1.7041,-1.8331,-1.9231,-1.994,-2.0543,-1.985,-1.834,-1.6961,0.0,-1.6978,-1.6978,-1.6978,-1.7012,-1.7311,-1.7419,-1.746,-1.7758,-1.7792,-1.7684,-1.765,-1.748,-1.729,-1.7392,-1.7331,-1.7256,-1.7385,-1.7507,-1.7609,-1.7609,-1.7609,-1.7629,-1.7758,-1.7582,-1.7405,-1.7507,-1.7412,-1.727,-1.7141,-1.7114,-1.7032,-1.6761,0.0,0.0,0.0,0.0,0.0,0.0,0.0,0.0,0.0,0.0,0.0,0.0,0.0,0.0,0.0,0.0,0.0,0.0,0.0,0.0,0.0,-3.3414,0.0,0.0,0.0,-3.3414,-3.3414,-3.3734,-3.4015,-3.4255,-3.4549,-3.4843,-3.5124,-3.5124,-3.5151,-3.5191,-3.5191,-3.5191,-3.5191,-3.5191,-3.5191,-3.5191,-3.5191,-3.5191,-3.5191,0.0,0.0,0.0,0.0,0.0,0.0,0.0,-1.5866,0.0,-1.5961,-1.6103,-1.6252,-1.6402,-1.6286,-1.6259,-1.6408,-1.6212,-1.6083,-1.6083,-1.6083,-1.6083,-1.6083,-1.6083,0.0,-1.6083,-1.5934,-1.5744,-1.5527,0.0,-1.5739,-1.6316,-1.7136,-1.787,-1.8333,-1.871,-1.8272,-1.7481,0.0,0.0,-1.6978,-1.6978,-1.6978,-1.7005,-1.7222,-1.7304,-1.7331,-1.7555,-1.7534,-1.7426,-1.75,-1.7433,-1.7311,-1.7304,-1.7304,-1.7344,-1.7494,-1.7589,-1.765,-1.765,-1.765,-1.765,-1.7629,-1.7589,-1.7541,-1.7534,-1.7534,-1.7494,-1.7344,-1.7311,-1.7195,-1.6815,-1.6449,0.0,0.0,0.0,0.0,0.0,0.0,0.0,0.0,0.0,0.0,0.0,0.0,0.0,0.0,0.0,0.0,0.0,0.0,0.0,0.0,0.0,0.0,0.0,0.0,0.0,-3.3414,-3.3734,-3.3961,-3.4108,-3.4402,-3.4696,-3.4977,-3.4977,-3.5057,-3.5191,-3.5191,-3.5191,-3.5191,-3.5191,-3.5191,-3.5191,-3.5191,-3.5191,-3.5191,0.0,-1.5267,0.0,0.0,-1.5778,0.0,0.0,-1.6035,-1.6117,-1.6083,-1.6218,-1.6354,-1.6463,-1.6402,-1.6388,-1.6469,-1.6266,-1.613,-1.613,-1.613,-1.6144,-1.6171,-1.6178,-1.6178,-1.6178,-1.6029,-1.5879,0.0,0.0,0.0,-1.5796,-1.6095,-1.6657,-1.7119,-1.7054,-1.7042,0.0,0.0,-1.6727,-1.6978,-1.6978,-1.6978,-1.6998,-1.7141,-1.7195,-1.7209,-1.7365,-1.7324,-1.7209,-1.7331,-1.7351,-1.7311,-1.7222,-1.7277,-1.7399,-1.7555,-1.7602,-1.7602,-1.7602,-1.7575,-1.7534,-1.7446,-1.7487,-1.7534,-1.748,-1.7561,-1.7616,-1.7494,-1.7446,-1.729,-1.6876,-1.6612,0.0,0.0,0.0,0.0,0.0,0.0,0.0,0.0,0.0,0.0,0.0,0.0,0.0,0.0,0.0,0.0,0.0,0.0,0.0,0.0,0.0,-3.3414,-3.3414,0.0,-3.3414,-3.3414,-3.3668,-3.3828,-3.3895,-3.4122,-3.4429,-3.4763,-3.4763,-3.4923,-3.5191,-3.5191,-3.5191,-3.5191,-3.5191,-3.5191,-3.5191,-3.5191,-3.5191,-3.5191,0.0,0.0,0.0,0.0,0.0,0.0,0.0,-1.6191,-1.6239,-1.6096,-1.6218,-1.6313,-1.6327,-1.6435,-1.6456,-1.6341,-1.6307,-1.6286,-1.6286,-1.6286,-1.6347,-1.6476,-1.6483,-1.6483,-1.6483,-1.6341,-1.6191,0.0,0.0,-1.5568,-1.6109,-1.5832,-1.6226,-1.6904,-1.681,0.0,0.0,-1.6804,-1.6829,-1.6978,-1.6978,-1.6978,-1.6998,-1.7141,-1.7195,-1.7209,-1.7365,-1.7324,-1.7195,-1.7209,-1.7127,-1.7039,-1.7154,-1.7202,-1.7243,-1.7399,-1.7439,-1.7439,-1.7439,-1.7344,-1.7263,-1.7392,-1.7324,-1.7304,-1.7568,-1.7629,-1.765,-1.7629,-1.7514,-1.7324,-1.7019,-1.6937,-1.6829,0.0,0.0,0.0,0.0,0.0,-1.7919,-1.8373,0.0,0.0,0.0,0.0,0.0,0.0,-2.9021,0.0,0.0,0.0,0.0,-3.3013,0.0,-3.3414,-3.3414,-3.3414,-3.3414,-3.3414,-3.344,-3.3614,-3.3881,-3.3921,-3.4229,-3.4763,-3.4763,-3.4923,-3.5191,-3.5191,-3.5191,-3.5191,-3.5191,-3.5191,-3.5191,-3.5191,-3.5191,-3.5191,0.0,0.0,0.0,0.0,0.0,0.0,0.0,-1.6273,-1.632,-1.6341,-1.6476,-1.6571,-1.6571,-1.6625,-1.6632,-1.6578,-1.649,-1.6435,-1.6435,-1.6435,-1.6463,-1.6517,-1.6524,-1.6524,-1.6524,-1.6463,-1.632,0.0,0.0,0.0,-1.5925,-1.5616,-1.5862,-1.6271,-1.6349,-1.6613,-1.6653,-1.6659,-1.6836,-1.6978,-1.6978,-1.6978,-1.6985,-1.7046,-1.7066,-1.7073,-1.7134,-1.7121,-1.7066,-1.7066,-1.7026,-1.6992,-1.7046,-1.7066,-1.7093,-1.7243,-1.7283,-1.7283,-1.7283,-1.7243,-1.7188,-1.7161,-1.7175,-1.7222,-1.7344,-1.7514,-1.765,-1.765,-1.7602,-1.7494,-1.7283,-1.7168,-1.7039,0.0,0.0,0.0,0.0,0.0,0.0,-1.7675,0.0,-1.9638,0.0,0.0,0.0,0.0,0.0,0.0,0.0,0.0,0.0,-3.2973,0.0,-3.3414,-3.3414,-3.3414,-3.3414,-3.3414,-3.3414,-3.348,-3.3601,-3.3601,-3.3935,-3.4509,-3.4683,-3.4923,-3.5191,-3.5191,-3.5191,-3.5191,-3.5191,-3.5191,-3.5191,-3.5191,-3.5191,-3.5191,-1.5072,0.0,-1.649,0.0,-1.6374,-1.6374,-1.6374,-1.6408,-1.6476,-1.6578,-1.672,-1.6802,-1.6754,-1.6788,-1.6802,-1.6754,-1.6653,-1.6585,-1.6585,-1.6585,-1.6612,-1.6653,-1.6653,0.0,-1.6653,-1.6612,-1.6483,-1.6279,-1.6191,0.0,0.0,-1.5839,-1.5893,0.0,-1.6191,-1.6395,-1.6598,-1.6754,-1.6883,-1.6978,-1.6978,-1.6978,-1.6978,-1.6978,-1.6978,-1.6985,-1.7026,-1.7019,-1.6985,-1.7026,-1.7019,-1.6978,-1.6978,-1.6978,-1.6998,-1.71,-1.7127,-1.7127,-1.7127,-1.7127,-1.7107,-1.7005,-1.706,-1.7141,-1.7182,-1.7358,-1.7541,-1.7629,-1.765,-1.7616,-1.7507,-1.7365,-1.7209,-1.7066,0.0,0.0,0.0,-1.6978,0.0,-1.7037,-1.7653,-1.8503,-1.997,0.0,0.0,0.0,0.0,0.0,0.0,0.0,0.0,0.0,0.0,0.0,0.0,-3.3414,-3.3414,-3.3414,-3.3414,-3.3414,-3.3414,-3.3507,-3.3788,-3.4202,-3.4509,-3.4803,-3.507,-3.507,-3.5124,-3.5191,-3.5097,-3.507,-3.5057,-3.4977,-3.4937,-3.495,-1.3854,-1.5289,-1.6524,-1.6517,-1.6517,-1.6517,-1.6517,-1.6646,-1.6748,-1.6748,-1.6883,-1.6917,-1.6768,-1.689,-1.6917,-1.6761,-1.6748,-1.6748,-1.6748,-1.6748,-1.6815,0.0,0.0,-1.6978,-1.6978,-1.6822,-1.6748,-1.6741,0.0,0.0,-1.63,-1.63,-1.63,-1.632,-1.6612,-1.6741,-1.6754,-1.691,-1.6978,-1.6978,-1.6978,-1.6978,-1.6978,-1.6978,-1.6978,-1.6998,-1.7141,-1.71,-1.7005,-1.7141,-1.71,-1.6978,-1.6978,-1.6978,-1.6978,-1.6985,-1.6985,-1.6985,-1.6985,-1.6985,-1.6985,-1.6978,-1.6985,-1.7019,-1.7161,-1.7195,-1.7283,-1.7589,-1.765,-1.765,-1.765,-1.7521,-1.7365,-1.7216,0.0,0.0,0.0,-1.6978,0.0,-1.6768,-1.7294,-1.824,-1.9356,0.0,0.0,0.0,0.0,0.0,0.0,0.0,0.0,-3.2545,-3.3106,0.0,-3.3414,-3.3414,-3.3414,-3.3414,-3.3414,-3.3414,-3.3427,-3.3734,-3.3881,-3.3908,-3.4202,-3.4496,-3.4763,-3.4763,-3.4937,-3.5164,-3.4883,-3.4763,-3.4736,-3.4442,-3.4336,-3.4376,-1.411,-1.5578,-1.6802,-1.6693,-1.668,-1.668,-1.668,-1.672,-1.6788,-1.6897,-1.6951,-1.6965,-1.691,-1.6951,-1.6958,0.0,-1.691,-1.691,0.0,-1.691,-1.6931,-1.6978,-1.6978,-1.6978,-1.6978,-1.6931,-1.6856,-1.6748,0.0,0.0,0.0,-1.6456,-1.651,-1.6612,-1.6707,-1.6809,-1.691,-1.6958,-1.6978,-1.6978,-1.6978,-1.7039,-1.7127,-1.7127,-1.7188,-1.729,-1.7331,-1.7317,-1.727,-1.7209,-1.7161,-1.7107,-1.7012,-1.6978,-1.6978,-1.6978,-1.6978,-1.6978,-1.6978,-1.6978,-1.6978,-1.6978,-1.6978,-1.6992,-1.7039,-1.7121,-1.7249,-1.7453,-1.7575,-1.7616,-1.7514,-1.7453,-1.7372,-1.7216,-1.7073,0.0,-1.6978,0.0,-1.6883,-1.6625,-1.6838,-1.7384,0.0,-2.0499,0.0,0.0,0.0,0.0,0.0,0.0,0.0,0.0,-3.3213,0.0,-3.3414,-3.3414,-3.3414,-3.3414,-3.3414,-3.3414,-3.3414,-3.3521,-3.3681,-3.3895,-3.3988,-3.4189,-3.4456,-3.4456,-3.4509,-3.4589,-3.4496,-3.4456,-3.4456,-3.4349,-3.4442,-3.4629,-1.3802,-1.571,-1.6951,-1.6849,-1.6836,-1.6836,-1.6836,-1.6836,-1.687,-1.6971,-1.6978,-1.6978,-1.6978,-1.6978,0.0,-1.6978,-1.6978,-1.6978,-1.6978,-1.6978,-1.6978,-1.6978,-1.6978,-1.6978,-1.6978,-1.6978,0.0,-1.6836,-1.6836,-1.6788,-1.6693,-1.6693,-1.6748,-1.6836,-1.6836,-1.689,-1.6978,-1.6978,-1.6978,-1.6978,-1.6978,-1.7066,-1.7195,-1.7195,-1.729,-1.7426,-1.7487,-1.7467,-1.7405,-1.7311,-1.7243,-1.7175,-1.7087,-1.706,-1.7053,-1.6998,-1.6978,-1.6978,-1.6978,-1.6978,-1.6978,-1.6978,-1.6978,-1.6978,-1.6978,-1.7046,-1.7154,-1.7304,-1.7412,-1.7487,-1.75,-1.7412,-1.7324,-1.7283,-1.7114,-1.6978,-1.6978,-1.6978,-1.689,-1.6639,0.0,0.0,0.0,-2.0309,-2.2506,0.0,0.0,0.0,0.0,0.0,0.0,-3.2973,-3.3253,0.0,-3.3414,-3.3414,-3.3414,-3.3414,-3.3414,-3.3414,-3.3414,-3.3414,-3.3521,-3.3708,-3.3708,-3.3881,-3.4162,-3.4162,-3.4229,-3.4309,-3.4202,-3.4162,-3.4162,-3.4162,-3.4282,-3.4469,-1.338,-1.5493,0.0,0.0,-1.6978,0.0,-1.6978,-1.6978,-1.6978,-1.6978,-1.6978,-1.6978,-1.6978,-1.6978,-1.6978,-1.6978,0.0,0.0,0.0,-1.6978,-1.6978,-1.6978,-1.6978,-1.6978,-1.6978,-1.6978,-1.6978,-1.6978,-1.6978,-1.6978,-1.6978,-1.6978,-1.6978,-1.6978,-1.6978,-1.6978,-1.6978,-1.6978,-1.6978,-1.6978,-1.6978,-1.7073,-1.7209,-1.7209,-1.7311,-1.7467,-1.7609,-1.7575,-1.7453,-1.7439,-1.7344,-1.7222,-1.7209,-1.7209,-1.7182,-1.7039,-1.6992,-1.6992,-1.6985,-1.6978,-1.6978,-1.6978,-1.6978,-1.6978,-1.6978,-1.6978,-1.7019,-1.7148,-1.7182,-1.7283,-1.7561,-1.7385,-1.7243,-1.7385,-1.7168,-1.6978,-1.6978,-1.6978,-1.6924,-1.6768,0.0,0.0,0.0,-2.025,-2.2283,0.0,0.0,0.0,0.0,0.0,-3.3013,-3.3013,-3.3267,-3.3414,-3.3414,-3.3414,-3.3414,-3.3414,-3.3414,-3.3414,-3.3414,-3.3414,-3.3414,-3.3414,-3.3414,-3.3574,-3.3855,-3.3855,-3.4015,-3.4229,-3.3961,-3.3868,-3.3881,-3.3881,-3.3908,-3.4028,0.0,0.0,-1.6558,-1.6978,-1.6978,-1.6978,-1.6978,-1.6978,-1.6978,-1.6978,-1.6978,-1.6978,-1.6978,-1.6978,-1.6978,-1.6978,-1.6978,-1.6978,-1.6978,-1.6978,-1.6978,-1.6978,-1.6978,-1.6978,-1.6978,-1.6978,-1.6978,-1.6978,-1.6978,-1.6978,-1.6978,-1.6978,-1.6978,-1.6978,-1.6978,-1.6978,-1.6978,-1.6978,-1.6978,-1.6978,-1.6978,-1.7134,-1.7365,-1.7365,-1.7528,-1.7758,-1.7792,-1.7792,-1.7738,-1.7629,-1.7568,-1.7521,-1.7405,-1.7365,-1.7338,-1.7188,-1.7141,-1.7121,-1.7012,-1.6978,-1.6978,-1.6978,-1.6978,-1.6978,-1.6978,-1.6978,-1.6992,-1.7026,-1.7114,-1.7216,-1.729,-1.7243,-1.7202,-1.7243,-1.71,-1.6978,-1.6978,-1.6978,-1.6924,-1.6768,-1.6781,-1.6996,-1.7989,-1.9838,-2.1739,0.0,0.0,0.0,0.0,-3.2507,-3.3307,-3.3307,-3.3374,-3.3414,-3.3414,-3.3414,-3.3414,-3.3414,-3.3414,-3.3414,-3.3414,-3.3414,-3.3414,-3.3414,-3.3414,-3.3454,-3.3521,-3.3521,-3.3561,-3.3614,-3.3547,-3.3668,-3.3881,-3.3881,-3.4175,-3.4576,-1.253,-1.4434,-1.592,-1.6558,-1.6768,-1.6978,-1.6978,-1.6978,-1.6978,-1.6978,-1.6978,-1.6978,-1.6978,-1.6978,-1.6978,-1.6978,-1.6978,-1.6978,-1.6978,-1.6978,-1.6978,-1.6978,-1.6978,-1.6978,-1.6978,-1.6978,-1.6978,-1.6978,-1.6978,-1.6978,-1.6978,-1.6978,-1.6978,-1.6978,-1.6978,-1.6978,-1.6978,-1.6978,-1.6978,-1.6978,-1.6978,-1.7114,-1.7324,-1.7392,-1.7561,-1.7772,-1.7846,-1.786,-1.7846,-1.7704,-1.765,-1.7629,-1.7548,-1.7521,-1.7494,-1.7344,-1.7249,-1.7161,-1.7019,-1.6978,-1.6978,-1.6978,-1.6978,-1.6978,-1.6978,-1.6978,-1.6978,-1.6978,-1.7039,-1.7114,-1.7182,-1.7141,-1.7114,-1.7182,-1.7073,-1.6978,-1.6978,-1.6978,-1.6951,-1.6863,-1.6856,-1.7065,-1.7682,-1.9337,-2.1234,-2.34,-2.6487,0.0,-3.0809,-3.2209,-3.3213,-3.3414,-3.3414,-3.3414,-3.3414,-3.3414,-3.3414,-3.3414,-3.3414,-3.3414,-3.3414,-3.3414,-3.3414,-3.3414,-3.3414,-3.3414,-3.3414,-3.3414,-3.3414,-3.3414,-3.3414,-3.3601,-3.3895,-3.4042,-3.4376,-3.4776,-1.1474,-1.3591,-1.5283,-1.592,-1.6558,-1.6978,-1.6978,-1.6978,-1.6978,-1.6978,-1.6978,-1.6978,-1.6978,-1.6978,-1.6978,-1.6978,-1.6978,-1.6978,-1.6978,-1.6978,-1.6978,-1.6978,-1.6978,-1.6978,-1.6978,-1.6978,-1.6978,-1.6978,-1.6978,-1.6978,-1.6978,-1.6978,-1.6978,-1.6978,-1.6978,-1.6978,-1.6978,-1.6978,-1.6978,-1.6978,-1.6978,-1.7066,-1.7209,-1.7365,-1.7514,-1.767,-1.7812,-1.786,-1.7846,-1.7717,-1.7684,-1.7684,-1.7684,-1.7684,-1.765,-1.7473,-1.7331,-1.7188,-1.7026,-1.6978,-1.6978,-1.6978,-1.6978,-1.6978,-1.6978,-1.6978,-1.6978,-1.6978,-1.6978,-1.7019,-1.7141,-1.706,-1.7019,-1.7141,-1.706,-1.6978,-1.6978,-1.6978,-1.6978,-1.6978,-1.6978,-1.7195,-1.7636,-1.8865,-2.052,-2.3032,-2.5481,-2.7929,-3.0404,-3.1806,-3.2812,-3.3213,-3.3414,-3.3414,-3.3414,-3.3414,-3.3414,-3.3414,-3.3414,-3.3414,-3.3414,-3.3414,-3.3414,-3.3414,-3.3414,-3.3414,-3.3414,-3.3414,-3.3414,-3.3414,-3.3467,-3.3668,-3.3988,-3.4282,-3.4576,-3.487,-1.0627,-1.2742,-1.4434,-1.592,-1.6558,-1.6978,-1.6978,-1.6978,-1.6978,-1.6978,-1.6978,-1.6978,-1.6978,-1.6978,-1.6978,-1.6978,-1.6978,-1.6978,-1.6978,-1.6978,-1.6978,-1.6978,-1.6978,-1.6978,-1.6978,-1.6978,-1.6978,-1.6978,-1.6978,-1.6978,-1.6978,-1.6978,-1.6978,-1.6978,-1.6978,-1.6978,-1.6978,-1.6978,-1.6978,-1.6978,-1.6978,-1.7066,-1.7209,-1.7365,-1.7514,-1.767,-1.7812,-1.786,-1.786,-1.7846,-1.7826,-1.7826,-1.7826,-1.7826,-1.7772,-1.75,-1.7405,-1.7324,-1.7053,-1.6978,-1.6978,-1.6978,-1.6978,-1.6978,-1.6978,-1.6978,-1.6978,-1.6978,-1.6978,-1.6985,-1.7012,-1.6992,-1.6985,-1.7012,-1.6992,-1.6978,-1.6978,-1.6978,-1.6978,-1.6978,-1.6978,-1.7026,-1.736,-1.8716,-2.016,-2.1567,-2.4549,-2.7122,-2.8971,-3.0797,-3.2209,-3.2611,-3.3213,-3.3414,-3.3414,-3.3414,-3.3414,-3.3414,-3.3414,-3.3414,-3.3414,-3.3414,-3.3414,-3.3414,-3.3414,-3.3414,-3.3414,-3.3414,-3.3414,-3.344,-3.3708,-3.3988,-3.4282,-3.4589,-3.4883,-3.5137,-0.8932,-1.1474,-1.3591,-1.4862,-1.6131,-1.6978,-1.6978,-1.6978,-1.6978,-1.6978,-1.6978,-1.6978,-1.6978,-1.6978,-1.6978,-1.6978,-1.6978,-1.6978,-1.6978,-1.6978,-1.6978,-1.6978,-1.6978,-1.6978,-1.6978,-1.6978,-1.6978,-1.6978,-1.6978,-1.6978,-1.6978,-1.6978,-1.6978,-1.6978,-1.6978,-1.6978,-1.6978,-1.6978,-1.6978,-1.6978,-1.6978,-1.7019,-1.7093,-1.7243,-1.7344,-1.7426,-1.7568,-1.7684,-1.7758,-1.7758,-1.7792,-1.786,-1.786,-1.786,-1.7812,-1.7507,-1.7311,-1.7154,-1.7019,-1.6978,-1.6978,-1.6978,-1.6978,-1.6978,-1.6978,-1.6978,-1.6978,-1.6978,-1.6978,-1.6978,-1.6978,-1.6978,-1.6978,-1.6978,-1.6978,-1.6978,-1.6978,-1.6978,-1.6978,-1.6978,-1.6978,-1.7005,-1.7073,-1.8056,-1.9299,-2.0627,-2.3041,-2.5471,-2.7929,-2.9975,-3.1403,-3.2611,-3.3213,-3.3414,-3.3414,-3.3414,-3.3414,-3.3414,-3.3414,-3.3414,-3.3414,-3.3414,-3.3414,-3.3414,-3.3414,-3.3414,-3.3414,-3.3414,-3.3507,-3.3681,-3.3828,-3.4162,-3.4576,-3.471,-3.495,-3.5191,-0.7255,-1.0216,-1.2958,-1.4224,-1.592,-1.6978,-1.6978,-1.6978,-1.6978,-1.6978,-1.6978,-1.6978,-1.6978,-1.6978,-1.6978,-1.6978,-1.6978,-1.6978,-1.6978,-1.6978,-1.6978,-1.6978,-1.6978,-1.6978,-1.6978,-1.6978,-1.6978,-1.6978,-1.6978,-1.6978,-1.6978,-1.6978,-1.6978,-1.6978,-1.6978,-1.6978,-1.6978,-1.6978,-1.6978,-1.6978,-1.6978,-1.6978,-1.6998,-1.7141,-1.7195,-1.7209,-1.7365,-1.7494,-1.7602,-1.7629,-1.7717,-1.7812,-1.7812,-1.7812,-1.7758,-1.7453,-1.7182,-1.6978,-1.6978,-1.6978,-1.6978,-1.6978,-1.6978,-1.6978,-1.6978,-1.6978,-1.6978,-1.6978,-1.6978,-1.6978,-1.6978,-1.6978,-1.6978,-1.6978,-1.6978,-1.6978,-1.6978,-1.6978,-1.6978,-1.6978,-1.6978,-1.6992,-1.7026,-1.7412,-1.8447,-1.9943,-2.157,-2.3813,-2.6691,-2.854,-3.0582,-3.2611,-3.3213,-3.3414,-3.3414,-3.3414,-3.3414,-3.3414,-3.3414,-3.3414,-3.3414,-3.3414,-3.3414,-3.3414,-3.3414,-3.3454,-3.3521,-3.3521,-3.3708,-3.4002,-3.4068,-3.4362,-3.4776,-3.4843,-3.5004,-3.5191,-0.6459,-0.9614,-1.253,-1.4013,-1.592,-1.6978,-1.6978,-1.6978,-1.6978,-1.6978,-1.6978,-1.6978,-1.6978,-1.6978,-1.6978,-1.6978,-1.6978,-1.6978,-1.6978,-1.6978,-1.6978,-1.6978,-1.6978,-1.6978,-1.6978,-1.6978,-1.6978,-1.6978,-1.6978,-1.6978,-1.6978,-1.6978,-1.6978,-1.6978,-1.6978,-1.6978,-1.6978,-1.6978,-1.6978,-1.6978,-1.6978,-1.6978,-1.6998,-1.7141,-1.7195,-1.7209,-1.7365,-1.7426,-1.746,-1.7602,-1.765,-1.7663,-1.7663,-1.7663,-1.7602,-1.7297,-1.71,-1.6978,-1.6978,-1.6978,-1.6978,-1.6978,-1.6978,-1.6978,-1.6978,-1.6978,-1.6978,-1.6978,-1.6978,-1.6978,-1.6978,-1.6978,-1.6978,-1.6978,-1.6978,-1.6978,-1.6978,-1.6978,-1.6978,-1.6978,-1.6978,-1.7032,-1.7161,-1.7475,-1.8078,-1.8865,-2.0409,-2.2175,-2.4441,-2.6691,-2.9354,-3.241,-3.3213,-3.3414,-3.3414,-3.3414,-3.3414,-3.3414,-3.3414,-3.3414,-3.3414,-3.3414,-3.3414,-3.3414,-3.3414,-3.3574,-3.3855,-3.3855,-3.4028,-3.4322,-3.4589,-3.4723,-3.479,-3.507,-3.5177,-3.5191,-0.7344,-1.01,-1.2403,-1.3602,-1.571,-1.6978,-1.6978,-1.6978,-1.6978,-1.6978,-1.706,-1.7114,-1.7114,-1.7114,-1.7114,-1.7114,-1.7032,-1.6978,-1.6978,-1.6978,-1.6978,-1.6978,-1.6978,-1.6978,-1.6978,-1.6978,-1.6978,-1.6978,-1.6978,-1.6978,-1.6978,-1.6978,-1.6978,-1.6978,-1.6978,-1.6978,-1.6978,-1.6978,-1.6978,-1.6978,-1.6978,-1.6978,-1.6985,-1.7039,-1.706,-1.7066,-1.7127,-1.7202,-1.729,-1.7344,-1.7494,-1.7629,-1.7534,-1.7568,-1.7589,-1.7283,-1.7093,-1.6978,-1.6978,-1.6978,-1.6978,-1.6978,-1.6978,-1.6978,-1.6978,-1.6978,-1.6978,-1.6978,-1.6978,-1.6978,-1.6978,-1.6978,-1.6978,-1.6978,-1.6978,-1.6978,-1.6978,-1.6978,-1.6978,-1.6978,-1.6978,-1.7005,-1.706,-1.7223,-1.7629,-1.8107,-1.9307,-2.1137,-2.3202,-2.7101,-3.038,-3.2611,-3.3213,-3.3414,-3.3414,-3.3414,-3.3414,-3.3414,-3.3414,-3.3414,-3.3414,-3.3414,-3.3414,-3.3427,-3.3614,-3.3774,-3.3895,-3.4082,-3.4336,-3.4603,-3.4723,-3.487,-3.5044,-3.5151,-3.5191,-3.5191,-0.7821,-1.0152,-1.1816,-1.345,-1.535,-1.6855,-1.7114,-1.7121,-1.7121,-1.7121,-1.7202,-1.7263,-1.7263,-1.7263,-1.7243,-1.7195,-1.7107,-1.7026,-1.6985,-1.6978,-1.6978,-1.6978,-1.6978,-1.6978,-1.6978,-1.6978,-1.6978,-1.6978,-1.6978,-1.6978,-1.6978,-1.6978,-1.6978,-1.6978,-1.6978,-1.6978,-1.6978,-1.6978,-1.6978,-1.6978,-1.6978,-1.6978,-1.6978,-1.6978,-1.6978,-1.6978,-1.6978,-1.7039,-1.7134,-1.7175,-1.7331,-1.7487,-1.7385,-1.7392,-1.7399,-1.7188,-1.706,-1.6978,-1.6978,-1.6978,-1.6978,-1.6978,-1.6978,-1.6978,-1.6978,-1.6978,-1.6978,-1.6978,-1.6978,-1.6978,-1.6978,-1.6978,-1.6978,-1.6978,-1.6978,-1.6978,-1.6978,-1.6978,-1.6978,-1.6978,-1.6978,-1.6978,-1.6978,-1.6978,-1.7188,-1.7601,-1.8432,-2.0095,-2.2986,-2.7509,-3.0595,-3.2008,-3.3013,-3.3414,-3.3414,-3.3414,-3.3414,-3.3414,-3.3414,-3.3414,-3.3414,-3.3414,-3.3414,-3.3427,-3.3748,-3.3935,-3.4042,-3.4336,-3.4629,-3.4897,-3.4897,-3.5017,-3.5191,-3.5191,-3.5191,-3.5191,-0.7667,-0.954,-1.0978,-1.3343,-1.5277,-1.6609,-1.7399,-1.7419,-1.7419,-1.7419,-1.7419,-1.7419,-1.7419,-1.7419,-1.7358,-1.7209,-1.7195,-1.7134,-1.6992,-1.6978,-1.6978,-1.6978,-1.6978,-1.6978,-1.6978,-1.6978,-1.6978,-1.6978,-1.6978,-1.6978,-1.6978,-1.6978,-1.6978,-1.6978,-1.6978,-1.6978,-1.6978,-1.6978,-1.6978,-1.6978,-1.6978,-1.6978,-1.6978,-1.6978,-1.6978,-1.6978,-1.6978,-1.6978,-1.7005,-1.7141,-1.7188,-1.7195,-1.7195,-1.7093,-1.6978,-1.6978,-1.6978,-1.6978,-1.6978,-1.6978,-1.6978,-1.6978,-1.6978,-1.6978,-1.6978,-1.6978,-1.6978,-1.6978,-1.6978,-1.6978,-1.6978,-1.6978,-1.6978,-1.6978,-1.6978,-1.6978,-1.6978,-1.6978,-1.6978,-1.6978,-1.6978,-1.6978,-1.6978,-1.6978,-1.6978,-1.6978,-1.7601,-1.9469,-2.34,-2.7305,-2.9975,-3.1012,-3.2611,-3.3414,-3.3414,-3.3414,-3.3414,-3.3414,-3.3414,-3.3414,-3.3414,-3.3414,-3.3414,-3.3427,-3.3748,-3.4055,-3.4349,-3.4643,-3.4937,-3.5191,-3.5191,-3.5191,-3.5191,-3.5191,-3.5191,-3.5191,-0.5696,-0.8452,-1.0978,-1.2915,-1.5058,-1.6609,-1.7399,-1.7419,-1.7419,-1.7419,-1.7514,-1.7582,-1.7582,-1.7582,-1.7521,-1.7365,-1.7256,-1.7134,-1.6992,-1.6978,-1.6978,-1.6978,-1.6978,-1.6978,-1.6978,-1.6978,-1.6978,-1.6978,-1.6978,-1.6978,-1.6978,-1.6978,-1.6978,-1.6978,-1.6978,-1.6978,-1.6978,-1.6978,-1.6978,-1.6978,-1.6978,-1.6978,-1.6978,-1.6978,-1.6978,-1.6978,-1.6978,-1.6978,-1.6985,-1.7032,-1.7107,-1.7195,-1.7195,-1.7093,-1.6978,-1.6978,-1.6978,-1.6978,-1.6978,-1.6978,-1.6978,-1.6978,-1.6978,-1.6978,-1.6978,-1.6978,-1.6978,-1.6978,-1.6978,-1.6978,-1.6978,-1.6978,-1.6978,-1.6978,-1.6978,-1.6978,-1.6978,-1.6978,-1.6978,-1.6978,-1.6978,-1.6978,-1.6978,-1.6978,-1.6978,-1.6978,-1.8649,-2.072,-2.3409,-2.6885,-2.9354,-3.1012,-3.2611,-3.3414,-3.3414,-3.3414,-3.3414,-3.3414,-3.3414,-3.3414,-3.3414,-3.3414,-3.3414,-3.344,-3.3961,-3.4242,-3.4362,-3.4857,-3.5124,-3.5191,-3.5191,-3.5191,-3.5191,-3.5191,-3.5191,-3.5191,-0.3924,-0.6921,-0.9687,-1.1844,-1.4243,-1.6049,-1.7054,-1.7337,-1.7595,-1.7595,-1.767,-1.7738,-1.7738,-1.7738,-1.765,-1.7439,-1.7229,-1.7073,-1.6985,-1.6978,-1.6978,-1.6978,-1.6978,-1.6978,-1.6978,-1.6978,-1.6978,-1.6978,-1.6978,-1.6978,-1.6978,-1.6978,-1.6978,-1.6978,-1.6978,-1.6978,-1.6978,-1.6978,-1.6978,-1.6978,-1.6978,-1.6978,-1.6978,-1.6978,-1.6978,-1.6978,-1.6978,-1.6978,-1.6978,-1.6978,-1.7039,-1.7107,-1.7107,-1.7053,-1.6978,-1.6978,-1.6978,-1.6978,-1.6978,-1.6978,-1.6978,-1.6978,-1.6978,-1.6978,-1.6978,-1.6978,-1.6978,-1.6978,-1.6978,-1.6978,-1.6978,-1.6978,-1.6978,-1.6978,-1.6978,-1.6978,-1.6978,-1.6978,-1.6978,-1.6978,-1.6978,-1.6978,-1.6978,-1.6978,-1.6978,-1.6978,-1.9067,-2.1145,-2.2779,-2.6476,-2.9151,-3.0607,-3.241,-3.3414,-3.3414,-3.3414,-3.3414,-3.3414,-3.3414,-3.3414,-3.3414,-3.3414,-3.3414,-3.344,-3.3935,-3.4215,-3.4362,-3.483,-3.5097,-3.5191,-3.5191,-3.5191,-3.5191,-3.5191,-3.5191,-3.5191,-0.2815,-0.5172,-0.7533,-1.0553,-1.3217,-1.5073,-1.6525,-1.7319,-1.7846,-1.786,-1.786,-1.786,-1.786,-1.786,-1.7738,-1.7446,-1.7154,-1.6978,-1.6978,-1.6978,-1.6978,-1.6978,-1.6978,-1.6978,-1.6978,-1.6978,-1.6978,-1.6978,-1.6978,-1.6978,-1.6978,-1.6978,-1.6978,-1.6978,-1.6978,-1.6978,-1.6978,-1.6978,-1.6978,-1.6978,-1.6978,-1.6978,-1.6978,-1.6978,-1.6978,-1.6978,-1.6978,-1.6978,-1.6978,-1.6978,-1.6978,-1.6978,-1.6978,-1.6978,-1.6978,-1.6978,-1.6978,-1.6978,-1.6978,-1.6978,-1.6978,-1.6978,-1.6978,-1.6978,-1.6978,-1.6978,-1.6978,-1.6978,-1.6978,-1.6978,-1.6978,-1.6978,-1.6978,-1.6978,-1.6978,-1.6978,-1.6978,-1.6978,-1.6978,-1.6978,-1.6978,-1.6978,-1.6978,-1.6978,-1.6978,-1.6978,-1.9067,-2.0729,-2.1959,-2.6066,-2.8936,-3.0189,-3.2196,-3.3414,-3.3414,-3.3414,-3.3414,-3.3414,-3.3414,-3.3414,-3.3414,-3.3414,-3.3414,-3.3427,-3.3774,-3.4068,-3.4349,-3.467,-3.4963,-3.5191,-3.5191,-3.5191,-3.5191,-3.5191,-3.5191,-3.5191,-0.1729,-0.3646,-0.5983,-0.9465,-1.1858,-1.41,-1.5857,-1.6576,-1.7286,-1.7846,-1.786,-1.786,-1.786,-1.786,-1.7738,-1.7446,-1.7154,-1.6978,-1.6978,-1.6978,-1.6978,-1.6978,-1.6978,-1.6978,-1.6978,-1.6978,-1.6978,-1.6978,-1.6978,-1.6978,-1.6978,-1.6978,-1.6978,-1.6978,-1.6978,-1.6978,-1.6978,-1.6978,-1.6978,-1.6978,-1.6978,-1.6978,-1.6978,-1.6978,-1.6978,-1.6978,-1.6978,-1.6978,-1.6978,-1.6978,-1.6978,-1.6978,-1.6978,-1.6978,-1.6978,-1.6978,-1.6978,-1.6978,-1.6978,-1.6978,-1.6978,-1.6978,-1.6978,-1.6978,-1.6978,-1.6978,-1.6978,-1.6978,-1.6978,-1.6978,-1.6978,-1.6978,-1.6978,-1.6978,-1.6978,-1.6978,-1.6978,-1.6978,-1.6978,-1.6978,-1.6978,-1.6978,-1.6978,-1.6978,-1.6978,-1.6978,-1.8641,-2.0304,-2.1959,-2.5245,-2.8133,-3.0189,-3.1806,-3.3013,-3.3414,-3.3414,-3.3414,-3.3414,-3.3414,-3.3414,-3.3414,-3.3414,-3.3414,-3.344,-3.3988,-3.4269,-3.4362,-3.4883,-3.5137,-3.5191,-3.5191,-3.5191,-3.5191,-3.5191,-3.5191,-3.5191,-0.0859,-0.2563,-0.49,-0.7702,-1.0524,-1.2956,-1.5026,-1.6244,-1.7007,-1.7751,-1.7826,-1.786,-1.786,-1.786,-1.7738,-1.7446,-1.7154,-1.6978,-1.6978,-1.6978,-1.6978,-1.6978,-1.6978,-1.6978,-1.6978,-1.6978,-1.6978,-1.6978,-1.6978,-1.6978,-1.6978,-1.6978,-1.6978,-1.6978,-1.6978,-1.6978,-1.6978,-1.6978,-1.6978,-1.6978,-1.6978,-1.6978,-1.6978,-1.6978,-1.6978,-1.6978,-1.6978,-1.6978,-1.6978,-1.6978,-1.6978,-1.6978,-1.6978,-1.6978,-1.6978,-1.6978,-1.6978,-1.6978,-1.6978,-1.6978,-1.6978,-1.6978,-1.6978,-1.6978,-1.6978,-1.6978,-1.6978,-1.6978,-1.6978,-1.6978,-1.6978,-1.6978,-1.6978,-1.6978,-1.6978,-1.6978,-1.6978,-1.6978,-1.6978,-1.6978,-1.6978,-1.6978,-1.6978,-1.6978,-1.6978,-1.6978,-1.8641,-2.0095,-2.1544,-2.5039,-2.7714,-2.9772,-3.1592,-3.2812,-3.3414,-3.3414,-3.3414,-3.3414,-3.3414,-3.3414,-3.3414,-3.3414,-3.3414,-3.344,-3.3908,-3.4189,-3.4362,-3.4803,-3.507,-3.5191,-3.5191,-3.5191,-3.5191,-3.5191,-3.5191,-3.5191,0.0,-0.1704,-0.3834,-0.5959,-0.8986,-1.1825,-1.3984,-1.568,-1.6717,-1.7425,-1.7751,-1.7826,-1.7826,-1.7772,-1.767,-1.7439,-1.7154,-1.6978,-1.6978,-1.6978,-1.6978,-1.6978,-1.6978,-1.6978,-1.6978,-1.6978,-1.6978,-1.6978,-1.6978,-1.6978,-1.6978,-1.6978,-1.6978,-1.6978,-1.6978,-1.6978,-1.6978,-1.6978,-1.6978,-1.6978,-1.6978,-1.6978,-1.6978,-1.6978,-1.6978,-1.6978,-1.6978,-1.6978,-1.6978,-1.6978,-1.6978,-1.6978,-1.6978,-1.6978,-1.6978,-1.6978,-1.6978,-1.6978,-1.6978,-1.6978,-1.6978,-1.6978,-1.6978,-1.6978,-1.6978,-1.6978,-1.6978,-1.6978,-1.6978,-1.6978,-1.6978,-1.6978,-1.6978,-1.6978,-1.6978,-1.6978,-1.6978,-1.6978,-1.6978,-1.6978,-1.6978,-1.6978,-1.6978,-1.6978,-1.6978,-1.6978,-1.8432,-1.9678,-2.1128,-2.4422,-2.7305,-2.9354,-3.1391,-3.2611,-3.3414,-3.3414,-3.3414,-3.3414,-3.3414,-3.3414,-3.3414,-3.3414,-3.3414,-3.3427,-3.3801,-3.4095,-3.4349,-3.4696,-3.4977,-3.5191,-3.5191,-3.5191,-3.5191,-3.5191,-3.5191,-3.5191,0.0,-0.1066,-0.2556,-0.4471,-0.7453,-1.0253,-1.2258,-1.4232,-1.6062,-1.6737,-1.7438,-1.7684,-1.7684,-1.7439,-1.7317,-1.7412,-1.7154,-1.6978,-1.6978,-1.6978,-1.6978,-1.6978,-1.6978,-1.6978,-1.6978,-1.6978,-1.6978,-1.6978,-1.6978,-1.6978,-1.6978,-1.6978,-1.6978,-1.6978,-1.6978,-1.6978,-1.6978,-1.6978,-1.6978,-1.6978,-1.6978,-1.6978,-1.6978,-1.6978,-1.6978,-1.6978,-1.6978,-1.6978,-1.6978,-1.6978,-1.6978,-1.6978,-1.6978,-1.6978,-1.6978,-1.6978,-1.6978,-1.6978,-1.6978,-1.6978,-1.6978,-1.6978,-1.6978,-1.6978,-1.6978,-1.6978,-1.6978,-1.6978,-1.6978,-1.6978,-1.6978,-1.6978,-1.6978,-1.6978,-1.6978,-1.6978,-1.6978,-1.6978,-1.6978,-1.6978,-1.6978,-1.6978,-1.6978,-1.6978,-1.6978,-1.6978,-1.7601,-1.885,-2.092,-2.2986,-2.5666,-2.9354,-3.0595,-3.2021,-3.3414,-3.3414,-3.3414,-3.3414,-3.3414,-3.3414,-3.3414,-3.3414,-3.3414,-3.344,-3.4015,-3.4282,-3.4362,-3.491,-3.5164,-3.5191,-3.5191,-3.5191,-3.5191,-3.5191,-3.5191,-3.5191,0.0,-0.0853,-0.2344,-0.4473,-0.6809,-0.9155,-1.1321,-1.3301,-1.4885,-1.5865,-1.6601,-1.7087,-1.7521,-1.7324,-1.7216,-1.729,-1.71,-1.6978,-1.6978,-1.6978,-1.6978,-1.6978,-1.6978,-1.6978,-1.6978,-1.6978,-1.6978,-1.6978,-1.6978,-1.6978,-1.6978,-1.6978,-1.6978,-1.6978,-1.6978,-1.6978,-1.6978,-1.6978,-1.6978,-1.6978,-1.6978,-1.6978,-1.6978,-1.6978,-1.6978,-1.6978,-1.6978,-1.6978,-1.6978,-1.6978,-1.6978,-1.6978,-1.6978,-1.6978,-1.6978,-1.6978,-1.6978,-1.6978,-1.6978,-1.6978,-1.6978,-1.6978,-1.6978,-1.6978,-1.6978,-1.6978,-1.6978,-1.6978,-1.6978,-1.6978,-1.6978,-1.6978,-1.6978,-1.6978,-1.6978,-1.6978,-1.6978,-1.6978,-1.6978,-1.6978,-1.6978,-1.6978,-1.6978,-1.6978,-1.6978,-1.6978,-1.7398,-1.8432,-2.0087,-2.2365,-2.5049,-2.7918,-2.9987,-3.1617,-3.3013,-3.3213,-3.3414,-3.3414,-3.3414,-3.3414,-3.3414,-3.3414,-3.3414,-3.344,-3.4055,-3.4322,-3.4362,-3.495,-3.5191,-3.5191,-3.5191,-3.5191,-3.5191,-3.5191,-3.5191,-3.5191]}]]